     2.11           OBSERVATION DATA    G (GPS)             RINEX VERSION / TYPE
teqc 2010Oct21 OPUS Account 20111031 20:55:04UTC            PGM / RUN BY / DATE
Y 1382                                                      MARKER NAME
2082                                                        MARKER NUMBER
CSMIDDLETON NGS                                             OBSERVER / AGENCY
4619K01307 TRIMBLE NETR5 4.41                               REC # / TYPE / VERS
12668873 TRM41249.00 NONE                                   ANT # / TYPE
  -745907.3959 -5576114.9078  2995126.9532                  APPROX POSITION XYZ
        1.9990        0.0000        0.0000                  ANTENNA: DELTA H/E/N
     1     1                                                WAVELENGTH FACT L1/2
     5    L1    L2    C1    P1    P2                        # / TYPES OF OBSERV
    15                                                      LEAP SECONDS
  2011     8    22     0     0    0.0000000     GPS         TIME OF FIRST OBS
                                                            END OF HEADER
 11  8 22  0  0  0.0000000  0  8G04G17G10G09G12G05G25G02
 112258388.05518  87474192.85156  21362043.992                    21362053.848
 120577447.30817  93956547.40316  22945122.609                    22945132.645
 109927395.55318  85657696.25856  20918436.039                    20918445.535
 122437870.14217  95406158.75554  23299154.164                    23299165.094
 114416532.64217  89155842.95216  21772747.688                    21772756.977
 117702961.16017  91716660.98017  22398114.297                    22398124.488
 129504940.66515 100913021.11113  24643975.719
 108515619.42018  84557755.76356  20649814.766                    20649821.266
 11  8 22  0  0 30.0000000  0  8G04G17G10G09G12G05G25G02
 112331185.286 8  87530917.95145  21375897.125                    21375906.656
 120625763.509 7  93994196.362 6  22954316.727                    22954326.559
 109913033.369 8  85646504.99745  20915702.414                    20915711.680
 122510328.836 7  95462620.01444  23312942.758                    23312953.559
 114346093.018 7  89100954.987 6  21759344.766                    21759352.527
 117606827.457 7  91641751.716 7  22379820.609                    22379830.816
 129401833.76115 100832678.12914  24624355.055
 108508244.574 8  84552009.13446  20648411.023                    20648417.738
 11  8 22  0  1  0.0000000  0  8G04G17G10G09G12G05G25G02
 112404167.160 8  87587786.92246  21389784.930                    21389794.840
 120674220.617 7  94031955.122 6  22963538.297                    22963547.813
 109899287.536 8  85635793.97746  20913086.914                    20913095.648
 122583037.745 7  95519276.23444  23326778.398                    23326789.863
 114276019.173 7  89046352.015 6  21746009.477                    21746017.078
 117510929.052 7  91567025.776 7  22361571.266                    22361581.977
 129298835.19015 100752418.99314  24604755.383
 108501182.348 8  84546506.11846  20647067.508                    20647074.363
 11  8 22  0  1 30.0000000  0  9G04G17G10G09G12G05G25G02G30
 112477331.595 8  87644798.14845  21403708.125                    21403717.344
 120722819.519 7  94069824.400 6  22972785.898                    22972796.383
 109886159.246 8  85625564.17146  20910588.492                    20910598.160
 122655993.557 7  95576124.83244  23340661.203                    23340673.277
 114206313.633 6  88992036.079 6  21732744.695                    21732753.512
 117415268.902 7  91492485.486 7  22343367.352                    22343379.074
 129195946.02015 100672246.04914  24585176.070
 108494431.782 8  84541245.94846  20645782.969                    20645789.566
 127931804.46115                  24344616.039
 11  8 22  0  2  0.0000000  0  9G04G17G10G09G12G05G25G02G30
 112550676.192 8  87701949.77746  21417664.914                    21417674.469
 120771560.987 7  94107804.725 6  22982061.125                    22982070.902
 109873649.150 8  85615816.04546  20908208.344                    20908217.945
 122729192.997 7  95633163.28644  23354590.586                    23354601.988
 114136979.055 6  88938009.194 6  21719550.836                    21719559.344
 117319850.075 7  91418133.262 7  22325210.000                    22325220.914
 129093170.68615 100592160.98915  24565616.906
 108487991.999 8  84536227.95946  20644556.969                    20644563.938
 127827153.679 4                  24324700.758
 11  8 22  0  2 30.0000000  0  9G04G17G10G09G12G05G25G02G30
 112624198.862 8  87759240.15945  21431655.016                    21431665.344
 120820445.475 6  94145896.483 6  22991362.766                    22991373.352
 109861758.241 8  85606550.42446  20905945.641                    20905954.855
 122802632.542 7  95690388.81744  23368565.930                    23368576.863
 114068017.720 7  88884273.104 6  21706428.016                    21706436.359
 117224675.694 7  91343971.493 7  22307098.430                    22307109.242
 128990509.868 5 100512166.019 4  24546083.328
 108481862.100 8  84531451.44246  20643390.266                    20643397.090
 127722686.587 4                  24304820.391
 11  8 22  0  3  0.0000000  0  8G04G17G10G09G12G05G25G02
 112697897.126 8  87816667.37145  21445680.367                    21445690.016
 120869473.447 7  94184100.085 6  23000693.000                    23000703.453
 109850486.694 8  85597767.40546  20903800.898                    20903809.871
 122876308.626 7  95747798.72244  23382585.891                    23382596.621
 113999431.861 7  88830829.619 6  21693376.633                    21693384.801
 117129748.234 7  91270002.141 7  22289034.945                    22289045.051
 128887967.003 5 100432262.544 4  24526569.492
 108476040.211 8  84526914.91346  20642282.875                    20642289.297
 11  8 22  0  3 30.0000000  0  8G04G17G10G09G12G05G25G02
 112771769.383 8  87874230.16345  21459737.688                    21459747.855
 120918645.933 7  94222416.319 6  23010050.102                    23010059.992
 109839836.177 8  85589468.31146  20901773.797                    20901783.250
 122950218.301 7  95805390.59244  23396650.367                    23396661.594
 113931224.926 7  88777681.395 6  21680397.383                    21680405.281
 117035071.510 7  91196228.166 7  22271018.398                    22271028.313
 128785544.925 5 100352453.229 4  24507078.977
 108470526.221 8  84522618.32746  20641233.461                    20641240.273
 11  8 22  0  4  0.0000000  0  8G04G17G10G09G12G05G25G02
 112845813.936 8  87931927.20246  21473828.094                    21473837.895
 120967963.992 7  94260845.947 7  23019435.883                    23019445.445
 109829808.063 8  85581654.20046  20899865.695                    20899875.270
 123024358.304 7  95863161.97844  23410758.570                    23410770.344
 113863399.277 7  88724830.251 6  21667489.789                    21667499.086
 116940648.220 7  91122651.642 7  22253049.883                    22253060.316
 128683246.280 5 100272740.236 3  24487610.859
 108465319.479 8  84518561.15246  20640242.852                    20640249.293
 11  8 22  0  4 30.0000000  0  9G04G17G10G09G12G05G25G02G30
 112920027.026 8  87989755.59846  21487950.008                    21487960.207
 121017426.708 7  94299388.300 6  23028848.883                    23028857.910
 109820401.232 8  85574324.22946  20898075.250                    20898085.133
 123098723.831 6  95921109.05444  23424909.984                    23424921.574
 113795956.022 7  88672277.108 6  21654655.867                    21654664.543
 116846480.222 7  91049274.099 7  22235130.734                    22235140.309
 128581072.092 5 100193124.178 3  24468167.781
 108460416.971 8  84514741.04246  20639309.555                    20639316.598
 127306670.00714                  24225665.102
 11  8 22  0  5  0.0000000  0  9G04G17G10G09G12G05G25G02G30
 112994407.332 8  88047714.25945  21502104.242                    21502114.004
 121067035.558 7  94338044.545 7  23038288.492                    23038298.598
 109811617.192 8  85567479.53946  20896403.172                    20896413.246
 123173312.489 6  95979230.03243  23439103.891                    23439115.465
 113728898.671 7  88620024.647 6  21641895.664                    21641904.230
 116752571.075 7  90976098.221 7  22217260.414                    22217270.457
 128479025.829 5 100113607.838 4  24448750.039
 108455819.008 8  84511158.22646  20638434.641                    20638441.578
 127203161.89814                  24205965.742
 11  8 22  0  5 30.0000000  0  9G04G17G10G09G12G05G25G02G30
 113068953.044 8  88105801.83545  21516290.016                    21516299.742
 121116791.558 7  94376815.409 7  23047756.844                    23047766.672
 109803457.013 7  85561120.96646  20894851.102                    20894860.484
 123248120.933 6  96037522.28044  23453340.102                    23453350.898
 113662229.738 7  88568074.856 6  21629209.320                    21629217.887
 116658924.297 7  90903126.790 7  22199439.570                    22199449.832
 128377110.128 5 100034192.997 4  24429356.195
 108451524.777 7  84507812.09146  20637617.266                    20637624.332
 127099854.196 5                  24186307.086
 11  8 22  0  6  0.0000000  0  9G04G17G10G09G12G05G25G02G30
 113143661.609 8  88164016.33346  21530506.398                    21530515.961
 121166694.817 7  94415701.033 6  23057253.039                    23057262.645
 109795920.700 8  85555248.53746  20893416.773                    20893425.715
 123323145.607 7  96095982.99144  23467616.875                    23467627.410
 113595951.422 7  88516429.421 6  21616596.547                    21616605.191
 116565542.168 7  90830361.579 7  22181670.461                    22181679.527
 128275327.74615  99954881.73714  24409987.781
 108447532.661 8  84504701.37146  20636857.711                    20636864.770
 126996749.402 5                  24166686.555
 11  8 22  0  6 30.0000000  0  9G04G17G10G09G12G05G25G02G30
 113218531.425 8  88222356.45145  21544753.289                    21544763.477
 121216746.066 7  94454702.028 6  23066777.219                    23066786.742
 109789009.450 8  85549863.18546  20892101.563                    20892110.836
 123398383.114 7  96154609.54344  23481933.320                    23481944.832
 113530066.521 7  88465090.541 6  21604058.680                    21604067.848
 116472428.048 7  90757805.230 7  22163950.039                    22163960.590
 128173680.028 5  99875676.202 5  24390644.188
 108443841.872 8  84501825.43146  20636155.344                    20636162.453
 126893850.513 5                  24147105.672
 11  8 22  0  7  0.0000000  0  9G04G17G10G09G12G05G25G02G30
 113293560.012 8  88280820.28445  21559031.047                    21559040.762
 121266945.709 7  94493818.613 6  23076329.883                    23076339.211
 109782723.356 8  85544964.95546  20890905.633                    20890914.422
 123473830.066 7  96213399.28444  23496291.594                    23496302.594
 113464577.055 7  88414059.820 6  21591596.750                    21591605.836
 116379584.398 7  90685459.598 7  22146283.219                    22146293.703
 128072170.593 5  99796578.017 5  24371328.781
 108440450.626 8  84499182.91346  20635510.039                    20635516.660
 126791159.976 5                  24127563.664
 11  8 22  0  7 30.0000000  0  9G04G17G10G09G12G05G25G02G30
 113368745.107 8  88339406.07745  21573338.297                    21573347.723
 121317294.683 7  94533051.536 6  23085911.367                    23085921.094
 109777063.065 7  85540554.37846  20889827.883                    20889837.813
 123549483.039 7  96272349.59344  23510688.031                    23510698.605
 113399485.329 7  88363339.003 7  21579210.320                    21579218.855
 116287014.485 7  90613327.286 7  22128667.328                    22128677.742
 127970801.500 4  99717589.198 4  24352037.422
 108437358.312 7  84496773.31946  20634921.672                    20634928.492
 126688680.667 5                  24108061.820
 11  8 22  0  8  0.0000000  0  8G04G17G10G09G12G05G02G30
 113444084.916 8  88398112.41145  21587675.156                    21587684.457
 121367793.345 7  94572401.119 7  23095521.070                    23095531.480
 109772029.162 8  85536631.87546  20888869.875                    20888879.727
 123625338.591 7  96331457.74544  23525122.438                    23525134.324
 113334794.015 7  88312930.223 7  21566900.070                    21566909.250
 116194721.161 7  90541410.501 7  22111104.453                    22111114.715
 108434563.793 8  84494595.79246  20634389.969                    20634396.664
 126586415.572 5                  24088602.156
 11  8 22  0  8 30.0000000  0  9G04G17G10G09G12G05G25G02G30
 113519577.626 8  88456937.88545  21602040.977                    21602049.789
 121418442.787 7  94611868.206 7  23105159.641                    23105169.699
 109767622.449 8  85533198.10146  20888031.570                    20888041.484
 123701393.425 7  96390721.18344  23539595.242                    23539607.227
 113270505.889 7  88262835.609 6  21554666.742                    21554675.199
 116102707.615 7  90469711.726 7  22093595.219                    22093605.016
 127768498.52514  99559940.23214  24313541.672
 108432066.516 8  84492649.86646  20633914.641                    20633921.527
 126484367.68114                  24069182.563
 11  8 22  0  9  0.0000000  0  9G04G17G10G09G12G05G25G02G30
 113595220.762 8  88515880.58245  21616435.805                    21616444.059
 121469243.508 7  94651453.147 6  23114826.875                    23114836.141
 109763843.477 7  85530253.46846  20887312.742                    20887322.086
 123777644.066 6  96450137.20344  23554105.258                    23554116.289
 113206623.149 7  88213056.866 6  21542509.727                    21542518.637
 116010976.519 7  90398233.030 7  22076139.023                    22076149.113
 127667566.61014  99481292.05514  24294330.688
 108429864.890 7  84490934.31546  20633495.875                    20633502.520
 126382539.691 4                  24049805.305
 11  8 22  0  9 30.0000000  0  9G04G17G10G09G12G05G25G02G30
 113671012.621 8  88574939.15345  21630858.227                    21630867.438
 121520196.003 7  94691156.387 6  23124521.883                    23124531.105
 109760692.738 8  85527798.36746  20886713.133                    20886722.422
 123854087.330 6  96509703.30044  23568651.828                    23568662.586
 113143148.149 7  88163595.809 6  21530431.438                    21530439.000
 115919530.815 7  90326976.720 7  22058737.414                    22058747.129
 127566785.61215  99402761.40614  24275155.641
 108427958.034 8  84489448.45847  20633133.125                    20633139.938
 126280934.51114                  24030472.883
 11  8 22  0 10  0.0000000  0  8G04G17G10G09G12G05G25G02
 113746951.184 8  88634112.02645  21645308.055                    21645318.465
 121571300.859 7  94730978.347 6  23134247.078                    23134256.957
 109758170.241 8  85525832.81846  20886232.555                    20886242.371
 123930720.005 7  96569416.99244  23583234.508                    23583245.473
 113080083.576 7  88114454.617 7  21518430.570                    21518438.691
 115828373.588 7  90255945.174 7  22041390.227                    22041400.605
 127466158.19315  99324350.45114  24256007.313
 108426345.231 8  84488191.73146  20632826.336                    20632832.941
 11  8 22  0 10 30.0000000  0  8G04G17G10G09G12G05G25G02
 113823034.209 8  88693397.48045  21659786.477                    21659796.324
 121622558.486 7  94770919.285 6  23144001.484                    23144010.895
 109756276.211 7  85524356.96846  20885872.656                    20885881.910
 124007538.172 7  96629275.24344  23597853.148                    23597864.781
 113017431.528 7  88065634.874 7  21506508.281                    21506515.996
 115737507.563 7  90185140.569 7  22024099.461                    22024108.977
 127365686.647 5  99246061.003 4  24236887.109
 108425024.375 8  84487162.50446  20632574.625                    20632581.879
 11  8 22  0 11  0.0000000  0  8G04G17G10G09G12G05G25G02
 113899259.596 8  88752793.87245  21674291.359                    21674301.516
 121673969.779 7  94810979.967 6  23153785.805                    23153793.895
 109755011.192 8  85523371.27746  20885631.898                    20885641.113
 124084538.556 7  96689275.45844  23612506.141                    23612517.695
 112955194.662 7  88017138.645 6  21494664.563                    21494672.730
 115646935.617 7  90114565.114 7  22006864.727                    22006873.754
 127265373.602 5  99167895.087 4  24217797.375
 108423994.901 8  84486360.30446  20632378.758                    20632385.781
 11  8 22  0 11 30.0000000  0  8G04G17G10G09G12G05G25G02
 113975625.643 8  88812299.86145  21688823.867                    21688833.617
 121725535.280 7  94851160.858 6  23163597.031                    23163607.543
 109754375.918 8  85522876.28446  20885510.703                    20885519.961
 124161717.925 7  96749415.15444  23627192.375                    23627203.195
 112893375.319 7  87968967.771 7  21482900.359                    21482908.676
 115556660.896 8  90044221.234 7  21989686.047                    21989695.238
 127165221.917 5  99089854.919 4  24198739.445
 108423255.775 8  84485784.36646  20632238.281                    20632245.004
 11  8 22  0 12  0.0000000  0  8G04G17G10G09G12G05G25G02
 114052129.423 7  88871913.13445  21703381.953                    21703391.836
 121777255.000 7  94891461.907 6  23173439.234                    23173449.707
 109754369.899 8  85522871.61946  20885509.719                    20885518.773
 124239072.282 7  96809691.20944  23641912.047                    23641923.703
 112831975.236 7  87921123.520 7  21471216.289                    21471224.801
 115466685.587 7  89974110.689 7  21972563.344                    21972573.422
 127065233.472 5  99011941.925 4  24179712.336
 108422805.122 8  84485433.21746  20632152.523                    20632159.457
 11  8 22  0 12 30.0000000  0  9G04G17G10G09G12G05G25G02G30
 114128770.122 8  88931633.10845  21717965.992                    21717976.055
 121829130.544 6  94931884.397 6  23183308.664                    23183320.449
 109754994.058 8  85523358.00046  20885628.719                    20885637.594
 124316598.998 7  96870101.56044  23656665.047                    23656676.559
 112770997.459 7  87873608.450 7  21459613.211                    21459621.188
 115377013.652 7  89904236.551 7  21955499.258                    21955509.586
 126965411.728 5  98934158.893 4  24160715.867
 108422642.725 8  84485306.68246  20632121.164                    20632128.031
 125676162.85615                  23915382.000
 11  8 22  0 13  0.0000000  0  9G04G17G10G09G12G05G25G02G30
 114205545.168 8  88991457.79145  21732576.070                    21732585.449
 121881161.982 6  94972428.329 6  23193210.586                    23193221.703
 109756248.414 7  85524335.44046  20885867.078                    20885876.586
 124394294.116 7  96930643.10744  23671450.563                    23671462.238
 112710443.888 7  87826423.897 7  21448089.852                    21448098.813
 115287647.307 8  89834600.521 7  21938493.789                    21938503.801
 126865758.863 5  98856507.368 4  24141753.305
 108422766.964 8  84485403.49946  20632145.203                    20632151.961
 125576195.296 5                  23896359.266
 11  8 22  0 13 30.0000000  0  9G04G17G10G09G12G05G25G02G30
 114282452.625 8  89051385.64845  21747211.305                    21747220.980
 121933349.896 7  95013094.196 6  23203142.891                    23203152.555
 109758132.857 8  85525803.86446  20886225.953                    20886235.223
 124472154.527 7  96991313.52344  23686266.539                    23686278.801
 112650317.273 7  87779572.018 7  21436647.914                    21436656.816
 115198589.212 8  89765204.677 7  21921546.977                    21921556.281
 126766277.597 5  98778989.566 5  24122822.789
 108423176.926 8  84485722.96046  20632223.313                    20632230.082
 125476473.01514                  23877383.156
 11  8 22  0 14  0.0000000  0  9G04G17G10G09G12G05G25G02G30
 114359490.405 8  89111415.05945  21761870.875                    21761880.813
 121985694.859 7  95053882.429 6  23213104.266                    23213113.379
 109760647.973 8  85527763.70646  20886704.516                    20886713.371
 124550176.910 7  97052110.08744  23701114.125                    23701125.492
 112590619.879 7  87733054.596 7  21425287.992                    21425296.164
 115109842.631 7  89696051.560 7  21904657.859                    21904667.961
 126666970.41715  98701607.46315  24103925.320
 108423871.561 8  84486264.24746  20632355.406                    20632362.012
 125376998.884 5                  23858454.773
 11  8 22  0 14 30.0000000  0  9G04G17G10G09G12G05G25G02G30
 114436656.987 8  89171544.82045  21776555.273                    21776565.254
 122038197.640 7  95094793.698 6  23223093.750                    23223104.539
 109763794.275 8  85530215.38346  20887302.742                    20887312.086
 124628357.904 7  97113030.26944  23715991.211                    23716003.301
 112531353.991 7  87686873.419 7  21414010.531                    21414017.859
 115021410.382 7  89627143.396 7  21887830.344                    21887838.770
 126567840.118 5  98624363.146 6  24085061.242                    24085074.020
 108424849.629 8  84487026.38546  20632541.211                    20632548.211
 125277775.749 5                  23839570.945
 11  8 22  0 15  0.0000000  0  9G04G17G10G09G12G05G25G02G30
 114513949.983 8  89231773.12645  21791263.500                    21791273.723
 122090858.517 7  95135828.115 6  23233116.289                    23233125.934
 109767571.143 8  85533158.43446  20888021.523                    20888030.852
 124706694.219 7  97174071.45244  23730897.828                    23730910.047
 112472521.945 7  87641030.276 7  21402814.961                    21402822.656
 114933295.467 7  89558482.521 7  21871062.250                    21871071.813
 126468889.199 5  98547258.603 6  24066231.344                    24066244.277
 108426109.858 8  84488008.39246  20632781.266                    20632787.926
 125178806.474 4                  23820737.602
 11  8 22  0 15 30.0000000  0  8G04G17G10G09G12G05G02G30
 114591368.094 8  89292098.92145  21805996.195                    21806005.402
 122143678.959 7  95176986.844 6  23243166.859                    23243177.008
 109771979.377 8  85536593.43946  20888860.773                    20888869.914
 124785182.766 7  97235231.25244  23745834.273                    23745845.488
 112414126.379 7  87595527.259 7  21391702.750                    21391711.020
 114845500.844 7  89490071.174 7  21854355.820                    21854365.402
 108427651.827 7  84489209.91346  20633074.883                    20633081.363
 125080087.23614                  23801951.883
 11  8 22  0 16  0.0000000  0  8G04G17G10G09G12G05G25G02
 114668908.097 8  89352519.68345  21820751.164                    21820760.785
 122196657.791 7  95218269.016 6  23253248.430                    23253258.621
 109777017.872 8  85540519.55146  20889819.727                    20889829.129
 124863818.965 7  97296506.12843  23760797.938                    23760809.332
 112356168.344 7  87550365.169 7  21380673.367                    21380682.047
 114758028.042 7  89421910.621 7  21837709.789                    21837719.496
 126271532.16815  98393475.26816  24028674.938
 108429472.749 8  84490628.83146  20633421.023                    20633427.508
 11  8 22  0 16 30.0000000  0  7G04G17G10G09G12G05G02
 114746569.238 8  89413034.82645  21835530.055                    21835539.355
 122249797.278 7  95259676.357 6  23263360.258                    23263371.438
 109782687.742 8  85544937.64346  20890898.602                    20890907.844
 124942600.593 7  97357894.35744  23775790.586                    23775801.520
 112298651.543 7  87505546.857 7  21369728.273                    21369736.746
 114670881.522 8  89354004.331 7  21821126.914                    21821136.094
 108431572.962 8  84492265.38246  20633820.672                    20633827.406
 11  8 22  0 17  0.0000000  0  9G04G17G10G09G12G05G25G02G30
 114824349.170 8  89473642.56045  21850331.078                    21850340.473
 122303097.021 7  95301208.616 6  23273503.328                    23273513.953
 109788988.443 8  85549847.29146  20892097.641                    20892106.516
 125021523.765 7  97419392.81544  23790808.203                    23790820.523
 112241577.308 7  87461073.448 7  21358867.531                    21358876.121
 114584063.352 8  89286353.851 7  21804605.695                    21804615.246
 126074931.36115  98240281.73216  23991264.516                    23991276.559
 108433950.758 8  84494118.20846  20634273.375                    20634279.785
 124785506.15415                  23745898.094
 11  8 22  0 17 30.0000000  0  9G04G17G10G09G12G05G25G02G30
 114902245.924 8  89534341.30945  21865153.711                    21865163.848
 122356557.621 7  95342866.190 6  23283677.102                    23283686.953
 109795920.042 8  85555248.54746  20893416.492                    20893425.734
 125100585.110 7  97480998.97044  23805854.070                    23805865.750
 112184948.295 7  87416946.940 7  21348091.359                    21348099.691
 114497576.560 8  89218961.627 7  21788147.234                    21788157.125
 125976916.91015  98163906.93816  23972610.555                    23972625.176
 108436604.925 8  84496186.41046  20634778.281                    20634784.852
 124687848.361 5                  23727314.672
 11  8 22  0 18  0.0000000  0  9G04G17G10G09G12G05G25G02G30
 114980257.515 8  89595129.53345  21879999.367                    21880008.980
 122410179.682 7  95384649.538 6  23293880.352                    23293890.770
 109803482.386 8  85561141.29946  20894855.734                    20894864.770
 125179781.432 7  97542710.23844  23820924.609                    23820935.871
 112128766.437 7  87373168.862 7  21337400.211                    21337408.762
 114411423.564 8  89151829.477 7  21771752.797                    21771763.684
 125879097.431 5  98087683.972 6  23953997.313                    23954011.117
 108439534.235 8  84498468.99146  20635335.656                    20635342.547
 124590461.391 4                  23708781.844
 11  8 22  0 18 30.0000000  0  9G04G17G10G09G12G05G25G02G30
 115058382.190 7  89656005.88645  21894866.031                    21894875.273
 122463964.082 7  95426559.431 6  23304115.383                    23304126.203
 109811675.410 8  85567525.48346  20896414.469                    20896424.063
 125259109.084 6  97604523.90844  23836020.586                    23836031.695
 112073033.695 7  87329740.761 7  21326794.578                    21326802.574
 114325607.591 8  89084959.969 7  21755423.141                    21755432.805
 125781475.752 5  98011615.224 6  23935420.094                    23935433.746
 108442737.545 8  84500965.08547  20635945.352                    20635951.777
 124493347.87214                  23690300.094
 11  8 22  0 19  0.0000000  0  8G04G17G10G09G12G05G25G02
 115136618.131 8  89716968.95345  21909753.406                    21909763.219
 122517911.476 7  95468596.324 6  23314380.992                    23314391.766
 109820499.386 8  85574401.30646  20898093.664                    20898103.211
 125338564.944 7  97666437.42643  23851139.773                    23851151.422
 112017753.244 7  87286665.063 7  21316275.195                    21316283.875
 114240131.299 8  89018355.123 7  21739157.242                    21739167.289
 125684054.717 5  97935702.789 6  23916881.031                    23916895.508
 108446214.023 8  84503674.03046  20636606.898                    20636613.793
 11  8 22  0 19 30.0000000  0  9G04G17G10G09G12G05G25G02G30
 115214963.598 7  89778017.35045  21924662.266                    21924671.879
 122572022.323 7  95510760.576 6  23324678.141                    23324689.152
 109829954.021 8  85581768.57746  20899892.789                    20899901.801
 125418145.674 6  97728448.30443  23866282.500                    23866295.559
 111962927.370 7  87243943.589 7  21305842.063                    21305850.895
 114154997.752 8  88952017.363 7  21722957.055                    21722966.457
 125586837.046 6  97859948.849 6  23898381.586                    23898395.285
 108449962.517 8  84506594.94746  20637320.297                    20637326.988
 124299946.35914                  23653501.023
 11  8 22  0 20  0.0000000  0  9G04G17G10G09G12G05G25G02G30
 115293416.100 7  89839149.14645  21939591.094                    21939601.395
 122626296.384 7  95553052.039 6  23335006.859                    23335016.621
 109840038.383 8  85589626.52646  20901811.977                    20901820.938
 125497847.567 6  97790553.60143  23881450.117                    23881462.660
 111908557.100 7  87201577.146 7  21295495.555                    21295504.371
 114070208.754 8  88885948.055 7  21706821.930                    21706831.664
 125489824.568 5  97784354.713 6  23879920.992                    23879934.188
 108453980.938 8  84509726.18146  20638084.922                    20638091.652
 124203670.27514                  23635181.570
 11  8 22  0 20 30.0000000  0  9G04G17G10G09G12G05G25G02G30
 115371974.113 8  89900363.17645  21954540.500                    21954550.324
 122680734.659 7  95595471.452 7  23345365.313                    23345376.492
 109850752.925 8  85597975.53146  20903850.859                    20903859.922
 125577667.783 7  97852751.05543  23896639.344                    23896651.906
 111854645.145 7  87159567.854 7  21285236.547                    21285245.395
 113985767.934 8  88820150.068 7  21690753.313                    21690762.902
 125393020.478 6  97708922.971 5  23861500.188                    23861513.223
 108458268.692 8  84513067.29146  20638900.891                    20638907.711
 124107679.66715                  23616913.633
 11  8 22  0 21  0.0000000  0  9G04G17G10G09G12G05G25G02G30
 115450635.822 8  89961658.00045  21969509.477                    21969519.176
 122735338.037 7  95638019.497 6  23355756.695                    23355766.918
 109862097.288 8  85606815.31146  20906009.031                    20906017.977
 125657602.789 7  97915037.97743  23911850.578                    23911862.488
 111801194.105 7  87117917.718 7  21275065.281                    21275074.027
 113901678.086 8  88754625.593 7  21674752.000                    21674760.973
 125296427.538 6  97633655.828 6  23843119.703                    23843131.820
 108462824.711 8  84516617.42846  20639767.695                    20639774.613
 124011977.86714                  23598701.742
 11  8 22  0 21 30.0000000  0  9G04G17G10G09G12G05G25G02G30
 115529399.335 8  90023032.16245  21984497.484                    21984507.648
 122790106.788 7  95680696.374 7  23366178.836                    23366189.188
 109874071.008 8  85616145.50146  20908287.813                    20908297.043
 125737649.090 7  97977411.64244  23927084.047                    23927094.770
 111748205.585 8  87076627.968 7  21264982.008                    21264990.605
 113817941.718 8  88689376.521 7  21658817.367                    21658826.680
 125200048.244 6  97558555.109 6  23824778.375                    23824791.246
 108467647.753 8  84520375.63046  20640685.727                    20640692.285
 123916565.74315                  23580544.117
 11  8 22  0 22  0.0000000  0  9G04G17G10G09G12G05G25G02G30
 115608262.988 8  90084484.32845  21999504.617                    21999514.984
 122845041.432 7  95723502.529 6  23376632.391                    23376642.688
 109886674.164 8  85625966.14746  20910686.461                    20910695.520
 125817803.654 6  98039869.66743  23942335.156                    23942347.770
 111695682.148 7  87035700.630 7  21254987.109                    21254995.305
 113734561.642 7  88624405.096 7  21642949.836                    21642959.223
 125103885.377 6  97483623.119 6  23806479.695                    23806492.418
 108472736.658 8  84524341.01146  20641654.180                    20641660.418
 123821447.63815                  23562442.805
 11  8 22  0 22 30.0000000  0  9G04G17G10G09G12G05G25G02G30
 115687224.765 8  90146012.95045  22014530.375                    22014540.613
 122900142.413 6  95766438.311 6  23387116.945                    23387127.805
 109899906.302 8  85636276.92646  20913203.898                    20913213.641
 125898062.898 6  98102409.23643  23957608.945                    23957620.422
 111643625.421 8  86995136.958 7  21245081.320                    21245089.766
 113651540.649 8  88559713.482 7  21627151.953                    21627161.680
 125007941.433 6  97408861.626 5  23788220.992                    23788233.813
 108478089.906 8  84528512.36846  20642673.141                    20642679.711
 123726624.831 5                  23544399.922
 11  8 22  0 23  0.0000000  0  9G04G17G10G09G12G05G25G02G30
 115766283.063 8  90207616.78945  22029575.297                    22029585.082
 122955410.327 7  95809504.147 6  23397635.266                    23397645.352
 109913766.918 8  85647077.41546  20915841.672                    20915851.359
 125978423.643 6  98165027.93143  23972900.828                    23972912.434
 111592037.961 7  86954938.966 7  21235264.023                    21235272.723
 113568881.183 7  88495303.574 7  21611422.141                    21611431.590
 124912219.199 6  97334272.947 6  23770006.375                    23770018.516
 108483706.555 8  84532888.97146  20643741.680                    20643747.809
 123632101.686 5                  23526412.063
 11  8 22  0 23 30.0000000  0  9G04G17G10G09G12G05G25G02G30
 115845435.973 7  90269294.34145  22044637.531                    22044647.621
 123010845.799 7  95852700.596 6  23408184.133                    23408194.605
 109928255.755 8  85658367.41746  20918598.523                    20918608.215
 126058882.370 6  98227722.97444  23988212.750                    23988224.180
 111540921.806 7  86915108.231 7  21225537.219                    21225545.691
 113486586.149 7  88431177.623 7  21595761.805                    21595771.809
 124816721.313 6  97259859.081 5  23751832.859                    23751845.836
 108489585.481 8  84537469.93846  20644860.500                    20644866.938
 123537880.43516                  23508483.906
 11  8 22  0 24  0.0000000  0  9G04G17G10G09G12G05G25G02G30
 115924681.549 8  90331044.10845  22059717.750                    22059727.555
 123066449.055 6  95896027.775 6  23418764.148                    23418775.523
 109943372.209 8  85670146.45046  20921475.633                    20921484.336
 126139435.798 7  98290491.78744  24003541.711                    24003554.434
 111490278.862 8  86875646.207 7  21215900.406                    21215908.156
 113404658.277 8  88367337.811 7  21580171.695                    21580180.691
 124721450.398 6  97185622.055 5  23733703.516                    23733716.914
 108495725.464 8  84542254.33346  20646028.984                    20646035.234
 123443963.999 6                  23490612.156
 11  8 22  0 24 30.0000000  0  9G04G17G10G09G12G05G25G02G30
 116004017.933 7  90392864.63945  22074814.813                    22074824.883
 123122220.838 7  95939486.285 6  23429377.242                    23429388.480
 109959115.827 8  85682414.20246  20924471.508                    20924481.098
 126220080.562 6  98353331.73744  24018887.938                    24018900.945
 111440111.419 7  86836554.716 7  21206353.250                    21206361.730
 113323100.368 7  88303786.246 7  21564651.484                    21564661.043
 124626409.129 6  97111563.935 5  23715619.234                    23715630.660
 108502125.186 8  84547241.11546  20647246.609                    20647252.973
 123350355.089 5                  23472798.313
 11  8 22  0 25  0.0000000  0  8G04G17G10G09G12G05G25G02
 116083443.582 7  90454754.74045  22089929.313                    22089938.664
 123178161.454 6  95983076.319 6  23440023.352                    23440034.305
 109975486.148 8  85695170.33146  20927586.953                    20927596.016
 126300813.403 6  98416240.33143  24034249.469                    24034263.594
 111390421.134 8  86797835.039 7  21196897.930                    21196906.527
 113241914.718 7  88240524.739 7  21549202.227                    21549211.449
 124531600.105 6  97037686.795 6  23697577.313                    23697589.355
 108508783.218 8  84552429.18246  20648513.594                    20648520.539
 11  8 22  0 25 30.0000000  0  9G04G17G10G09G12G05G25G02G30
 116162957.107 7  90516713.29745  22105060.461                    22105069.965
 123234271.455 7  96026798.352 6  23450700.992                    23450710.773
 109992482.947 8  85708414.56546  20930821.195                    20930830.680
 126381631.529 6  98479215.35843  24049629.758                    24049642.082
 111341210.771 7  86759489.308 7  21187533.430                    21187541.641
 113161104.358 7  88177555.688 7  21533824.656                    21533834.504
 124437026.434 6  96963993.095 6  23679580.820                    23679592.414
 108515699.080 8  84557818.12646  20649829.688                    20649836.316
 123164069.48315                  23437348.680
 11  8 22  0 26  0.0000000  0  8G04G17G10G09G12G05G25G02
 116242556.023 7  90578738.39845  22120207.133                    22120216.844
 123290551.157 7  96070652.642 6  23461411.070                    23461419.895
 110010105.255 8  85722146.24146  20934174.625                    20934183.953
 126462531.001 6  98542253.80143  24065023.219                    24065036.910
 111292481.647 8  86721518.592 7  21178260.609                    21178268.617
 113080671.767 7  88114881.008 7  21518518.594                    21518528.594
 124342690.384 6  96890484.465 5  23661629.328                    23661640.324
 108522870.866 8  84563406.53246  20651194.352                    20651200.688
 11  8 22  0 26 30.0000000  0  8G04G17G10G09G12G05G25G02
 116322239.012 7  90640829.00345  22135370.445                    22135379.832
 123347001.419 7  96114639.802 6  23472153.406                    23472162.484
 110028352.758 8  85736365.04746  20937646.891                    20937656.090
 126543508.513 6  98605353.06843  24080433.102                    24080446.129
 111244236.179 8  86683924.728 7  21169079.531                    21169088.008
 113000619.712 7  88052502.845 7  21503285.406                    21503294.711
 124248594.708 6  96817163.208 6  23643722.570                    23643735.289
 108530297.941 8  84569193.83646  20652607.414                    20652614.148
 11  8 22  0 27  0.0000000  0  8G04G17G10G09G12G05G25G02
 116402004.309 7  90702983.74245  22150548.898                    22150558.773
 123403622.673 7  96158760.227 6  23482927.352                    23482937.637
 110047224.756 8  85751070.52146  20941238.109                    20941247.430
 126624560.910 7  98668510.66544  24095858.961                    24095870.207
 111196476.179 8  86646709.166 7  21159990.883                    21159999.445
 112920950.885 8  87990423.306 7  21488124.766                    21488134.348
 124154741.972 6  96744031.264 6  23625863.414                    23625875.375
 108537978.532 8  84575178.72546  20654069.219                    20654075.805
 11  8 22  0 27 30.0000000  0  8G04G17G10G09G12G05G25G02
 116481850.057 8  90765201.17445  22165743.359                    22165752.867
 123460414.783 7  96203013.792 6  23493734.219                    23493744.789
 110066720.764 8  85766262.22546  20944947.930                    20944956.734
 126705685.017 6  98731724.10644  24111295.805                    24111307.578
 111149203.599 7  86609873.409 7  21150995.398                    21151004.051
 112841668.054 8  87928644.535 7  21473037.680                    21473047.121
 124061134.923 6  96671090.764 5  23608050.188                    23608063.039
 108545911.386 8  84581360.15146  20655578.898                    20655585.758
 11  8 22  0 28  0.0000000  0  8G04G17G10G09G12G05G25G02
 116561774.440 8  90827479.89645  22180952.320                    22180962.332
 123517378.926 6  96247401.373 6  23504573.805                    23504584.875
 110086840.455 8  85781939.88046  20948776.359                    20948785.641
 126786877.614 6  98794990.96843  24126745.938                    24126757.395
 111102420.652 7  86573419.164 7  21142092.578                    21142101.324
 112762773.478 8  87867168.301 7  21458024.742                    21458034.145
 123967776.394 7  96598343.855 6  23590285.578                    23590296.859
 108554095.754 8  84587737.57646  20657136.297                    20657143.215
 11  8 22  0 28 30.0000000  0  8G04G17G10G09G12G05G25G02
 116641776.013 7  90889818.74245  22196175.891                    22196186.109
 123574515.305 7  96291923.173 6  23515447.500                    23515457.824
 110107582.500 8  85798102.51246  20952723.633                    20952733.121
 126868135.280 7  98858308.48543  24142209.727                    24142220.711
 111056129.257 7  86537347.964 7  21133284.219                    21133292.551
 112684269.782 8  87805996.659 7  21443085.297                    21443095.469
 123874668.847 6  96525792.630 6  23572566.758                    23572579.613
 108562530.208 8  84594309.88246  20658741.156                    20658747.988
 11  8 22  0 29  0.0000000  0  8G04G17G10G09G12G05G25G02
 116721852.861 7  90952216.28645  22211414.273                    22211425.051
 123631824.295 6  96336579.445 6  23526352.461                    23526363.234
 110128945.942 8  85814749.37846  20956788.789                    20956798.016
 126949454.385 7  98921673.94243  24157683.273                    24157695.316
 111010330.930 7  86501660.993 7  21124568.742                    21124577.391
 112606159.487 8  87745131.543 7  21428222.289                    21428231.941
 123781814.846 6  96453438.920 5  23554897.383                    23554909.320
 108571213.313 8  84601075.93646  20660393.836                    20660400.426
 11  8 22  0 29 30.0000000  0  8G04G17G10G09G12G05G25G02
 116802004.008 7  91014671.68445  22226666.461                    22226676.496
 123689306.917 6  96381371.045 6  23537291.219                    23537301.613
 110150930.911 8  85831880.52246  20960972.648                    20960981.637
 127030832.668 6  98985085.49043  24173170.086                    24173181.125
 110965028.604 7  86466360.463 7  21115947.977                    21115956.230
 112528446.002 8  87684575.627 7  21413433.297                    21413443.258
 123689217.858 6  96381285.512 5  23537276.594                    23537288.855
 108580144.932 8  84608035.63846  20662093.109                    20662099.859
 11  8 22  0 30  0.0000000  0  8G04G17G10G09G12G05G25G02
 116882226.862 7  91077183.02445  22241932.891                    22241942.070
 123746962.884 6  96426297.750 6  23548263.008                    23548273.410
 110173536.070 8  85849494.92046  20965274.297                    20965283.320
 127112266.119 6  99048539.98143  24188666.781                    24188677.547
 110920223.200 8  86431447.157 7  21107422.055                    21107430.375
 112451131.108 8  87624330.315 7  21398721.125                    21398730.348
 123596879.713 6  96309333.820 5  23519706.023                    23519717.219
 108589322.643 8  84615187.10646  20663839.844                    20663846.664
 11  8 22  0 30 30.0000000  0  8G04G17G10G09G12G05G25G02
 116962520.278 7  91139749.31044  22257211.758                    22257221.844
 123804792.920 6  96471360.031 6  23559268.102                    23559278.348
 110196761.169 8  85867592.40246  20969693.742                    20969703.023
 127193751.697 7  99112035.09443  24204173.352                    24204184.109
 110875916.902 7  86396922.760 7  21098990.414                    21098999.004
 112374217.548 8  87564397.709 7  21384084.734                    21384094.559
 123504803.455 6  96237586.087 5  23502183.094                    23502194.898
 108598745.714 8  84622529.76646  20665633.063                    20665639.590
 11  8 22  0 31  0.0000000  0  9G04G17G10G09G12G05G25G02G30
 117042882.662 7  91202369.34645  22272503.922                    22272514.023
 123862797.718 7  96516558.511 6  23570305.766                    23570315.832
 110220605.523 8  85886172.41446  20974231.242                    20974240.305
 127275286.446 6  99175568.53543  24219688.359                    24219700.129
 110832112.163 8  86362789.186 7  21090655.031                    21090663.133
 112297708.269 8  87504780.135 7  21369525.656                    21369535.230
 123412991.974 6  96166044.742 5  23484712.313                    23484722.961
 108608412.949 8  84630062.68046  20667472.352                    20667479.207
 122162771.67115                  23246798.133
 11  8 22  0 31 30.0000000  0  9G04G17G10G09G12G05G25G02G30
 117123311.946 7  91265041.46745  22287810.391                    22287819.531
 123920977.438 6  96561893.265 6  23581377.156                    23581386.855
 110245067.450 8  85905233.66646  20978885.891                    20978895.816
 127356866.466 6  99239137.28043  24235212.172                    24235224.121
 110788809.872 8  86329047.115 7  21082414.758                    21082422.926
 112221605.109 8  87445479.022 7  21355043.727                    21355053.555
 123321447.437 6  96094711.360 5  23467292.383                    23467302.875
 108618322.896 8  84637784.71746  20669358.055                    20669364.453
 122073764.94015                  23229859.813
 11  8 22  0 32  0.0000000  0  9G04G17G10G09G12G05G25G02G30
 117203806.837 7  91327764.71045  22303127.594                    22303136.590
 123979332.441 7  96607364.617 6  23592482.180                    23592492.582
 110270146.525 8  85924775.81846  20983658.594                    20983667.695
 127438488.932 6  99302739.12343  24250744.141                    24250755.695
 110746012.472 8  86295698.462 7  21074270.875                    21074279.027
 112145911.155 7  87386496.764 7  21340638.930                    21340649.254
 123230172.918 6  96023588.424 5  23449923.023                    23449935.059
 108628474.581 8  84645695.13146  20671290.211                    20671296.688
 121985108.03115                  23212989.727
 11  8 22  0 32 30.0000000  0  9G04G17G10G09G12G05G25G02G30
 117284365.728 7  91390537.86644  22318456.891                    22318467.547
 124037863.088 7  96652972.846 6  23603619.711                    23603630.039
 110295841.571 8  85944797.95446  20988547.586                    20988557.320
 127520150.740 6  99366371.60643  24266284.406                    24266295.770
 110703721.997 8  86262744.833 7  21066223.070                    21066231.738
 112070629.122 8  87327835.485 7  21326313.656                    21326323.270
 123139170.977 7  95952677.785 5  23432606.570                    23432617.137
 108638866.913 8  84653793.05646  20673267.703                    20673274.234
 121896803.68415                  23196185.203
 11  8 22  0 33  0.0000000  0  9G04G17G10G09G12G05G25G02G30
 117364986.503 7  91453359.22244  22333798.000                    22333808.984
 124096570.106 6  96698718.502 6  23614791.117                    23614802.207
 110322151.961 7  85965299.56046  20993554.633                    20993564.453
 127601848.418 6  99430032.01943  24281830.070                    24281842.973
 110661939.882 8  86230187.312 7  21058272.563                    21058280.906
 111995761.008 8  87269496.732 7  21312066.406                    21312075.941
 123048444.053 6  95881981.533 5  23415340.742                    23415352.395
 108649498.276 8  84662077.24246  20675290.766                    20675297.270
 121808854.357 5                  23179448.008
 11  8 22  0 33 30.0000000  0  9G04G17G10G09G12G05G25G02G30
 117445668.152 7  91516228.02544  22349151.336                    22349161.867
 124155453.558 6  96744601.721 6  23625996.211                    23626007.930
 110349076.681 8  85986279.85946  20998678.594                    20998687.227
 127683579.091 6  99493718.10443  24297383.906                    24297395.996
 110620667.754 8  86198027.204 7  21050418.555                    21050427.125
 111921309.204 8  87211482.378 7  21297899.234                    21297908.066
 122957995.011 6  95811501.798 5  23398129.344                    23398141.133
 108660367.625 8  84670546.87346  20677359.289                    20677365.801
 121721262.945 5                  23162781.328
 11  8 22  0 34  0.0000000  0  9G04G17G10G09G12G05G25G02G30
 117526408.712 7  91579142.74944  22364516.016                    22364526.789
 124214513.954 6  96790622.731 6  23637235.578                    23637245.586
 110376614.610 7  86007738.00046  21003918.578                    21003928.590
 127765339.156 6  99557427.08943  24312941.945                    24312954.309
 110579907.321 8  86166265.800 7  21042662.297                    21042670.367
 111847276.222 8  87153794.397 7  21283810.766                    21283820.391
 122867826.532 6  95741240.665 6  23380970.641                    23380983.320
 108671473.617 8  84679200.89946  20679472.406                    20679478.934
 121634032.28615                  23146180.891
 11  8 22  0 34 30.0000000  0  9G04G17G10G09G12G05G25G02G30
 117607206.620 7  91642102.14044  22379891.258                    22379901.813
 124273751.739 7  96836781.974 6  23648507.859                    23648518.391
 110404764.850 8  86029673.24046  21009275.211                    21009284.980
 127847125.561 6  99621156.56343  24328504.680                    24328518.254
 110539660.675 8  86134904.754 7  21035003.430                    21035011.785
 111773664.783 8  87096434.877 7  21269802.820                    21269811.988
 122777941.252 5  95671200.230 6  23363865.289                    23363879.008
 108682814.952 8  84688038.30846  20681630.602                    20681637.039
 121547165.180 4                  23129651.141
 11  8 22  0 35  0.0000000  0  9G04G17G10G09G12G05G25G02G30
 117688060.472 7  91705105.10945  22395277.563                    22395287.297
 124333167.280 7  96883079.704 6  23659814.289                    23659824.699
 110433526.258 8  86052084.73246  21014748.445                    21014757.820
 127928935.220 6  99684904.23543  24344073.727                    24344086.746
 110499929.574 8  86103945.456 7  21027442.523                    21027451.227
 111700477.360 8  87039405.772 7  21255875.586                    21255885.172
 122688341.872 6  95601382.526 6  23346816.242                    23346828.199
 108694390.558 8  84697058.25846  20683833.516                    20683839.918
 121460664.66214                  23113188.883
 11  8 22  0 35 30.0000000  0  9G04G17G10G09G12G05G25G02G30
 117768968.804 7  91768150.49744  22410674.328                    22410683.387
 124392761.080 7  96929516.405 6  23671154.164                    23671166.176
 110462897.950 8  86074971.76546  21020338.063                    21020347.000
 128010764.985 6  99748667.58543  24359644.633                    24359658.902
 110460715.919 8  86073389.396 7  21019980.469                    21019989.547
 111627716.349 8  86982708.924 7  21242029.859                    21242039.328
 122599031.160 6  95531789.785 6  23329821.766                    23329832.266
 108706199.504 8  84706260.04146  20686080.555                    20686087.070
 121374532.18815                  23096800.711
 11  8 22  0 36  0.0000000  0  9G04G17G10G09G12G05G25G02G30
 117849929.939 7  91831237.06444  22426080.719                    22426089.723
 124452533.505 7  96976092.267 6  23682528.656                    23682539.473
 110492878.655 8  86098333.38046  21026043.188                    21026052.414
 128092611.517 6  99812443.96243  24375220.305                    24375233.879
 110422020.969 8  86043237.462 7  21012617.102                    21012625.711
 111555384.140 8  86926346.204 7  21228265.188                    21228274.820
 122510011.718 6  95462424.023 6  23312880.914                    23312892.449
 108718240.449 8  84715642.59546  20688372.000                    20688378.613
 121288772.010 5                  23080480.078
 11  8 22  0 36 30.0000000  0  9G04G17G10G09G12G05G25G02G30
 117930942.224 7  91894363.47245  22441496.297                    22441506.379
 124512484.813 7  97022807.522 6  23693937.555                    23693947.859
 110523467.184 8  86122168.60946  21031863.984                    21031873.254
 128174471.653 6  99876230.92044  24390798.695                    24390811.129
 110383846.596 8  86013491.207 7  21005353.352                    21005361.531
 111483483.024 8  86870319.411 7  21214583.148                    21214592.676
 122421286.144 6  95393287.269 6  23295996.406                    23296008.332
 108730512.128 8  84725204.94046  20690707.141                    20690713.660
 121203386.231 5                  23064231.828
 11  8 22  0 37  0.0000000  0  9G04G17G10G09G12G05G25G02G30
 118012004.443 7  91957528.80145  22456922.547                    22456932.574
 124572615.445 7  97069662.515 6  23705380.648                    23705389.977
 110554662.753 8  86146476.84346  21037800.203                    21037809.398
 128256342.356 6  99940026.18243  24406377.836                    24406391.242
 110346194.789 8  85984152.146 7  20998187.953                    20998196.324
 111412015.755 8  86814630.685 7  21200983.445                    21200992.871
 122332857.385 6  95324381.782 6  23279170.211                    23279180.973
 108743013.468 8  84734946.24546  20693086.109                    20693092.707
 121118377.803 5                  23048055.102
 11  8 22  0 37 30.0000000  0  9G04G17G10G09G12G05G25G02G30
 118093114.843 7  92020731.68245  22472357.727                    22472367.313
 124632925.675 7  97116657.474 6  23716856.898                    23716867.238
 110586463.882 7  86171256.95146  21043851.922                    21043861.078
 128338220.497 6 100003827.15143  24421958.656                    24421972.039
 110309066.654 8  85955221.146 7  20991122.570                    20991131.121
 111340984.651 8  86759281.810 7  21187466.500                    21187476.258
 122244727.890 6  95255709.473 6  23262399.250                    23262410.750
 108755743.125 8  84744865.46446  20695508.414                    20695515.293
 121033749.149 5                  23031950.844
 11  8 22  0 38  0.0000000  0  9G04G17G10G09G12G05G25G02G30
 118174271.764 7  92083970.81745  22487800.992                    22487811.238
 124693416.010 7  97163792.765 6  23728367.492                    23728378.816
 110618869.319 8  86196507.95146  21050018.125                    21050027.582
 128420102.637 6 100067631.32443  24437540.836                    24437553.793
 110272464.158 8  85926699.734 7  20984157.664                    20984165.984
 111270391.507 8  86704274.202 7  21174032.117                    21174042.207
 122156900.177 6  95187272.317 6  23245686.000                    23245697.715
 108768699.383 8  84754961.23846  20697974.023                    20697980.711
 120949502.893 5                  23015919.609
 11  8 22  0 38 30.0000000  0  9G04G17G10G09G12G05G25G02G30
 118255474.104 7  92147245.34345  22503253.102                    22503264.055
 124754086.665 7  97211068.547 6  23739912.820                    23739923.105
 110651878.320 8  86222229.26046  21056299.891                    21056308.598
 128501985.826 6 100131436.33543  24453121.672                    24453135.570
 110236389.014 8  85898589.260 7  20977292.469                    20977300.734
 111200239.415 8  86649610.254 7  21160683.367                    21160692.461
 122069377.159 5  95119072.628 6  23229030.195                    23229042.973
 108781881.581 8  84765233.09246  20700482.375                    20700489.574
 120865642.044 5  94181033.69352  22999961.578                    22999970.879
 11  8 22  0 39  0.0000000  0  9G04G17G10G09G12G05G25G02G30
 118336720.080 7  92210553.87244  22518713.539                    22518724.121
 124814938.008 7  97258485.144 6  23751493.219                    23751502.887
 110685489.219 8  86248419.57546  21062695.727                    21062704.953
 128583866.917 6 100195239.64243  24468704.180                    24468717.258
 110200842.447 8  85870890.675 7  20970528.008                    20970536.629
 111130530.241 8  86595291.474 7  21147418.305                    21147427.242
 121982161.27915  95051112.27016  23212433.555                    23212445.871
 108795288.266 8  84775679.85646  20703033.727                    20703040.918
 120782169.062 5  94115989.90242  22984077.109                    22984087.145
 11  8 22  0 39 30.0000000  0  8G04G17G10G09G12G05G02G30
 118418008.454 7  92273895.43945  22534182.438                    22534192.910
 124875970.118 7  97306042.592 6  23763106.641                    23763116.953
 110719701.018 8  86275078.13045  21069205.680                    21069214.848
 128665743.031 6 100259039.13543  24484284.383                    24484297.566
 110165826.202 8  85843605.315 7  20963864.781                    20963873.156
 111061266.514 8  86541319.774 7  21134237.719                    21134246.980
 108808918.608 8  84786300.89746  20705627.414                    20705634.199
 120699087.036 5  94051250.62842  22968266.789                    22968277.176
 11  8 22  0 40  0.0000000  0  8G04G17G10G09G12G05G02G30
 118499337.449 7  92337268.63845  22549658.953                    22549668.746
 124937183.647 7  97353741.427 6  23774755.570                    23774765.844
 110754511.942 8  86302203.55646  21075829.992                    21075839.047
 128747610.907 6 100322832.19343  24499863.648                    24499876.145
 110131341.782 8  85816734.354 8  20957302.727                    20957311.359
 110992450.575 8  86487697.026 7  21121142.672                    21121151.813
 108822771.262 8  84797095.17646  20708263.680                    20708270.328
 120616398.26914  93986817.87052  22952530.586                    22952542.617
 11  8 22  0 40 30.0000000  0  9G04G17G10G09G12G05G25G02G30
 118580705.833 7  92400672.53845  22565142.766                    22565153.527
 124998579.167 7  97401582.039 6  23786438.438                    23786448.984
 110789921.030 8  86329795.05946  21082568.117                    21082577.207
 128829467.397 6 100386616.36543  24515440.523                    24515453.145
 110097390.751 8  85790279.028 7  20950842.094                    20950850.641
 110924084.625 8  86434424.909 7  21108132.758                    21108142.277
 121722385.26415  94848669.75416  23162999.125                    23163011.418
 108836844.934 8  84808061.67246  20710941.688                    20710948.480
 120534105.479 5                  22936870.648
 11  8 22  0 41  0.0000000  0  9G04G17G10G09G12G05G25G02G30
 118662112.004 7  92464105.89345  22580634.164                    22580644.586
 125060156.470 6  97449564.341 6  23798156.406                    23798167.723
 110825926.736 8  86357851.45646  21089419.906                    21089429.047
 128911309.243 6 100450389.18043  24531013.938                    24531027.609
 110063974.529 8  85764240.423 7  20944483.398                    20944491.555
 110856170.878 8  86381505.154 7  21095209.242                    21095218.820
 121636424.930 5  94781687.656 6  23146641.523                    23146654.188
 108851138.082 8  84819199.19146  20713661.266                    20713668.184
 120452211.225 5                  22921289.547
 11  8 22  0 41 30.0000000  0  9G04G17G10G09G12G05G25G02G30
 118743554.697 7  92527567.69944  22596132.109                    22596141.652
 125121916.391 6  97497688.918 6  23809908.391                    23809920.867
 110862527.816 8  86386371.78146  21096384.891                    21096394.004
 128993133.611 6 100514148.16742  24546584.438                    24546598.352
 110031094.859 8  85738619.925 7  20938226.523                    20938235.051
 110788711.758 8  86328939.625 7  21082372.555                    21082381.277
 121550785.156 6  94714955.420 6  23130345.086                    23130357.691
 108865650.052 8  84830507.21246  20716423.180                    20716429.582
 120370718.53214                  22905781.734
 11  8 22  0 42  0.0000000  0  8G04G17G10G09G12G05G25G02
 118825032.272 7  92591056.67844  22611636.438                    22611645.711
 125183858.696 6  97545955.619 6  23821695.914                    23821708.082
 110899722.849 8  86415354.92046  21103462.758                    21103472.578
 129074937.133 6 100577891.08142  24562150.961                    24562164.926
 109998753.093 8  85713418.574 7  20932072.086                    20932080.676
 110721709.443 8  86276730.069 7  21069621.414                    21069631.172
 121465468.487 6  94648474.955 6  23114109.859                    23114122.195
 108880379.238 8  84841984.49446  20719225.656                    20719232.434
 11  8 22  0 42 30.0000000  0  8G04G17G10G09G12G05G25G02
 118906543.991 7  92654572.28944  22627147.352                    22627156.934
 125245984.370 6  97594365.186 6  23833518.281                    23833530.129
 110937510.741 8  86444800.03546  21110653.680                    21110663.422
 129156717.592 6 100641616.02543  24577713.750                    24577727.094
 109966951.258 8  85688637.945 7  20926019.984                    20926028.754
 110655166.777 8  86224878.667 7  21056959.484                    21056968.094
 121380478.301 6  94582248.916 6  23097937.078                    23097949.746
 108895325.283 8  84853630.77346  20722069.938                    20722077.016
 11  8 22  0 43  0.0000000  0  9G04G17G10G09G12G05G25G02G30
 118988087.623 7  92718112.75344  22642665.273                    22642674.598
 125308292.798 6  97642917.196 6  23845375.688                    23845387.242
 110975889.351 8  86474705.43646  21117956.352                    21117966.176
 129238470.587 6 100705319.63943  24593271.625                    24593283.770
 109935689.597 8  85664278.220 7  20920071.406                    20920079.777
 110589084.715 8  86173386.200 7  21044384.281                    21044393.504
 121295815.958 6  94516278.285 6  23081826.555                    23081838.215
 108910485.791 8  84865444.14546  20724955.055                    20724962.016
 120128647.27515                  22859721.602
 11  8 22  0 43 30.0000000  0  9G04G17G10G09G12G05G25G02G30
 119069661.730 7  92781676.98044  22658188.055                    22658197.422
 125370784.420 6  97691611.953 6  23857267.414                    23857278.223
 111014857.304 8  86505070.07145  21125372.180                    21125381.309
 129320193.649 6 100768999.80443  24608823.133                    24608836.102
 109904969.988 8  85640340.878 7  20914225.266                    20914234.070
 110523465.618 8  86122254.472 7  21031897.703                    21031906.375
 121211484.363 7  94450565.413 6  23065778.648                    23065791.207
 108925859.672 8  84877423.80046  20727880.172                    20727887.367
 120048786.014 6  93544530.77452  22844523.445                    22844531.191
 11  8 22  0 44  0.0000000  0  9G04G17G10G09G12G05G25G02G30
 119151265.118 7  92845264.02944  22673716.273                    22673726.703
 125433459.836 7  97740449.892 6  23869194.586                    23869203.656
 111054413.157 8  86535892.84246  21132899.375                    21132908.355
 129401883.969 6 100832654.48043  24624368.234                    24624382.609
 109874793.914 8  85616827.058 7  20908483.086                    20908491.492
 110458312.502 8  86071485.841 7  21019499.102                    21019508.230
 121127486.471 6  94385112.610 6  23049794.688                    23049807.035
 108941446.375 8  84889569.27046  20730846.781                    20730853.574
 119969339.259 6  93482624.27343  22829405.711                    22829415.059
 11  8 22  0 44 30.0000000  0  9G04G17G10G09G12G05G25G02G30
 119232896.809 7  92908873.12144  22689250.766                    22689260.387
 125496319.386 6  97789431.355 6  23881155.609                    23881164.719
 111094555.703 8  86567172.74745  21140537.977                    21140547.008
 129483538.236 6 100896281.04943  24639906.398                    24639920.785
 109845163.368 8  85593738.318 7  20902844.320                    20902852.953
 110393627.496 8  86021081.971 7  21007190.023                    21007199.590
 121043824.924 6  94319921.800 5  23033873.102                    23033885.117
 108957244.450 8  84901879.45146  20733852.945                    20733859.523
 119890309.707 6  93421042.89243  22814366.180                    22814376.070
 11  8 22  0 45  0.0000000  0  9G04G17G10G09G12G05G25G02G30
 119314554.981 7  92972502.84844  22704790.414                    22704799.465
 125559363.340 5  97838556.494 6  23893151.703                    23893161.535
 111135283.098 8  86598908.36945  21148287.664                    21148297.309
 129565153.433 6 100959877.15043  24655437.617                    24655451.164
 109816078.082 8  85571074.468 7  20897310.039                    20897318.242
 110329411.879 8  85971043.856 7  20994970.141                    20994979.199
 120960502.123 7  94254994.997 5  23018017.648                    23018028.086
 108973252.641 8  84914353.37146  20736899.078                    20736905.988
 119811699.547 6  93359788.23642  22799406.727                    22799416.633
 11  8 22  0 45 30.0000000  0  9G04G17G10G09G12G05G25G02G30
 119396238.790 7  93036152.57244  22720333.891                    22720343.262
 125622591.756 6  97887825.351 6  23905183.195                    23905195.238
 111176594.108 8  86631098.74345  21156149.820                    21156158.918
 129646726.852 6 101023440.71143  24670959.992                    24670973.547
 109787540.834 8  85548837.660 7  20891879.492                    20891887.793
 110265668.381 8  85921373.634 7  20982840.297                    20982849.539
 120877521.049 7  94190334.404 5  23002226.648                    23002238.117
 108989469.877 8  84926990.18246  20739985.000                    20739992.473
 119733511.969 6  93298862.88242  22784527.719                    22784538.156
 11  8 22  0 46  0.0000000  0  9G04G17G10G09G12G05G25G02G30
 119477946.739 7  93099821.06244  22735882.133                    22735892.578
 125686005.012 6  97937238.231 6  23917250.992                    23917261.883
 111218486.967 8  86663742.51945  21164121.430                    21164130.711
 129728255.560 7 101086969.42944  24686475.992                    24686488.945
 109759552.727 8  85527028.738 7  20886553.703                    20886562.262
 110202399.399 8  85872073.152 8  20970800.086                    20970809.961
 120794884.198 7  94125942.175 4  22986502.172                    22986513.047
 109005895.024 8  84939789.01146  20743111.094                    20743117.758
 119655749.277 6  93238268.52243  22769730.602                    22769740.961
 11  8 22  0 46 30.0000000  0  9G04G17G10G09G12G05G25G02G30
 119559677.434 7  93163507.28544  22751435.188                    22751445.297
 125749603.441 6  97986795.362 6  23929354.391                    23929365.539
 111260960.062 8  86696838.44346  21172203.766                    21172213.422
 129809736.212 7 101150460.68444  24701981.734                    24701994.422
 109732114.780 8  85505648.523 7  20881332.227                    20881340.426
 110139606.847 8  85823143.927 7  20958851.367                    20958860.711
 120712594.151 6  94061820.023 5  22970842.016                    22970853.613
 109022526.994 8  84952748.94546  20746275.828                    20746282.430
 119578414.036 6  93178007.37442  22755013.953                    22755024.621
 11  8 22  0 47  0.0000000  0  9G04G17G10G09G12G05G25G02G30
 119641429.414 7  93227210.10444  22766991.992                    22767002.059
 125813387.180 6  98036496.960 6  23941491.031                    23941502.121
 111304011.562 8  86730385.05346  21180396.344                    21180405.852
 129891165.711 7 101213912.05644  24717477.094                    24717489.414
 109705228.348 8  85484698.045 7  20876215.766                    20876224.004
 110077292.614 8  85774587.413 7  20946993.484                    20947002.445
 120630653.244 6  93997970.018 5  22955249.375                    22955260.484
 109039364.183 8  84965868.83846  20749479.797                    20749486.859
 119501508.655 6  93118081.09043  22740379.336                    22740389.254
 11  8 22  0 47 30.0000000  0  9G04G17G10G09G12G05G25G02G30
 119723201.408 7  93290928.49745  22782552.875                    22782562.992
 125877356.370 6  98086343.081 6  23953664.859                    23953674.980
 111347640.030 8  86764381.25646  21188698.555                    21188707.809
 129972541.126 6 101277321.31943  24732960.906                    24732974.242
 109678894.679 8  85464178.309 7  20871205.055                    20871213.008
 110015459.040 8  85726405.441 7  20935226.773                    20935235.699
 120549064.344 7  93934394.270 5  22939723.477                    22939734.148
 109056405.725 8  84979147.97346  20752722.492                    20752729.457
 119425035.767 6  93058491.90243  22725827.602                    22725836.742
 11  8 22  0 48  0.0000000  0  9G04G17G10G09G12G05G25G02G30
 119804992.189 7  93354661.53244  22798117.063                    22798127.707
 125941511.130 6  98136333.785 6  23965872.555                    23965883.199
 111391843.849 7  86798825.78746  21197110.258                    21197120.008
 130053859.527 6 101340686.14343  24748435.523                    24748448.234
 109653114.763 8  85444090.052 7  20866298.992                    20866307.574
 109954107.669 8  85678599.224 7  20923551.813                    20923561.258
 120467829.797 6  93871094.674 5  22924265.852                    22924276.930
 109073650.036 8  84992585.06946  20756004.094                    20756011.133
 119348997.836 6  92999241.59443  22711357.828                    22711367.320
 11  8 22  0 48 30.0000000  0  9G04G17G10G09G12G05G25G02G30
 119886800.233 7  93418407.99544  22813685.031                    22813695.031
 126005851.966 6  98186469.476 6  23978116.695                    23978127.023
 111436620.998 8  86833717.05746  21205631.484                    21205640.832
 130135117.871 6 101404004.18143  24763897.477                    24763911.699
 109627889.952 8  85424434.353 7  20861499.023                    20861507.117
 109893240.721 8  85631170.455 7  20911969.500                    20911978.504
 120386952.255 6  93808073.315 5  22908875.141                    22908886.324
 109091095.915 8  85006179.27546  20759324.063                    20759331.066
 119273397.291 7  92940332.11043  22696971.813                    22696980.660
 11  8 22  0 49  0.0000000  0  9G04G17G10G09G12G05G25G02G30
 119968624.663 7  93482167.27944  22829255.359                    22829265.578
 126070378.732 7  98236750.043 6  23990396.414                    23990405.613
 111481969.948 8  86869053.92545  21214260.648                    21214269.559
 130216313.391 6 101467273.25243  24779348.945                    24779362.523
 109603221.260 8  85405211.997 7  20856804.820                    20856813.016
 109832860.282 8  85584120.789 7  20900479.367                    20900488.594
 120306434.377 6  93745332.158 5  22893552.445                    22893564.117
 109108742.818 8  85019930.08846  20762682.578                    20762689.238
 119198236.823 6  92881765.47843  22682668.984                    22682678.223
 11  8 22  0 49 30.0000000  0  9G04G17G10G09G12G05G25G02G30
 120050464.008 7  93545938.15644  22844829.453                    22844839.168
 126135091.844 7  98287175.833 6  24002710.930                    24002721.082
 111527888.970 8  86904834.97045  21222998.570                    21223008.289
 130297443.220 6 101530491.09243  24794788.477                    24794800.883
 109579110.363 8  85386424.289 7  20852216.484                    20852225.109
 109772968.458 8  85537451.866 7  20889082.430                    20889091.391
 120226278.710 6  93682873.257 6  22878299.625                    22878311.863
 109126589.234 8  85033836.37446  20766078.320                    20766084.895
 119123518.892 6  92823543.77443  22668450.203                    22668458.883
 11  8 22  0 50  0.0000000  0  9G04G17G10G09G12G05G25G02G30
 120132316.861 7  93609719.57244  22860404.766                    22860414.613
 126199991.648 7  98337747.108 6  24015060.711                    24015070.496
 111574375.987 7  86941058.62445  21231844.602                    21231854.547
 130378504.156 6 101593655.27842  24810213.625                    24810227.441
 109555557.843 8  85368071.690 8  20847734.523                    20847743.238
 109713566.817 8  85491164.898 7  20877778.555                    20877787.629
 120146487.671 7  93620698.489 6  22863116.117                    22863128.586
 109144634.042 8  85047897.23946  20769511.953                    20769518.656
 119049245.869 6  92765668.70342  22654317.234                    22654326.102
 11  8 22  0 50 30.0000000  0  9G04G17G10G09G12G05G25G02G30
 120214182.346 7  93673510.82144  22875983.492                    22875992.852
 126265078.114 7  98388463.815 6  24027446.234                    24027456.688
 111621429.497 8  86977723.67145  21240798.789                    21240807.648
 130459493.317 5 101656763.55142  24825626.883                    24825639.129
 109532564.945 8  85350155.154 8  20843359.023                    20843367.438
 109654657.789 8  85445261.790 7  20866568.258                    20866577.219
 120067064.146 7  93558810.053 5  22848002.242                    22848014.719
 109162876.338 8  85062112.01646  20772983.336                    20772990.332
 118975420.432 6  92708142.38043  22640268.531                    22640277.434
 11  8 22  0 51  0.0000000  0  9G04G17G10G09G12G05G25G02G30
 120296058.777 7  93737310.61544  22891563.852                    22891573.336
 126330351.220 6  98439325.982 6  24039866.813                    24039878.016
 111669047.352 7  87014828.49445  21249860.477                    21249869.555
 130540407.759 5 101719813.52442  24841024.148                    24841037.707
 109510132.536 8  85332675.350 7  20839090.336                    20839098.785
 109596243.147 8  85399743.915 7  20855452.414                    20855461.453
 119988010.313 7  93497209.689 5  22832958.602                    22832970.512
 109181314.351 8  85076479.28546  20776492.281                    20776498.965
 118902044.818 6  92650966.62742  22626305.711                    22626314.543
 11  8 22  0 51 30.0000000  0  9G04G17G10G09G12G05G25G02G30
 120377944.969 7  93801117.99144  22907146.305                    22907156.184
 126395811.477 6  98490333.943 6  24052322.953                    24052334.879
 111717227.752 8  87052371.65745  21259028.734                    21259037.656
 130621244.462 5 101782803.04942  24856405.430                    24856420.777
 109488261.672 8  85315633.102 7  20834928.219                    20834936.824
 109538324.488 8  85354612.523 8  20844430.852                    20844440.094
 119909328.673 7  93435899.353 5  22817986.367                    22817997.855
 109199946.765 8  85090998.02946  20780037.813                    20780044.734
 118829121.348 6  92594143.16242  22612428.273                    22612437.996
 11  8 22  0 52  0.0000000  0  8G04G17G10G12G05G25G02G30
 120459840.299 7  93864932.50944  22922730.805                    22922741.480
 126461459.102 6  98541487.931 6  24064815.039                    24064826.785
 111765969.440 7  87090352.21745  21268303.766                    21268312.988
 109466954.608 8  85299030.174 7  20830874.188                    20830882.309
 109480904.538 8  85309869.719 8  20833504.461                    20833513.309
 119831022.478 6  93374881.561 6  22803085.242                    22803096.027
 109218773.333 8  85105668.05346  20783620.453                    20783627.020
 118756653.262 6  92537674.52743  22598638.359                    22598648.273
 11  8 22  0 52 30.0000000  0  8G04G17G10G12G05G25G02G30
 120541743.588 7  93928753.23144  22938316.344                    22938326.688
 126527294.239 6  98592788.045 6  24077343.555                    24077354.855
 111815270.349 8  87128768.49945  21277685.836                    21277694.801
 109446211.453 8  85282866.665 7  20826926.773                    20826934.883
 109423984.953 8  85265516.825 7  20822673.133                    20822681.660
 119753094.034 6  93314158.075 6  22788255.859                    22788267.293
 109237792.729 8  85120488.37046  20787239.555                    20787246.719
 118684642.587 6  92481562.35743  22584934.742                    22584945.117
 11  8 22  0 53  0.0000000  0  8G04G17G10G12G05G25G02G30
 120623652.981 7  93992578.70344  22953903.141                    22953914.086
 126593317.020 6  98644234.283 6  24089907.328                    24089918.602
 111865128.159 8  87167618.73345  21287173.586                    21287182.504
 109426032.919 8  85267143.130 7  20823086.969                    20823095.070
 109367567.099 8  85221554.897 8  20811937.070                    20811945.887
 119675545.331 6  93253730.521 6  22773497.867                    22773510.285
 109257003.357 8  85135457.66346  20790895.375                    20790902.242
 118613091.375 6  92425808.21243  22571319.234                    22571329.926
 11  8 22  0 53 30.0000000  0  8G04G17G10G12G05G25G02G30
 120705567.458 7  94056408.11144  22969490.852                    22969501.422
 126659527.489 6  98695826.810 6  24102506.016                    24102517.277
 111915541.346 8  87206901.73345  21296766.680                    21296775.641
 109406420.155 8  85251860.465 7  20819354.555                    20819362.688
 109311652.929 8  85177985.455 7  20801296.875                    20801305.723
 119598379.181 6  93193601.116 6  22758814.102                    22758825.898
 109276404.276 8  85150575.27346  20794586.680                    20794593.777
 118542002.365 6  92370414.20943  22557791.547                    22557801.645
 11  8 22  0 54  0.0000000  0  8G04G17G10G12G05G25G02G30
 120787486.168 7  94120240.85844  22985079.766                    22985089.695
 126725925.691 6  98747565.582 6  24115142.547                    24115152.742
 111966508.016 8  87246616.02546  21306465.164                    21306475.137
 109387374.540 8  85237019.740 7  20815730.367                    20815738.539
 109256244.590 8  85134810.150 7  20790753.195                    20790761.641
 119521598.253 6  93133771.774 6  22744203.906                    22744214.922
 109295994.556 8  85165840.41946  20798314.727                    20798322.074
 118471377.947 6  92315382.27143  22544351.977                    22544362.078
 11  8 22  0 54 30.0000000  0  8G04G17G10G12G05G25G02G30
 120869407.740 6  94184075.82644  23000668.469                    23000678.996
 126792511.928 6  98799450.930 6  24127812.156                    24127823.434
 112018025.697 8  87286759.64946  21316269.125                    21316278.691
 109368896.512 8  85222621.276 7  20812214.102                    20812222.016
 109201343.415 8  85092030.040 7  20780305.188                    20780314.281
 119445204.663 6  93074244.376 6  22729666.758                    22729678.102
 109315772.735 8  85181251.98646  20802078.445                    20802085.160
 118401220.276 6  92260713.91543  22531002.094                    22531010.582
 11  8 22  0 55  0.0000000  0  8G04G17G10G12G05G25G02G30
 120951330.819 7  94247911.98144  23016258.375                    23016268.836
 126859286.119 6  98851482.757 6  24140520.477                    24140530.801
 112070092.639 8  87327331.28446  21326177.008                    21326186.715
 109350986.888 8  85208665.738 8  20808805.734                    20808814.434
 109146951.427 8  85049646.700 8  20769954.859                    20769963.750
 119369201.098 6  93015020.775 6  22715202.570                    22715214.273
 109335737.579 8  85196808.99246  20805878.031                    20805884.742
 118331531.688 6  92206411.13443  22517739.805                    22517750.656
 11  8 22  0 55 30.0000000  0  8G04G17G10G12G05G25G02G30
 121033254.458 6  94311748.56044  23031847.430                    23031858.566
 126926248.402 7  98903661.175 6  24153263.234                    24153274.207
 112122706.912 8  87368329.41746  21336189.117                    21336198.984
 109333646.814 8  85195153.985 7  20805506.344                    20805514.676
 109093070.368 8  85007661.489 7  20759702.008                    20759710.316
 119293589.981 6  92956103.016 6  22700815.211                    22700826.379
 109355888.014 8  85212510.62046  20809712.297                    20809719.188
 118262314.576 6  92152475.75543  22504568.695                    22504578.188
 11  8 22  0 56  0.0000000  0  8G04G17G10G12G05G25G02G30
 121115177.774 7  94375584.91444  23047437.898                    23047447.863
 126993399.015 7  98955986.293 6  24166041.352                    24166051.813
 112175866.427 7  87409752.42445  21346305.164                    21346314.262
 109316877.105 8  85182086.679 8  20802314.961                    20802323.598
 109039702.007 8  84966075.791 7  20749546.297                    20749554.691
 119218373.902 6  92897493.098 6  22686501.336                    22686512.566
 109376223.254 8  85228356.23646  20813582.023                    20813589.109
 118193571.465 7  92098909.70843  22491487.711                    22491496.531
 11  8 22  0 56 30.0000000  0  8G04G17G10G12G05G25G02G30
 121197098.966 7  94439419.60244  23063026.039                    23063037.152
 127060737.830 7  99008458.068 6  24178856.078                    24178866.563
 112229568.856 7  87451598.45445  21356523.758                    21356533.840
 109300678.166 8  85169464.134 8  20799233.000                    20799240.887
 108986847.584 8  84924890.553 8  20739488.109                    20739497.238
 119143555.003 6  92839192.660 6  22672264.641                    22672274.840
 109396741.373 8  85244344.37446  20817486.516                    20817493.266
 118125304.216 6  92045714.50043  22478496.648                    22478506.020
 11  8 22  0 57  0.0000000  0  8G04G17G10G12G05G25G02G30
 121279017.525 7  94503252.23644  23078615.375                    23078625.703
 127128265.116 7  99061076.771 6  24191705.328                    24191716.906
 112283812.652 7  87493866.34845  21366846.016                    21366856.141
 109285051.167 8  85157287.245 7  20796258.813                    20796267.305
 108934509.661 8  84884107.774 7  20729528.922                    20729537.965
 119069136.033 6  92781203.840 6  22658101.930                    22658113.660
 109417441.877 8  85260474.58546  20821425.906                    20821432.652
 118057515.533 6  91992892.17043  22465597.047                    22465606.602
 11  8 22  0 57 30.0000000  0  8G04G17G10G12G05G25G02G30
 121360932.405 7  94567082.00944  23094202.945                    23094213.203
 127195980.861 6  99113842.269 6  24204591.508                    24204602.125
 112338595.390 7  87536554.16645  21377270.750                    21377280.777
 109269996.861 8  85145556.620 7  20793394.195                    20793402.531
 108882689.424 8  84843728.379 8  20719667.570                    20719676.590
 118995119.461 6  92723528.560 6  22644017.500                    22644028.879
 109438323.741 8  85276746.15946  20825399.367                    20825406.270
 117990207.666 6  91940444.48043  22452788.281                    22452797.336
 11  8 22  0 58  0.0000000  0  8G04G17G10G12G05G25G02G30
 121442842.162 7  94630907.77044  23109789.930                    23109800.195
 127263885.269 6  99166754.732 6  24217513.055                    24217523.684
 112393915.375 7  87579660.63745  21387798.664                    21387807.879
 109255516.363 8  85134273.102 7  20790638.430                    20790646.766
 108831388.591 8  84803753.735 7  20709904.922                    20709913.996
 118921507.786 6  92666168.826 6  22630009.484                    22630021.766
 109459385.850 8  85293158.19846  20829406.898                    20829414.258
 117923383.059 6  91888373.33344  22440072.914                    22440082.355
 11  8 22  0 58 30.0000000  0  8G04G17G10G12G05G25G02G30
 121524745.682 7  94694728.68744  23125375.305                    23125386.508
 127331978.221 6  99219814.200 5  24230470.383                    24230481.180
 112449769.960 7  87623183.68245  21398427.086                    21398436.207
 109241609.834 8  85123436.846 7  20787991.734                    20788000.641
 108780608.523 8  84764184.892 8  20700242.461                    20700251.020
 118848303.070 6  92609126.180 6  22616079.563                    22616091.039
 109480626.497 8  85309709.32046  20833449.078                    20833456.027
 117857043.449 6  91836680.15743  22427448.828                    22427458.141
 11  8 22  0 59  0.0000000  0  8G04G17G10G12G05G25G02G30
 121606642.011 7  94758543.99044  23140960.047                    23140971.070
 127400259.570 6  99273020.423 5  24243463.211                    24243474.223
 112506157.045 7  87667121.66245  21409156.930                    21409166.438
 109228277.907 8  85113048.330 7  20785455.227                    20785463.680
 108730350.986 8  84725023.199 8  20690678.453                    20690686.598
 118775507.783 5  92552402.648 6  22602226.195                    22602239.094
 109502044.556 8  85326398.71646  20837524.922                    20837531.879
 117791191.236 6  91785366.74843  22414916.352                    22414927.023
 11  8 22  0 59 30.0000000  0  8G04G17G10G12G05G25G02G30
 121688530.264 7  94822352.96144  23156543.109                    23156553.594
 127468729.975 6  99326373.935 5  24256493.633                    24256503.805
 112563074.616 7  87711473.00645  21419988.695                    21419997.063
 109215521.679 8  85103108.376 7  20783028.375                    20783035.879
 108680617.664 8  84686269.983 8  20681214.609                    20681223.617
 118703124.604 6  92496000.182 5  22588452.594                    22588465.129
 109523639.535 8  85343225.99146  20841634.172                    20841641.066
 117725828.768 6  91734434.98443  22402477.883                    22402488.324
 11  8 22  1  0  0.0000000  0  8G04G17G10G12G05G25G02G30
 121770409.429 7  94886154.88644  23172124.195                    23172134.840
 127537389.213 6  99379874.692 6  24269558.609                    24269569.820
 112620520.664 8  87756236.17345  21430919.563                    21430928.516
 109203341.942 8  85093617.654 7  20780710.180                    20780718.574
 108631410.579 8  84647926.826 8  20671850.672                    20671859.496
 118631156.103 6  92439920.849 6  22574756.516                    22574768.887
 109545410.484 8  85360190.35046  20845777.211                    20845784.145
 117660958.587 6  91683886.81943  22390133.797                    22390144.566
 11  8 22  1  0 30.0000000  0  8G04G17G10G12G05G25G02G30
 121852278.860 7  94949949.25744  23187702.734                    23187713.738
 127606237.629 6  99433522.796 6  24282660.672                    24282671.051
 112678493.455 8  87801409.75445  21441951.672                    21441961.090
 109191739.811 8  85084577.007 7  20778502.289                    20778510.711
 108582731.293 8  84609994.946 8  20662586.953                    20662596.102
 118559604.820 6  92384166.632 5  22561141.039                    22561153.281
 109567356.829 8  85377291.39646  20849953.703                    20849960.605
 117596583.086 6  91633724.07543  22377884.031                    22377893.656
 11  8 22  1  1  0.0000000  0  8G04G17G10G12G05G25G02G30
 121934136.941 6  95013734.73144  23203279.422                    23203290.418
 127675274.885 6  99487318.037 6  24295797.008                    24295808.551
 112736989.928 7  87846991.41145  21453083.250                    21453091.891
 109180714.714 8  85075986.024 7  20776404.398                    20776412.723
 108534580.660 8  84572475.003 8  20653424.273                    20653433.309
 118488472.663 6  92328739.009 6  22547605.516                    22547617.191
 109589476.393 8  85394527.41646  20854162.719                    20854170.141
 117532703.650 5  91583947.94543  22365727.961                    22365737.895
 11  8 22  1  1 30.0000000  0  8G04G17G10G12G05G25G02G30
 122015982.221 7  95077510.25744  23218854.773                    23218865.535
 127744500.587 6  99541260.135 6  24308971.141                    24308982.750
 112796007.743 7  87892979.29845  21464313.742                    21464323.098
 109170267.266 8  85067845.149 7  20774416.148                    20774424.910
 108486960.043 8  84535368.057 8  20644362.469                    20644371.285
 118417761.636 6  92273639.466 5  22534150.883                    22534161.816
 109611767.283 8  85411896.92546  20858404.609                    20858411.477
 117469322.425 5  91534559.98843  22353665.789                    22353676.676
 11  8 22  1  2  0.0000000  0  8G04G17G10G12G05G25G02G30
 122097814.371 7  95141275.50444  23234427.445                    23234437.945
 127813915.169 6  99595349.404 6  24322180.102                    24322191.969
 112855544.945 8  87939371.91845  21475643.492                    21475652.422
 109160398.103 8  85060154.874 8  20772538.063                    20772546.793
 108439871.256 8  84498675.538 8  20635401.563                    20635410.563
 118347474.559 7  92218870.367 6  22520776.102                    22520786.762
 109634229.631 8  85429400.04946  20862679.023                    20862685.926
 117406441.876 6  91485562.19643  22341700.977                    22341711.410
 11  8 22  1  2 30.0000000  0  9G04G17G10G29G12G05G25G02G30
 122179632.196 7  95205029.60744  23249996.664                    23250006.484
 127883518.676 6  99649585.903 6  24335424.992                    24335436.977
 112915599.534 8  87986167.68745  21487071.367                    21487080.914
 129598150.81115                  24661705.023
 109151108.306 8  85052916.070 8  20770770.641                    20770778.973
 108393315.927 8  84462398.668 8  20626543.094                    20626551.867
 118277613.855 6  92164433.479 5  22507481.641                    22507491.207
 109656862.273 8  85447035.85646  20866985.828                    20866992.730
 117344064.307 6  91436956.24043  22329830.398                    22329840.766
 11  8 22  1  3  0.0000000  0  9G04G17G10G29G12G05G25G02G30
 122261435.146 7  95268772.13244  23265563.461                    23265573.031
 127953311.326 6  99703969.762 6  24348706.641                    24348716.914
 112976169.534 8  88033365.06645  21498597.977                    21498606.848
 129518661.089 6 100923664.83515  24646578.406                    24646588.691
 109142398.296 8  85046129.043 7  20769113.250                    20769121.297
 108347295.815 8  84426538.878 8  20617785.508                    20617794.438
 118208182.114 6  92110330.838 6  22494268.586                    22494279.004
 109679664.457 8  85464803.79546  20871324.844                    20871331.676
 117282191.844 6  91388744.02343  22318055.961                    22318066.711
 11  8 22  1  3 30.0000000  0  9G04G17G10G29G12G05G25G02G30
 122343222.476 7  95332502.47844  23281127.164                    23281137.242
 128023293.313 6  99758501.145 6  24362023.789                    24362034.336
 113037252.790 7  88080962.40745  21510221.375                    21510230.762
 129439091.677 6 100861662.678 6  24631437.070                    24631448.336
 109134268.962 8  85039794.483 7  20767566.117                    20767574.617
 108301812.562 8  84391097.408 8  20609130.391                    20609138.750
 118139181.764 6  92056564.395 5  22481137.656                    22481148.477
 109702635.204 8  85482703.08946  20875696.039                    20875703.082
 117220827.016 6  91340927.26943  22306379.492                    22306388.891
 11  8 22  1  4  0.0000000  0  9G04G17G10G29G12G05G25G02G30
 122424992.686 7  95396219.50144  23296687.586                    23296697.813
 128093464.070 6  99813179.614 5  24375376.430                    24375386.828
 113098846.415 7  88128957.41145  21521942.180                    21521951.766
 129359442.940 6 100799598.720 6  24616281.313                    24616292.285
 109126720.248 8  85033912.337 7  20766129.734                    20766137.855
 108256866.956 8  84356074.895 8  20600577.172                    20600586.039
 118070614.824 6  92003135.583 5  22468089.531                    22468101.070
 109725773.050 8  85500732.56846  20880099.008                    20880105.770
 117159971.239 6  91293507.20543  22294799.352                    22294808.441
 11  8 22  1  4 30.0000000  0  9G04G17G10G29G12G05G25G02G30
 122506744.314 6  95459922.02644  23312244.773                    23312255.570
 128163823.267 7  99868004.921 5  24388765.953                    24388775.074
 113160947.614 7  88177347.92645  21533759.891                    21533769.184
 129279714.998 7 100737473.057 6  24601109.813                    24601119.789
 109119752.415 8  85028482.844 7  20764803.750                    20764811.625
 108212459.904 8  84321472.005 8  20592126.961                    20592136.102
 118002483.184 6  91950046.022 6  22455125.219                    22455136.910
 109749076.473 8  85518891.09046  20884534.078                    20884540.133
 117099626.425 6  91246485.30544  22283315.883                    22283325.426
 11  8 22  1  5  0.0000000  0  9G04G17G10G29G12G05G25G02G30
 122588476.879 6  95523609.69944  23327797.031                    23327808.336
 128234371.056 7  99922977.116 5  24402191.523                    24402199.898
 113223554.240 7  88226132.30245  21545673.461                    21545682.852
 129199908.362 7 100675286.101 6  24585922.711                    24585933.434
 109113365.551 8  85023506.057 7  20763588.320                    20763596.504
 108168593.104 8  84287290.112 8  20583778.883                    20583787.426
 117934789.275 6  91897297.529 6  22442243.195                    22442255.406
 109772544.795 8  85537178.10046  20888999.719                    20889006.441
 117039794.743 7  91199863.22944  22271930.758                    22271939.707
 11  8 22  1  5 30.0000000  0  9G04G17G10G29G12G05G25G02G30
 122670189.201 6  95587281.57843  23343346.063                    23343357.676
 128305107.439 6  99978096.364 5  24415650.555                    24415659.965
 113286664.039 7  88275308.75945  21557682.578                    21557692.355
 129120023.770 6 100613038.397 6  24570721.766                    24570732.438
 109107560.279 8  85018982.468 8  20762483.922                    20762491.965
 108125267.820 8  84253530.192 8  20575534.836                    20575543.355
 117867535.294 6  91844891.836 6  22429445.430                    22429456.973
 109796176.545 8  85555592.44146  20893496.828                    20893503.539
 116980477.916 7  91153642.33444  22260643.281                    22260653.176
 11  8 22  1  6  0.0000000  0  9G04G17G10G29G12G05G25G02G30
 122751880.601 6  95650937.17644  23358891.445                    23358903.504
 128376032.446 6 100033362.592 4  24429147.141                    24429156.719
 113350275.141 7  88324875.83445  21569787.719                    21569797.219
 129040062.067 6 100550730.577 6  24555504.188                    24555515.387
 109102337.268 8  85014912.591 7  20761489.781                    20761498.457
 108082485.614 8  84220193.435 8  20567393.313                    20567402.207
 117800723.758 6  91792830.936 6  22416732.219                    22416742.957
 109819971.111 8  85574133.67446  20898024.898                    20898031.125
 116921678.468 7  91107824.63744  22249453.711                    22249463.730
 11  8 22  1  6 30.0000000  0  9G04G17G10G29G12G05G25G02G30
 122833550.174 6  95714575.77944  23374432.664                    23374444.238
 128447145.991 6 100088775.663 5  24442680.289                    24442689.551
 113414384.638 8  88374831.26545  21581987.750                    21581996.703
 128960023.471 5 100488362.908 6  24540272.867                    24540284.852
 109097696.756 8  85011296.617 8  20760606.422                    20760615.641
 108040247.545 8  84187280.678 8  20559355.570                    20559364.309
 117734356.792 6  91741116.446 6  22404102.711                    22404113.902
 109843927.152 8  85592800.72646  20902583.414                    20902590.184
 116863398.138 7  91062411.38444  22238363.563                    22238373.004
 11  8 22  1  7  0.0000000  0  9G04G17G10G29G12G05G25G02G30
 122915196.827 6  95778196.49944  23389970.094                    23389981.133
 128518447.895 6 100144335.535 5  24456248.695                    24456260.223
 113478990.189 7  88425173.23745  21594281.305                    21594290.625
 128879908.740 5 100425935.899 6  24525028.281                    24525039.824
 109093638.640 8  85008134.442 7  20759834.141                    20759842.574
 107998554.918 8  84154792.944 8  20551421.813                    20551430.750
 117668436.557 6  91689750.071 6  22391558.219                    22391569.004
 109868043.901 8  85611592.99646  20907172.367                    20907179.188
 116805638.942 7  91017404.25044  22227372.047                    22227381.875
 11  8 22  1  7 30.0000000  0  9G04G17G10G29G12G05G25G02G30
 122996819.912 6  95841798.86844  23405502.547                    23405512.988
 128589937.956 6 100200042.128 5  24469851.742                    24469864.961
 113544089.505 7  88475899.96145  21606669.617                    21606678.453
 128799718.478 5 100363450.051 6  24509768.000                    24509780.109
 109090163.460 8  85005426.520 7  20759173.109                    20759181.922
 107957409.047 8  84122731.242 7  20543591.867                    20543600.703
 117602965.580 6  91638733.775 6  22379099.336                    22379110.816
 109892320.438 8  85630509.78846  20911792.117                    20911798.980
 116748402.952 7  90972804.79244  22216480.469                    22216489.867
 11  8 22  1  8  0.0000000  0  9G04G17G10G29G12G05G25G02G30
 123078419.063 7  95905382.58944  23421030.586                    23421040.934
 128661616.615 6 100255895.636 5  24483492.516                    24483505.590
 113609680.620 7  88527009.92145  21619150.609                    21619160.926
 128719453.849 6 100300906.211 6  24494495.602                    24494506.137
 109087271.981 8  85003173.424 7  20758622.891                    20758631.293
 107916811.614 8  84091096.904 8  20535866.672                    20535875.430
 117537946.366 6  91588069.478 6  22366726.508                    22366737.801
 109916756.045 8  85649550.52646  20916441.953                    20916448.617
 116691692.425 6  90928614.78844  22205688.453                    22205698.230
 11  8 22  1  8 30.0000000  0  9G04G17G10G29G12G05G25G02G30
 123159992.502 6  95968946.30244  23436553.398                    23436563.625
 128733483.423 6 100311895.795 5  24497168.992                    24497181.168
 113675760.488 7  88578500.72645  21631725.273                    21631735.273
 128639114.861 6 100238304.364 5  24479206.383                    24479217.145
 109084963.812 8  85001374.832 7  20758183.984                    20758192.070
 107876763.032 8  84059890.246 8  20528245.617                    20528254.172
 117473380.437 6  91537758.421 6  22354439.969                    22354450.891
 109941349.056 8  85668713.91146  20921121.992                    20921128.828
 116635508.634 7  90884835.24144  22194997.258                    22195007.039
 11  8 22  1  9  0.0000000  0  8G04G10G29G12G05G25G02G30
 123241540.321 6  96032490.02844  23452070.938                    23452081.816
 113742327.302 7  88630370.94845  21644392.711                    21644402.461
 128558702.911 6 100175645.720 5  24463905.766                    24463915.293
 109083240.282 8  85000031.802 7  20757855.758                    20757864.215
 107837265.652 8  84029113.074 8  20520729.516                    20520738.332
 117409270.929 6  91487803.009 6  22342240.352                    22342251.609
 109966099.106 8  85687999.66946  20925831.727                    20925838.824
 116579854.403 7  90841468.33744  22184407.008                    22184415.613
 11  8 22  1  9 30.0000000  0  8G04G10G29G12G05G25G02G30
 123323061.041 6  96096012.57743  23467584.164                    23467594.828
 113809377.945 7  88682618.17345  21657152.227                    21657161.695
 128478217.920 6 100112930.123 5  24448589.344                    24448599.824
 109082100.000 8  84999143.289 7  20757638.289                    20757646.934
 107798319.610 8  83998765.537 8  20513318.555                    20513327.246
 117345619.292 6  91438204.345 6  22330127.547                    22330138.828
 109991004.612 8  85707406.55446  20930571.156                    20930578.160
 116524730.890 6  90798514.97243  22173916.531                    22173926.332
 11  8 22  1 10  0.0000000  0  8G04G10G29G12G05G25G02G30
 123404554.030 6  96159513.61043  23483091.492                    23483102.086
 113876910.393 7  88735240.87345  21670002.758                    21670012.551
 128397660.921 6 100050158.490 5  24433260.438                    24433270.441
 109081543.894 8  84998709.960 7  20757532.820                    20757540.844
 107759926.437 8  83968848.803 8  20506011.875                    20506020.922
 117282428.052 6  91388964.423 6  22318103.242                    22318114.035
 110016065.260 8  85726934.33646  20935340.016                    20935347.227
 116470140.320 7  90755976.90344  22163528.930                    22163537.984
 11  8 22  1 10 30.0000000  0  8G04G10G29G12G05G25G02G30
 123486018.250 6  96222992.20243  23498593.133                    23498604.570
 113944921.626 7  88788236.64345  21682944.719                    21682954.660
 128317032.069 6  99987330.856 6  24417916.305                    24417927.793
 109081571.702 8  84998731.642 7  20757538.344                    20757546.008
 107722086.720 8  83939363.321 8  20498811.539                    20498820.473
 117219698.770 6  91340084.449 6  22306165.609                    22306176.684
 110041279.291 8  85746581.62346  20940138.070                    20940145.047
 116416084.039 7  90713855.17444  22153242.414                    22153252.520
 11  8 22  1 11  0.0000000  0  8G04G10G29G12G05G25G02G30
 123567452.739 6  96286447.62343  23514089.547                    23514100.238
 114013409.383 7  88841603.71245  21695978.211                    21695987.531
 128236332.164 6  99924447.867 5  24402560.180                    24402571.180
 109082183.860 8  84999208.652 8  20757654.984                    20757662.480
 107684801.671 8  83910310.056 8  20491716.328                    20491725.219
 117157433.829 6  91291566.385 6  22294316.992                    22294328.309
 110066645.783 8  85766347.73346  20944965.344                    20944971.895
 116362564.030 6  90672151.24544  22143057.836                    22143067.492
 11  8 22  1 11 30.0000000  0  8G04G10G29G12G05G25G02G30
 123648856.722 6  96349879.26543  23529580.945                    23529591.375
 114082370.788 8  88895339.87845  21709101.375                    21709111.035
 128155561.716 6  99861509.985 6  24387190.023                    24387200.938
 109083379.829 8  85000140.588 7  20757882.039                    20757890.313
 107648072.292 8  83881689.799 8  20484726.688                    20484735.883
 117095635.282 6  91243411.641 6  22282557.492                    22282569.738
 110092163.641 8  85786231.76446  20949821.227                    20949828.059
 116309581.911 6  90630866.49643  22132975.055                    22132984.879
 11  8 22  1 12  0.0000000  0  8G04G10G29G12G05G25G02G30
 123730229.783 6  96413286.82543  23545065.695                    23545076.473
 114151803.699 7  88949443.41845  21722314.047                    21722323.816
 128074721.683 6  99798517.831 5  24371806.320                    24371816.969
 109085160.302 8  85001527.958 7  20758220.914                    20758229.480
 107611899.961 8  83853503.584 8  20477843.805                    20477852.617
 117034305.436 7  91195622.187 6  22270886.109                    22270898.258
 110117832.409 8  85806233.42846  20954705.469                    20954712.234
 116257139.770 6  90590002.51843  22122995.203                    22123005.598
 11  8 22  1 12 30.0000000  0  8G04G10G29G12G05G25G02G30
 123811570.561 6  96476669.23843  23560544.602                    23560554.555
 114221705.219 8  89003912.14945  21735615.734                    21735625.070
 127993812.536 6  99735471.838 5  24356409.031                    24356420.746
 109087524.754 7  85003370.387 7  20758671.039                    20758679.109
 107576285.364 8  83825751.984 8  20471066.367                    20471075.344
 116973446.081 7  91148199.263 6  22259305.242                    22259316.891
 110143650.491 8  85826351.41046  20959618.320                    20959625.531
 116205239.038 6  90549560.37943  22113120.039                    22113129.375
 11  8 22  1 13  0.0000000  0  8G04G10G29G12G05G25G02G30
 123892878.392 6  96540025.98143  23576016.297                    23576027.191
 114292072.887 8  89058744.09145  21749005.609                    21749016.098
 127912835.246 6  99672372.682 5  24340999.883                    24341010.883
 109090473.193 7  85005667.886 7  20759231.617                    20759240.262
 107541229.026 8  83798435.376 8  20464395.422                    20464404.059
 116913059.232 7  91101144.595 7  22247814.477                    22247825.789
 110169616.818 8  85846584.90146  20964560.063                    20964566.543
 116153881.445 6  90509541.51143  22103346.656                    22103356.582
 11  8 22  1 13 30.0000000  0  8G04G10G29G12G05G25G02G30
 123974152.850 6  96603356.70643  23591483.117                    23591493.855
 114362904.319 7  89113937.39345  21762485.063                    21762494.773
 127831790.472 6  99609220.929 5  24325577.945                    24325588.242
 109094006.021 8  85008420.725 7  20759903.953                    20759912.465
 107506732.623 8  83771555.072 8  20457831.219                    20457840.055
 116853147.346 7  91054460.029 6  22236413.375                    22236424.395
 110195731.125 8  85866933.71346  20969529.086                    20969536.156
 116103069.013 6  90469947.40343  22093677.508                    22093686.621
 11  8 22  1 14  0.0000000  0  8G04G10G29G12G05G25G02G30
 124055392.814 7  96666660.56744  23606942.875                    23606953.559
 114434196.712 8  89169489.92745  21776051.586                    21776060.543
 127750678.827 6  99546017.087 5  24310142.703                    24310153.188
 109098122.915 8  85011628.678 7  20760687.836                    20760695.945
 107472796.797 8  83745111.592 8  20451373.102                    20451381.484
 116793712.149 7  91008146.883 6  22225103.016                    22225114.961
 110221991.971 8  85887396.69946  20974526.594                    20974532.863
 116052803.131 6  90430779.19943  22084111.461                    22084121.457
 11  8 22  1 14 30.0000000  0  8G04G10G29G12G05G25G02G30
 124136597.907 7  96729937.26744  23622396.117                    23622406.922
 114505947.402 7  89225399.58045  21789705.453                    21789714.223
 127669501.084 6  99482761.746 5  24294694.766                    24294704.840
 109102823.750 8  85015291.638 7  20761582.672                    20761590.773
 107439422.574 8  83719105.728 8  20445022.438                    20445031.250
 116734755.921 7  90962206.945 6  22213884.461                    22213895.699
 110248398.782 8  85907973.41946  20979551.547                    20979558.148
 116003085.737 6  90392038.38043  22074650.742                    22074660.238
 11  8 22  1 15  0.0000000  0  8G04G10G29G12G05G25G02G30
 124217766.818 7  96793185.79743  23637840.844                    23637852.238
 114578153.499 7  89281664.08045  21803445.047                    21803454.684
 127588257.819 6  99419455.393 4  24279233.875                    24279244.566
 109108108.458 8  85019409.588 7  20762587.930                    20762596.582
 107406610.516 8  83693537.905 8  20438778.375                    20438787.465
 116676280.289 7  90916641.509 6  22202756.727                    22202769.176
 110274949.877 8  85928662.59546  20984603.781                    20984610.770
 115953918.067 6  90353725.93343  22065294.828                    22065304.797
 11  8 22  1 15 30.0000000  0  8G04G10G29G12G05G25G02G30
 124298899.130 7  96856405.74844  23653280.477                    23653291.621
 114650813.090 8  89338281.94445  21817272.055                    21817281.199
 127506950.154 6  99356098.852 5  24263762.211                    24263772.875
 109113976.615 8  85023982.164 8  20763704.555                    20763713.316
 107374361.544 8  83668408.855 8  20432641.438                    20432650.113
 116618287.581 7  90871452.379 6  22191721.305                    22191732.641
 110301644.776 8  85949463.80746  20989683.750                    20989690.914
 115905302.135 6  90315843.35743  22056043.672                    22056053.316
 11  8 22  1 16  0.0000000  0  8G04G10G29G12G05G25G02G30
 124379994.350 6  96919596.82143  23668711.641                    23668722.414
 114723923.587 7  89395251.15945  21831184.617                    21831193.387
 127425578.727 6  99292692.619 5  24248277.758                    24248288.613
 109120428.493 8  85029009.598 8  20764932.406                    20764941.086
 107342676.950 7  83643719.589 8  20426612.313                    20426621.301
 116560779.873 7  90826641.179 6  22180778.109                    22180788.871
 110328482.716 7  85970376.47746  20994790.859                    20994798.332
 115857239.616 6  90278392.02543  22046898.141                    22046907.746
 11  8 22  1 16 30.0000000  0  8G04G10G29G12G05G25G02G30
 124461051.705 6  96982758.38743  23684135.922                    23684146.762
 114797481.839 8  89452569.25645  21845182.148                    21845191.527
 127344143.958 6  99229236.981 5  24232782.102                    24232792.719
 109127463.599 8  85034491.500 8  20766271.227                    20766279.418
 107311557.065 8  83619470.352 8  20420690.266                    20420699.098
 116503758.939 7  90782209.283 6  22169926.953                    22169938.773
 110355462.528 8  85991399.71246  20999925.094                    20999931.754
 115809731.852 6  90241373.03843  22037856.758                    22037867.117
 11  8 22  1 17  0.0000000  0  8G04G10G29G12G05G25G02G30
 124542070.459 7  97045889.86243  23699553.914                    23699563.625
 114871485.569 7  89510234.49645  21859264.781                    21859274.184
 127262647.322 6  99165733.186 5  24217273.313                    24217283.969
 109135081.958 8  85040427.878 7  20767720.813                    20767728.863
 107281003.199 8  83595662.166 8  20414875.633                    20414885.051
 116447227.093 7  90738158.486 6  22159169.578                    22159180.930
 110382583.804 7  86012533.18646  21005085.758                    21005092.617
 115762780.850 6  90204787.80143  22028923.141                    22028932.484
 11  8 22  1 17 30.0000000  0  8G04G10G29G12G05G25G02G30
 124623049.776 7  97108990.65243  23714963.109                    23714974.340
 114945932.061 8  89568244.75145  21873431.070                    21873441.543
 127181089.12915  99102181.38415  24201752.664                    24201764.328
 109143283.340 8  85046818.548 7  20769281.773                    20769289.629
 107251015.658 8  83572295.271 8  20409169.500                    20409178.254
 116391185.903 7  90694490.025 6  22148504.688                    22148517.141
 110409845.143 8  86033775.77346  21010273.680                    21010280.691
 115716387.762 7  90168637.33743  22020093.914                    22020104.883
 11  8 22  1 18  0.0000000  0  8G04G10G29G12G05G25G02G30
 124703988.852 7  97172060.03543  23730366.281                    23730376.723
 115020818.482 8  89626597.80145  21887681.836                    21887691.641
 127099470.30315  99038582.30615  24186223.445
 109152067.019 8  85053662.943 7  20770953.109                    20770961.262
 107221595.197 8  83549370.255 8  20403570.859                    20403580.160
 116335637.299 7  90651205.393 6  22137934.672                    22137946.043
 110437245.516 7  86055126.72246  21015487.797                    21015494.906
 115670554.089 7  90132922.77143  22011372.875                    22011381.914
 11  8 22  1 18 30.0000000  0  8G04G10G29G12G05G25G02G30
 124784887.276 7  97235097.71143  23745760.422                    23745771.188
 115096142.088 8  89685291.51845  21902015.547                    21902024.488
 127017791.718 5  98974936.653 5  24170678.406
 109161433.031 8  85060961.105 7  20772735.336                    20772743.938
 107192742.567 8  83526887.705 8  20398080.313                    20398088.820
 116280583.180 7  90608306.112 6  22127457.531                    22127469.625
 110464784.255 8  86076585.47746  21020728.094                    21020735.641
 115625281.466 7  90097645.39543  22002757.672                    22002767.004
 11  8 22  1 19  0.0000000  0  8G04G10G29G12G05G25G02G30
 124865744.372 7  97298103.20143  23761147.594                    23761157.500
 115171900.381 8  89744323.95945  21916431.664                    21916440.840
 126936054.280 5  98911245.189 5  24155124.984
 109171381.194 8  85068712.890 7  20774628.711                    20774637.031
 107164458.752 8  83504848.399 8  20392698.219                    20392706.992
 116226025.707 7  90565793.850 6  22117075.805                    22117087.594
 110492460.503 8  86098151.37446  21025995.008                    21026001.871
 115580571.404 7  90062806.40743  21994249.297                    21994258.188
 11  8 22  1 19 30.0000000  0  8G04G10G29G12G05G25G02G30
 124946559.651 6  97361076.08543  23776525.633                    23776536.949
 115248090.902 8  89803693.17545  21930930.188                    21930940.195
 126854258.879 5  98847508.556 5  24139559.211                    24139568.426
 109181911.375 8  85076918.211 7  20776632.477                    20776640.484
 107136744.241 8  83483252.705 8  20387424.336                    20387432.809
 116171966.815 6  90523670.026 6  22106789.031                    22106799.945
 110520273.480 8  86119823.81946  21031287.648                    21031294.305
 115536425.523 7  90028407.00743  21985848.727                    21985858.172
 11  8 22  1 20  0.0000000  0  8G04G10G29G12G05G25G02G30
 125027332.455 6  97424015.89443  23791896.766                    23791906.996
 115324710.738 7  89863396.93545  21945510.125                    21945520.793
 126772406.480 5  98783727.510 5  24123983.547                    24123993.484
 109193022.905 8  85085576.529 7  20778746.977                    20778755.391
 107109599.475 8  83462100.940 8  20382259.211                    20382267.746
 116118408.232 6  90481936.103 6  22096596.445                    22096607.871
 110548222.274 8  86141602.08746  21036606.430                    21036612.910
 115492845.173 7  89994448.26744  21977555.555                    21977565.223
 11  8 22  1 20 30.0000000  0  8G04G10G29G12G05G25G02G30
 125108062.190 7  97486922.16143  23807258.742                    23807268.984
 115401757.524 8  89923433.37245  21960172.297                    21960181.770
 126690497.723 6  98719902.496 5  24108396.984                    24108407.324
 109204715.122 8  85094687.351 7  20780971.805                    20780980.344
 107083025.527 8  83441393.984 8  20377201.852                    20377210.699
 116065351.949 6  90440593.546 6  22086500.188                    22086511.578
 110576306.182 8  86163485.64646  21041950.172                    21041956.984
 115449831.792 7  89960931.37344  21969370.164                    21969380.391
 11  8 22  1 21  0.0000000  0  8G04G10G29G12G05G25G02G30
 125188747.685 6  97549793.93743  23822612.969                    23822623.270
 115479227.710 7  89983799.72545  21974913.992                    21974923.688
 126608533.029 6  98656033.967 5  24092799.688                    24092810.242
 109216987.867 8  85104250.509 7  20783307.016                    20783315.984
 107057022.576 8  83421131.958 8  20372254.156                    20372262.895
 116012799.283 5  90399643.439 6  22076499.664                    22076511.723
 110604523.584 8  86185473.21146  21047319.398                    21047326.793
 115407386.326 7  89927856.98444  21961293.055                    21961302.684
 11  8 22  1 21 30.0000000  0  8G04G10G29G12G05G25G02G30
 125269388.689 6  97612631.03943  23837959.078                    23837968.652
 115557118.715 7  90044493.99945  21989736.063                    21989745.438
 126526513.636 6  98592122.780 5  24077192.336                    24077202.625
 109229840.189 8  85114265.291 7  20785752.805                    20785761.293
 107031590.786 8  83401314.993 8  20367414.352                    20367423.430
 115960752.048 6  90359087.187 6  22066597.133                    22066607.797
 110632873.878 8  86207564.33546  21052714.883                    21052721.480
 115365510.278 7  89895226.33144  21953324.781                    21953333.199
 11  8 22  1 22  0.0000000  0  8G04G10G29G12G05G25G02G30
 125349984.792 6  97675433.15743  23853295.664                    23853306.332
 115635428.427 7  90105514.55145  22004637.852                    22004647.039
 126444440.784 6  98528169.883 5  24061573.195                    24061585.379
 109243272.017 8  85124731.633 7  20788309.125                    20788317.305
 107006731.578 8  83381944.208 8  20362684.141                    20362692.660
 115909212.569 5  90318926.519 6  22056789.086                    22056800.164
 110661356.695 8  86229758.72446  21058135.086                    21058141.324
 115324205.366 7  89863040.69244  21945464.398                    21945473.266
 11  8 22  1 22 30.0000000  0  8G04G10G29G12G05G25G02G30
 125430535.255 7  97738199.72443  23868623.742                    23868635.109
 115714153.911 7  90166859.07245  22019619.172                    22019628.168
 126362315.086 5  98464175.913 5  24045945.320                    24045957.801
 109257283.019 8  85135649.293 7  20790975.188                    20790983.328
 106982445.088 8  83363019.684 8  20358062.008                    20358071.008
 115858182.99814  90279162.91216  22047077.664                    22047089.363
 110689970.991 8  86252055.57446  21063580.125                    21063586.898
 115283472.857 7  89831301.08444  21937713.047                    21937721.992
 11  8 22  1 23  0.0000000  0  7G04G10G29G12G05G02G30
 125511039.097 6  97800929.94843  23883943.070                    23883954.391
 115793291.891 7  90228525.00945  22034678.602                    22034687.492
 126280136.922 5  98400141.045 5  24030307.672                    24030320.094
 109271872.274 8  85147017.544 7  20793751.320                    20793760.008
 106958731.409 8  83344541.512 8  20353549.492                    20353558.367
 110718715.199 8  86274453.65046  21069049.531                    21069057.324
 115243313.478 7  89800008.08344  21930071.430                    21930080.301
 11  8 22  1 23 30.0000000  0  7G04G10G29G12G05G02G30
 125591496.503 6  97863624.00643  23899253.008                    23899264.547
 115872840.569 7  90290510.96145  22049816.266                    22049825.848
 126197908.237 6  98336066.741 4  24014660.523                    24014672.453
 109287039.723 8  85158836.319 7  20796637.695                    20796646.004
 106935591.799 8  83326510.667 8  20349146.164                    20349154.824
 110747589.808 8  86296953.33346  21074544.430                    21074551.746
 115203729.326 7  89769163.27144  21922538.719                    21922547.430
 11  8 22  1 24  0.0000000  0  8G04G10G29G12G05G25G02G30
 125671906.053 6  97926280.79343  23914554.844                    23914565.375
 115952795.765 7  90352813.67645  22065031.078                    22065041.391
 126115628.904 5  98271953.074 3  23999004.227
 109302784.076 8  85171104.635 7  20799633.766                    20799642.379
 106913025.546 8  83308926.592 8  20344851.773                    20344860.313
 115708165.95915  90162266.54616  22018530.305                    22018541.441
 110776592.483 8  86319552.82746  21080063.273                    21080070.844
 115164720.468 7  89738766.77444  21915115.313                    21915125.188
 11  8 22  1 24 30.0000000  0  8G04G10G29G12G05G25G02G30
 125752267.031 6  97988899.71343  23929846.953                    23929858.023
 116033155.131 7  90415431.34245  22080323.383                    22080332.352
 126033300.38115  98207801.05014  23983337.477
 109319104.684 8  85183821.988 7  20802739.555                    20802747.887
 106891033.203 8  83291789.721 8  20340666.883                    20340674.895
 115659189.160 5  90124102.831 6  22009211.320                    22009221.820
 110805722.756 8  86342251.74646  21085607.164                    21085613.879
 115126288.510 7  89708819.78444  21907801.844                    21907811.559
 11  8 22  1 25  0.0000000  0  8G04G10G29G12G05G25G02G30
 125832580.107 6  98051481.30543  23945130.477                    23945141.566
 116113916.922 7  90478362.58845  22095691.594                    22095701.047
 125950924.37915  98143611.97514  23967659.375
 109336001.724 8  85196988.500 7  20805955.078                    20805963.355
 106869616.390 8  83275101.325 8  20336591.500                    20336599.832
 115610730.967 6  90086343.164 6  21999990.695                    22000000.555
 110834981.055 8  86365050.41646  21091174.273                    21091181.605
 115088435.767 7  89679324.15644  21900598.750                    21900608.316
 11  8 22  1 25 30.0000000  0  8G04G10G29G12G05G25G02G30
 125912844.102 6  98114024.66543  23960404.703                    23960415.246
 116195077.571 7  90541604.63145  22111135.430                    22111144.758
 125868500.86715  98079385.91114  23951975.414
 109353474.200 8  85210603.423 7  20809280.047                    20809287.891
 106848774.626 8  83258861.012 8  20332625.664                    20332634.191
 115562792.048 6  90048988.149 6  21990867.547                    21990878.480
 110864365.646 8  86387947.48246  21096766.578                    21096772.508
 115051162.494 7  89650280.04844  21893505.813                    21893515.430
 11  8 22  1 26  0.0000000  0  8G04G10G29G12G05G25G02G30
 125993058.589 6  98176529.46943  23975668.531                    23975678.777
 116276634.516 7  90605155.48244  22126655.383                    22126664.496
 125786031.310 5  98015123.913 5  23936282.953
 109371521.528 8  85224666.271 7  20812713.938                    20812722.762
 106828508.482 8  83243069.228 8  20328768.883                    20328777.367
 115515374.247 6  90012039.246 6  21981843.219                    21981854.875
 110893875.858 8  86410942.44746  21102381.828                    21102388.578
 115014470.129 7  89621688.59644  21886523.391                    21886533.332
 11  8 22  1 26 30.0000000  0  8G04G10G29G12G05G25G02G30
 126073223.108 6  98238995.31043  23990923.438                    23990932.895
 116358585.121 7  90669013.07444  22142249.477                    22142259.941
 125703516.853 5  97950826.909 5  23920579.852
 109390142.780 8  85239176.338 7  20816257.336                    20816266.324
 106808818.394 8  83227726.309 8  20325021.844                    20325030.531
 115468479.365 6  89975497.756 6  21972920.234                    21972931.746
 110923510.992 8  86434034.73646  21108021.602                    21108027.566
 114978359.690 7  89593550.57744  21879652.531                    21879661.719
 11  8 22  1 27  0.0000000  0  8G04G10G29G12G05G25G02G30
 126153336.913 7  98301421.64043  24006168.641                    24006178.504
 116440926.102 7  90733174.85344  22157918.938                    22157928.422
 125620957.902 5  97886495.302 5  23904870.000                    23904879.531
 109409337.056 8  85254132.915 7  20819909.797                    20819919.035
 106789703.967 8  83212831.965 8  20321384.539                    20321393.367
 115422108.579 6  89939364.707 6  21964094.742                    21964108.008
 110953269.933 8  86457223.51446  21113684.594                    21113690.563
 114942832.090 7  89565866.74344  21872891.039                    21872900.711
 11  8 22  1 27 30.0000000  0  8G04G10G29G12G05G25G02G30
 126233399.537 7  98363808.07843  24021405.227                    24021414.391
 116523654.642 7  90797638.63345  22173661.516                    22173671.816
 125538355.494 5  97822129.812 5  23889150.273                    23889161.832
 109429103.693 8  85269535.476 7  20823670.938                    20823680.242
 106771165.725 8  83198386.602 8  20317856.922                    20317865.629
 115376263.627 6  89903641.342 5  21955370.375                    21955384.328
 110983151.921 8  86480508.19946  21119370.711                    21119376.816
 114907888.528 7  89538637.98645  21866241.984                    21866251.563
 11  8 22  1 28  0.0000000  0  8G04G10G29G12G05G25G02G30
 126313410.492 7  98426154.24543  24036629.227                    24036640.141
 116606767.852 7  90862402.15945  22189477.430                    22189488.059
 125455710.698 5  97757731.282 5  23873423.977                    23873435.680
 109449441.770 8  85285383.329 7  20827541.594                    20827550.695
 106753203.973 8  83184390.447 8  20314439.031                    20314447.551
 115330945.995 5  89868328.870 5  21946747.234                    21946760.766
 111013156.139 8  86503888.10946  21125080.523                    21125087.512
 114873529.939 7  89511865.06445  21859704.156                    21859712.941
 11  8 22  1 28 30.0000000  0  8G04G10G29G12G05G25G02G30
 126393369.259 7  98488459.77943  24051845.563                    24051855.750
 116690263.202 7  90927463.44145  22205366.789                    22205376.277
 125373024.294 5  97693300.346 5  23857689.016                    23857700.859
 109470350.840 8  85301676.110 7  20831520.789                    20831529.305
 106735818.803 8  83170843.589 8  20311130.672                    20311139.008
 115286157.147 6  89833428.388 5  21938223.680                    21938237.754
 111043281.909 8  86527362.74746  21130813.117                    21130820.145
 114839757.300 7  89485548.72244  21853277.313                    21853286.227
 11  8 22  1 29  0.0000000  0  8G04G10G29G12G05G25G02G30
 126473275.489 6  98550724.33543  24067050.656                    24067061.680
 116774137.812 7  90992820.28445  22221327.266                    22221336.672
 125290298.067 5  97628838.368 5  23841946.984                    23841958.082
 109491829.673 8  85318412.858 7  20835607.797                    20835616.473
 106719010.594 8  83157746.301 8  20307932.031                    20307940.504
 115241898.837 6  89798941.356 5  21929802.078                    21929816.410
 111073528.775 8  86550931.72846  21136568.930                    21136576.031
 114806571.846 6  89459689.95244  21846961.234                    21846971.531
 11  8 22  1 29 30.0000000  0  8G04G10G29G12G05G25G02G30
 126553128.523 6  98612947.44343  24082246.266                    24082257.289
 116858388.816 7  91058470.41045  22237360.008                    22237369.813
 125207532.561 5  97564345.772 5  23826197.406                    23826207.969
 109513877.295 8  85335592.789 7  20839803.531                    20839812.297
 106702779.482 8  83145098.707 8  20304843.492                    20304851.488
 115198172.493 7  89764868.901 5  21921481.539                    21921494.035
 111103895.445 8  86574594.09346  21142347.211                    21142354.172
 114773974.395 6  89434289.35444  21840758.508                    21840768.461
 11  8 22  1 30  0.0000000  0  8G04G10G29G12G05G25G02G30
 126632927.736 6  98675128.60843  24097431.453                    24097442.000
 116943012.974 7  91124411.28644  22253463.023                    22253473.430
 125124728.67815  97499823.22815  23810441.156                    23810451.617
 109536493.088 8  85353215.481 7  20844107.359                    20844116.063
 106687125.028 8  83132900.447 8  20301864.109                    20301872.793
 115154979.162 7  89731211.760 6  21913262.297                    21913274.484
 111134381.225 8  86598349.26246  21148148.398                    21148155.289
 114741965.550 6  89409347.40044  21834667.336                    21834677.473
 11  8 22  1 30 30.0000000  0  8G04G10G29G12G05G25G02G30
 126712673.122 6  98737267.85143  24112606.688                    24112616.617
 117028008.160 7  91190641.27945  22269637.320                    22269647.199
 125041887.829 5  97435271.968 5  23794677.563                    23794687.746
 109559676.183 8  85371280.216 7  20848518.828                    20848527.285
 106672048.120 8  83121152.224 8  20298995.391                    20299003.949
 115112320.985 7  89697971.629 6  21905144.719                    21905157.426
 111164985.827 8  86622197.01446  21153972.008                    21153979.191
 114710546.927 6  89384865.37344  21828688.477                    21828698.879
 11  8 22  1 31  0.0000000  0  8G04G10G29G12G05G25G02G30
 126792364.068 6  98799364.62943  24127771.484                    24127781.551
 117113371.257 7  91257157.96045  22285881.891                    22285891.484
 124959010.86414  97370692.54415  23778905.992                    23778917.105
 109583425.417 8  85389786.104 7  20853037.930                    20853046.305
 106657548.453 8  83109853.796 8  20296236.492                    20296245.242
 115070199.083 7  89665149.372 6  21897129.242                    21897140.629
 111195708.267 8  86646136.58046  21159818.352                    21159825.785
 114679718.912 6  89360843.58744  21822821.789                    21822833.121
 11  8 22  1 31 30.0000000  0  7G04G10G12G05G25G02G30
 126872000.223 6  98861418.74543  24142925.664                    24142936.188
 117199099.370 7  91323959.06745  22302195.242                    22302204.805
 109607740.005 8  85408732.538 7  20857664.914                    20857673.535
 106643626.352 8  83099005.424 8  20293586.547                    20293595.730
 115028614.992 8  89632746.209 6  21889215.672                    21889227.082
 111226548.013 8  86670167.54646  21165687.445                    21165694.535
 114649482.806 7  89337283.01244  21817068.617                    21817078.598
 11  8 22  1 32  0.0000000  0  7G04G10G12G05G25G02G30
 126951580.854 6  98923429.59343  24158068.383                    24158080.133
 117285189.275 7  91391042.11245  22318577.008                    22318586.910
 109632618.550 8  85428118.398 7  20862399.531                    20862407.789
 106630281.195 8  83088606.617 8  20291047.008                    20291055.637
 114987569.760 7  89600762.967 6  21881404.930                    21881415.785
 111257503.885 8  86694289.00246  21171577.844                    21171585.145
 114619838.874 7  89314183.86544  21811427.477                    21811436.574
 11  8 22  1 32 30.0000000  0  7G04G10G12G05G25G02G30
 127031105.836 6  98985397.08543  24173202.594                    24173213.645
 117371639.053 7  91458405.57045  22335028.945                    22335037.754
 109658060.482 8  85447943.275 7  20867240.711                    20867249.438
 106617513.687 8  83078657.928 8  20288617.711                    20288626.016
 114947065.173 8  89569200.910 6  21873697.672                    21873708.801
 111288575.418 8  86718500.59446  21177490.750                    21177497.477
 114590788.401 7  89291547.15944  21805900.070                    21805909.270
 11  8 22  1 33  0.0000000  0  7G04G10G12G05G25G02G30
 127110575.027 6  99047321.12343  24188324.844                    24188336.066
 117458445.329 7  91526046.79845  22351547.070                    22351556.797
 109684064.680 8  85468206.272 7  20872189.461                    20872197.645
 106605323.680 8  83069159.230 8  20286298.117                    20286306.633
 114907102.508 7  89538061.211 6  21866092.703                    21866104.180
 111319762.211 8  86742802.00146  21183425.563                    21183432.285
 114562332.192 7  89269373.48544  21800484.922                    21800494.520
 11  8 22  1 33 30.0000000  0  8G04G10G29G12G05G25G02G30
 127189987.860 6  99109201.19543  24203435.711                    24203447.227
 117545604.894 7  91593963.33945  22368133.039                    22368142.539
 124544129.50614  97047400.32115  23699959.156
 109710630.165 8  85488906.647 7  20877244.422                    20877253.047
 106593711.137 8  83060110.513 8  20284088.313                    20284096.828
 114867683.088 7  89507344.809 6  21858591.117                    21858603.043
 111351063.331 8  86767192.48546  21189381.773                    21189388.703
 114534470.887 7  89247663.39244  21795183.016                    21795192.488
 11  8 22  1 34  0.0000000  0  8G04G10G29G12G05G25G02G30
 127269343.339 6  99171036.59443  24218537.602                    24218548.184
 117633114.792 7  91662152.84545  22384785.859                    22384795.508
 124461059.730 5  96982670.660 5  23684153.070
 109737755.741 8  85510043.443 7  20882406.195                    20882414.949
 106582675.373 8  83051511.216 8  20281988.273                    20281997.234
 114828807.633 7  89477052.266 6  21851193.539                    21851204.715
 111382477.598 8  86791671.13846  21195359.391                    21195366.645
 114507204.707 7  89226417.04844  21789993.984                    21790003.172
 11  8 22  1 34 30.0000000  0  8G04G26G10G12G05G25G02G30
 127348641.660 6  99232827.43843  24233626.898                    24233638.242
 130551887.93616                  24843202.109
 117720972.313 7  91730613.23445  22401504.719                    22401514.824
 109765439.869 7  85531615.481 7  20887673.953                    20887682.664
 106572216.670 8  83043361.575 8  20279997.859                    20280006.523
 114790477.908 7  89447185.004 6  21843899.445                    21843910.633
 111414004.620 7  86816237.64146  21201358.805                    21201366.051
 114480534.869 7  89205635.35644  21784919.195                    21784928.512
 11  8 22  1 35  0.0000000  0  8G04G26G10G12G05G25G02G30
 127427883.059 6  99294573.98943  24248706.445                    24248718.145
 130460327.901 5 101657467.81452  24825780.055                    24825792.703
 117809175.492 7  91799342.95745  22418289.609                    22418298.590
 109793682.266 8  85553622.512 7  20893048.977                    20893057.348
 106562335.562 8  83035662.022 8  20278117.766                    20278126.254
 114752695.975 7  89417744.524 7  21836710.336                    21836721.449
 111445644.874 8  86840892.38246  21207380.289                    21207386.809
 114454462.765 7  89185319.42244  21779958.180                    21779967.012
 11  8 22  1 35 30.0000000  0  9G04G26G10G29G12G05G25G02G30
 127507066.490 6  99356275.27543  24263775.703                    24263786.578
 130368628.93315 101586014.24553  24808328.633                    24808341.914
 117897720.831 7  91868339.28045  22435138.891                    22435148.191
 124211681.29615  96788344.54615  23636694.813
 109822481.414 7  85576063.406 8  20898528.828                    20898537.719
 106553031.167 8  83028411.869 8  20276346.969                    20276356.156
 114715462.237 7  89388731.247 7  21829624.531                    21829635.750
 111477396.571 7  86865633.95846  21213422.336                    21213429.207
 114428988.265 7  89165469.16644  21775110.633                    21775119.113
 11  8 22  1 36  0.0000000  0  9G04G26G10G29G12G05G25G02G30
 127586191.561 6  99417931.17143  24278833.250                    24278842.293
 130276793.46015 101514454.29153  24790853.289                    24790866.059
 117986605.147 7  91937599.77845  22452053.273                    22452062.746
 124128506.86914  96723533.10015  23620863.766
 109851836.093 8  85598937.159 7  20904114.961                    20904124.004
 106544303.626 8  83021611.211 8  20274686.422                    20274695.559
 114678777.939 7  89360146.082 7  21822643.703                    21822655.012
 111509259.232 7  86890462.00246  21219485.148                    21219491.816
 114404111.957 7  89146085.02644  21770376.672                    21770385.355
 11  8 22  1 36 30.0000000  0  8G04G26G10G12G05G25G02G30
 127665257.789 6  99479541.17643  24293877.773                    24293888.422
 130184824.04915 101442789.93353  24773352.391                    24773365.098
 118075825.708 7  92007122.27345  22469030.586                    22469040.922
 109881744.526 8  85622242.422 7  20909806.344                    20909815.273
 106536152.452 8  83015259.661 8  20273135.125                    20273144.332
 114642644.126 7  89331989.872 7  21815767.805                    21815778.910
 111541231.772 8  86915375.67146  21225569.547                    21225576.402
 114379834.398 7  89127167.42445  21765756.617                    21765765.992
 11  8 22  1 37  0.0000000  0  9G04G26G10G29G12G05G25G02G30
 127744265.051 6  99541105.28843  24308912.453                    24308922.996
 130092723.763 6 101371023.70243  24755827.031                    24755838.195
 118165379.924 7  92076904.75245  22486072.531                    22486082.000
 123962092.26215  96593858.01014  23589199.164
 109912206.158 8  85645978.753 7  20915603.156                    20915611.867
 106528577.278 8  83009356.943 8  20271693.805                    20271702.570
 114607062.196 7  89304263.682 7  21808996.516                    21809008.180
 111573313.934 7  86940374.75246  21231674.461                    21231681.574
 114356156.359 7  89108717.01644  21761250.844                    21761260.488
 11  8 22  1 37 30.0000000  0  9G04G26G10G29G12G05G25G02G30
 127823212.914 6  99602623.08643  24323935.172                    24323946.637
 130000495.118 6 101299157.42743  24738276.680                    24738288.348
 118255264.364 7  92146944.55344  22503176.969                    22503186.441
 123878850.52514  96528994.35614  23573355.477
 109943219.238 8  85670144.772 7  20921504.523                    20921513.281
 106521577.982 8  83003902.971 8  20270361.914                    20270370.508
 114572033.025 7  89276968.239 7  21802330.844                    21802342.516
 111605504.854 7  86965458.56946  21237800.172                    21237807.016
 114333078.066 7  89090733.91944  21756859.078                    21756868.590
 11  8 22  1 38  0.0000000  0  9G04G26G10G29G12G05G25G02G30
 127902100.965 6  99664094.25643  24338947.633                    24338958.512
 129908141.198 6 101227193.47043  24720701.734                    24720712.648
 118345476.373 7  92217239.59245  22520343.430                    22520353.641
 123795588.61415  96464114.96814  23557512.344
 109974782.555 8  85694739.543 7  20927511.000                    20927519.777
 106515154.334 8  82998897.548 8  20269139.359                    20269147.934
 114537557.792 7  89250104.399 7  21795770.313                    21795781.828
 111637803.751 7  86990626.54946  21243946.617                    21243952.688
 114310600.142 7  89073218.64844  21752581.961                    21752591.160
 11  8 22  1 38 30.0000000  0  9G04G26G10G29G12G05G25G02G30
 127980928.751 6  99725518.48443  24353947.781                    24353959.473
 129815664.877 6 101155134.13743  24703104.836                    24703115.969
 118436013.092 7  92287787.66244  22537572.055                    22537581.914
 123712307.990 5  96399220.959 4  23541665.313
 110006894.838 8  85719762.094 7  20933621.398                    20933630.629
 106509305.770 8  82994340.252 8  20268026.383                    20268035.219
 114503637.710 8  89223673.166 7  21789315.758                    21789327.441
 111670210.332 8  87015878.43446  21250113.328                    21250120.246
 114288723.130 7  89056171.61544  21748418.852                    21748428.227
 11  8 22  1 39  0.0000000  0  9G04G26G10G29G12G05G25G02G30
 128059696.253 6  99786895.77643  24368937.094                    24368948.215
 129723069.072 6 101082981.77243  24685482.461                    24685495.281
 118526871.576 7  92358586.42844  22554861.867                    22554871.492
 123629010.105 5  96334313.633 4  23525814.211
 110039554.872 8  85745211.450 7  20939836.242                    20939845.422
 106504032.203 8  82990230.989 8  20267022.805                    20267031.547
 114470273.786 8  89197675.299 7  21782966.945                    21782978.168
 111702724.037 8  87041213.80446  21256300.688                    21256307.184
 114267447.472 7  89039593.16044  21744370.031                    21744379.316
 11  8 22  1 39 30.0000000  0  9G04G26G10G29G12G05G25G02G30
 128138403.214 6  99848225.90443  24383914.477                    24383925.582
 129630356.498 6 101010738.37343  24667840.250                    24667852.738
 118618048.847 7  92429633.62544  22572212.516                    22572222.059
 123545696.216 5  96269393.750 4  23509960.094
 110072761.514 8  85771086.743 7  20946155.766                    20946164.430
 106499333.305 8  82986569.523 8  20266128.688                    20266137.668
 114437467.221 8  89172111.748 7  21776724.141                    21776735.195
 111735344.172 8  87066632.08546  21262508.258                    21262514.477
 114246773.718 7  89023483.72244  21740436.367                    21740445.488
 11  8 22  1 40  0.0000000  0  8G04G26G10G12G05G25G02G30
 128217049.344 6  99909508.59643  24398880.398                    24398891.605
 129537530.251 6 100938406.42943  24650175.852                    24650188.145
 118709542.203 7  92500927.13144  22589623.109                    22589632.480
 110106512.905 8  85797386.525 7  20952578.672                    20952587.355
 106495208.815 8  82983355.658 8  20265343.359                    20265352.480
 114405219.047 8  89146983.284 7  21770587.266                    21770598.477
 111768070.178 8  87092132.86746  21268735.836                    21268742.648
 114226702.318 7  89007843.67244  21736616.375                    21736626.438
 11  8 22  1 40 30.0000000  0  9G04G26G10G29G12G05G25G02G30
 128295634.169 6  99970743.51642  24413835.352                    24413845.992
 129444592.880 6 100865987.86643  24632489.281                    24632502.512
 118801348.490 7  92572464.45644  22607093.750                    22607103.434
 123379027.80614                  23478244.172
 110140807.493 8  85824109.567 7  20959104.469                    20959112.676
 106491658.019 8  82980588.814 8  20264667.977                    20264676.672
 114373529.965 8  89122290.494 7  21764556.758                    21764568.156
 111800901.083 8  87117715.39946  21274983.203                    21274990.500
 114207233.394 7  88992673.05245  21732912.156                    21732921.031
 11  8 22  1 41  0.0000000  0  8G04G26G10G12G05G25G02G30
 128374157.612 6 100031930.54642  24428776.469                    24428788.625
 129351547.916 6 100793485.49743  24614784.211                    24614796.570
 118893465.125 7  92644243.63344  22624622.891                    22624632.426
 110175644.437 8  85851255.203 7  20965733.695                    20965741.867
 106488680.864 8  82978268.970 8  20264101.578                    20264110.164
 114342401.446 8  89098034.495 7  21758633.828                    21758644.605
 111833836.836 8  87143379.59846  21281250.430                    21281257.488
 114188367.611 7  88977972.42444  21729321.664                    21729330.871
 11  8 22  1 41 30.0000000  0  8G04G26G10G12G05G25G02G30
 128452619.418 6 100093069.67742  24443707.734                    24443719.184
 129258397.818 6 100720901.20443  24597057.648                    24597070.195
 118985888.964 7  92716262.21444  22642210.789                    22642220.590
 110211021.858 8  85878822.008 7  20972465.820                    20972474.063
 106486276.423 8  82976395.405 8  20263643.695                    20263652.629
 114311834.096 8  89074215.762 7  21752816.555                    21752828.313
 111866876.715 7  87169124.95446  21287537.883                    21287544.977
 114170105.078 7  88963741.88644  21725846.344                    21725855.289
 11  8 22  1 42  0.0000000  0  8G04G26G10G12G05G25G02G30
 128531019.330 6 100154160.54042  24458626.055                    24458636.773
 129165145.661 6 100648237.36943  24579312.609                    24579325.945
 119078617.184 7  92788517.93844  22659856.148                    22659866.430
 110246938.606 8  85906809.061 7  20979300.539                    20979308.785
 106484444.654 8  82974968.070 8  20263295.156                    20263303.516
 114281828.983 8  89050835.152 7  21747107.352                    21747118.230
 111900020.025 7  87194950.88746  21293844.688                    21293851.605
 114152446.263 7  88949981.73845  21722486.563                    21722495.160
 11  8 22  1 42 30.0000000  0  8G04G26G10G12G05G25G02G30
 128609356.640 6 100215202.63142  24473534.813                    24473544.055
 129071794.263 6 100575496.11943  24561549.031                    24561561.246
 119171646.687 7  92861008.41244  22677559.195                    22677568.773
 110283392.716 8  85935214.860 7  20986237.719                    20986246.773
 106483184.429 8  82973986.099 8  20263055.477                    20263064.102
 114252386.746 8  89027893.142 7  21741504.633                    21741515.852
 111933265.936 8  87220856.78746  21300171.023                    21300178.129
 114135391.050 7  88936691.94545  21719240.586                    21719249.773
 11  8 22  1 43  0.0000000  0  9G04G26G10G29G12G05G25G02G30
 128687632.309 6 100276196.57642  24488430.422                    24488440.176
 128978347.168 6 100502680.39543  24543765.180                    24543777.895
 119264975.632 7  92933732.23044  22695319.297                    22695327.441
 122962072.25415  95814680.05515  23398917.039
 110320383.354 8  85964038.712 7  20993276.781                    20993285.621
 106482496.480 8  82973450.057 8  20262924.664                    20262933.020
 114223509.169 8  89005391.114 7  21736009.188                    21736020.891
 111966614.722 7  87246842.85146  21306517.000                    21306524.316
 114118940.658 7  88923873.44945  21716109.820                    21716119.469
 11  8 22  1 43 30.0000000  0  9G04G26G10G29G12G05G25G02G30
 128765844.394 6 100337141.08042  24503312.359                    24503323.348
 128884806.118 6 100429791.38942  24525965.297                    24525978.441
 119358599.519 6  93006685.85944  22713134.477                    22713143.738
 122878674.86715  95749695.09615  23383044.758
 110357907.754 8  85993278.494 7  21000417.375                    21000426.781
 106482378.496 8  82973358.130 8  20262902.461                    20262910.723
 114195195.671 8  88983328.633 7  21730621.031                    21730632.922
 112000064.630 8  87272907.67646  21312882.609                    21312889.926
 114103093.764 7  88911525.21345  21713094.461                    21713103.977
 11  8 22  1 44  0.0000000  0  9G04G26G10G29G12G05G25G02G30
 128843993.746 5 100398036.65742  24518183.469                    24518194.984
 128791175.195 6 100356832.39842  24508148.063                    24508161.629
 119452516.247 7  93079867.68344  22731006.680                    22731016.016
 122795273.372 5  95684706.926 4  23367174.344
 110395965.497 8  86022933.854 7  21007659.555                    21007668.176
 106482831.048 8  82973710.793 8  20262988.266                    20262996.824
 114167448.144 7  88961707.192 7  21725341.016                    21725352.691
 112033615.763 7  87299051.43346  21319267.141                    21319274.281
 114087851.652 8  88899648.25745  21710194.008                    21710204.055
 11  8 22  1 44 30.0000000  0  9G04G26G10G29G12G05G25G02G30
 128922080.323 6 100458883.31442  24533042.445                    24533054.773
 128697457.559 6 100283805.81943  24490313.367                    24490327.672
 119546723.015 7  93153275.52644  22748933.359                    22748942.836
 122711869.127 5  95619716.605 5  23351302.539
 110434555.089 8  86053003.652 7  21015002.953                    21015011.867
 106483853.866 8  82974507.800 8  20263182.742                    20263191.559
 114140267.490 7  88940527.463 7  21720168.711                    21720179.785
 112067267.848 8  87325273.83746  21325670.555                    21325677.637
 114073214.634 8  88888242.77945  21707408.750                    21707418.656
 11  8 22  1 45  0.0000000  0  9G04G26G10G29G12G05G25G02G30
 129000103.598 5 100519680.63342  24547890.375                    24547901.625
 128603655.769 6 100210713.67642  24472463.156                    24472478.141
 119641216.854 7  93226907.04644  22766915.344                    22766923.848
 122628463.392 5  95554725.146 5  23335431.023                    23335440.762
 110473674.532 8  86083486.309 7  21022447.352                    21022455.879
 106485445.656 8  82975748.178 8  20263485.789                    20263493.984
 114113654.365 8  88919789.949 7  21715104.773                    21715115.641
 112101020.609 7  87351574.69046  21332093.648                    21332101.008
 114059182.652 8  88877308.77445  21704738.625                    21704748.020
 11  8 22  1 45 30.0000000  0  9G04G26G10G29G12G05G25G02G30
 129078063.251 6 100580428.35642  24562726.930                    24562737.031
 128509772.711 6 100137558.21242  24454598.016                    24454612.750
 119735994.816 7  93300759.98744  22784950.898                    22784960.555
 122545057.097 5  95489733.310 5  23319558.711                    23319568.805
 110513321.901 8  86114380.344 7  21029991.711                    21030000.402
 106487605.622 8  82977431.271 8  20263896.742                    20263905.219
 114087609.103 8  88899494.943 7  21710148.461                    21710159.793
 112134872.710 8  87377952.94946  21338536.039                    21338542.867
 114045755.345 8  88866845.90145  21702183.289                    21702192.348
 11  8 22  1 46  0.0000000  0  9G04G26G10G29G12G05G25G02G30
 129155959.041 5 100641126.42242  24577549.031                    24577561.141
 128415811.347 6 100064341.71642  24436718.008                    24436730.992
 119831054.039 6  93374832.04444  22803039.766                    22803049.676
 122461651.780 5  95424742.139 5  23303687.375                    23303697.934
 110553495.858 8  86145684.706 7  21037637.039                    21037645.410
 106490333.281 8  82979556.736 8  20264415.906                    20264424.051
 114062132.546 8  88879643.092 7  21705300.070                    21705311.293
 112168823.572 7  87404408.17446  21344996.414                    21345003.047
 114032932.970 8  88856854.42945  21699743.750                    21699752.348
 11  8 22  1 46 30.0000000  0  9G04G26G10G29G12G05G25G02G30
 129233790.828 6 100701774.54142  24592359.375                    24592371.422
 128321774.705 6  99991066.60442  24418823.805                    24418835.813
 119926391.263 6  93449120.78144  22821181.563                    22821191.594
 122378249.05115  95359752.62015  23287816.414                    23287826.086
 110594194.130 8  86177397.623 7  21045381.352                    21045390.012
 106493627.798 8  82982123.898 8  20265042.500                    20265051.109
 114037225.307 8  88860234.851 7  21700560.898                    21700571.883
 112202872.532 8  87430939.80846  21351476.430                    21351482.621
 114020715.338 8  88847334.20345  21697418.695                    21697427.668
 11  8 22  1 47  0.0000000  0  9G04G26G10G29G12G05G25G02G30
 129311558.283 6 100762372.59842  24607159.594                    24607169.684
 128227665.690 6                  24400915.750
 120022003.888 6  93523624.12344  22839375.766                    22839386.145
 122294849.235 5  95294766.148 5  23271946.523                    23271955.852
 110635415.470 8  86209518.151 7  21053225.531                    21053233.930
 106497488.276 8  82985132.085 8  20265777.227                    20265785.742
 114012888.181 8  88841270.864 7  21695929.633                    21695940.852
 112237019.788 8  87457548.07646  21357974.070                    21357980.641
 114009102.636 8  88838285.32745  21695208.797                    21695218.023
 11  8 22  1 47 30.0000000  0  9G04G26G10G29G12G05G25G02G30
 129389261.415 6 100822920.39142  24621945.688                    24621954.879
 128133487.755 6                  24382994.180
 120117889.095 7  93598339.82444  22857622.375                    22857632.691
 122211454.964 5  95229783.629 5  23256076.664                    23256086.496
 110677157.787 8  86242044.624 7  21061168.914                    21061176.742
 106501914.502 8  82988581.101 8  20266619.391                    20266628.043
 113989121.867 7  88822751.669 7  21691406.820                    21691418.211
 112271264.530 8  87484232.30246  21364490.336                    21364496.887
 113998094.946 8  88829707.90145  21693114.266                    21693123.277
 11  8 22  1 48  0.0000000  0  9G04G26G10G29G12G05G25G02G30
 129466900.115 6 100883418.06042  24636719.711                    24636729.266
 128039244.000 6  99770886.25652  24365059.805                    24365069.953
 120214044.068 6  93673265.74744  22875920.664                    22875930.535
 122128067.68015  95164806.54415  23240208.727                    23240218.250
 110719419.944 8  86274976.125 7  21069211.570                    21069220.145
 106506905.764 8  82992470.401 8  20267569.242                    20267578.637
 113965927.237 7  88804677.959 7  21686992.992                    21687004.547
 112305606.665 7  87510992.41346  21371024.867                    21371032.000
 113987692.418 8  88821602.03545  21691134.695                    21691143.855
 11  8 22  1 48 30.0000000  0  8G04G26G10G12G05G25G02G30
 129544474.120 6 100943865.32542  24651480.820                    24651490.949
 127944937.411 6  99697400.81542  24347114.508                    24347124.824
 120310465.422 7  93748399.23644  22894268.836                    22894278.891
 110762199.878 8  86308311.122 7  21077352.172                    21077360.801
 106512460.915 8  82996799.095 8  20268626.734                    20268635.063
 113943304.624 7  88787049.967 7  21682687.813                    21682699.551
 112340045.442 8  87537827.81546  21377578.820                    21377585.480
 113977894.670 8  88813967.43745  21689270.086                    21689279.844
 11  8 22  1 49  0.0000000  0  9G04G26G10G29G12G05G25G02G30
 129621983.330 6 101004262.16542  24666231.211                    24666240.660
 127850570.894 6  99623868.53842  24329156.742                    24329167.820
 120407150.269 7  93823738.02644  22912668.000                    22912677.352
 121961318.49514  95034871.07215  23208476.930                    23208486.281
 110805495.681 8  86342048.092 7  21085590.813                    21085599.656
 106518578.984 8  83001566.441 8  20269790.867                    20269799.289
 113921254.563 7  88769868.117 7  21678492.133                    21678503.016
 112374580.024 8  87564737.90346  21384150.703                    21384157.180
 113968701.639 8  88806804.03845  21687520.758                    21687530.160
 11  8 22  1 49 30.0000000  0  8G26G10G29G12G05G25G02G30
 127756148.052 6  99550292.42143  24311188.438                    24311200.242
 120504096.732 7  93899280.72844  22931115.648                    22931125.914
 121877960.66715  94969916.49616  23192614.844                    23192625.316
 110849306.113 8  86376186.074 7  21093927.469                    21093936.469
 106525259.838 8  83006772.314 8  20271062.445                    20271070.508
 113899778.352 8  88753133.407 7  21674405.469                    21674415.914
 112409210.672 7  87591722.84546  21390740.695                    21390747.707
 113960113.816 8  88800112.23845  21685886.703                    21685895.773
 11  8 22  1 50  0.0000000  0  8G26G10G29G12G05G25G02G30
 127661672.212 6  99476675.01843  24293209.789                    24293222.563
 120601301.699 6  93975024.81044  22949613.297                    22949623.254
 121794611.19815  94904965.99716  23176753.289                    23176765.445
 110893629.889 8  86410724.082 7  21102362.289                    21102370.875
 106532502.746 8  83012416.142 8  20272440.281                    20272448.758
 113878876.354 7  88736846.136 7  21670427.891                    21670438.168
 112443936.951 8  87618782.29746  21397348.477                    21397355.887
 113952130.911 8  88793891.78845  21684367.313                    21684376.250
 11  8 22  1 50 30.0000000  0  8G26G10G29G12G05G25G02G30
 127567145.452 6  99403017.92543  24275221.945                    24275233.605
 120698761.307 6  94050967.34444  22968159.406                    22968168.914
 121711278.62615  94840031.92315  23160898.133                    23160907.953
 110938463.099 8  86445659.027 7  21110893.625                    21110902.715
 106540305.388 8  83018496.137 8  20273925.414                    20273933.609
 113858548.164 8  88721005.991 7  21666559.531                    21666570.520
 112478757.418 8  87645915.14046  21403974.758                    21403982.105
 113944751.838 8  88788141.88445  21682963.148                    21682972.402
 11  8 22  1 51  0.0000000  0  8G26G10G29G12G05G25G02G30
 127472571.571 6  99329324.09642  24257225.422                    24257236.055
 120796473.362 6  94127106.59144  22986752.852                    22986762.848
 121627962.291 5  94775110.140 5  23145042.094                    23145053.820
 110983805.015 8  86480990.366 7  21119522.000                    21119530.742
 106548668.018 8  83025012.483 8  20275516.422                    20275525.098
 113838795.037 8  88705613.954 7  21662800.680                    21662811.934
 112513672.464 8  87673121.68446  21410618.797                    21410625.219
 113937977.153 8  88782862.91245  21681674.102                    21681683.555
 11  8 22  1 51 30.0000000  0  8G26G10G29G12G05G25G02G30
 127377954.036 5  99255596.26342  24239219.711                    24239230.305
 120894435.181 6  94203440.41143  23005394.070                    23005404.008
 121544663.228 6  94710201.812 5  23129190.797                    23129202.129
 111029654.041 8  86516716.839 7  21128246.453                    21128255.262
 106557589.720 8  83031964.449 8  20277214.367                    20277222.668
 113819617.557 8  88690670.468 7  21659151.328                    21659162.637
 112548681.873 8  87700401.74446  21417281.320                    21417287.590
 113931806.787 8  88778054.84945  21680500.148                    21680509.398
 11  8 22  1 52  0.0000000  0  8G26G10G29G12G05G25G02G30
 127283295.533 5  99181836.41542  24221205.227                    24221218.371
 120992643.371 6  94279966.25844  23024083.445                    23024093.059
 121461382.700 6  94645307.932 5  23113343.594                    23113352.988
 111076007.915 8  86552836.732 7  21137067.789                    21137076.520
 106567069.443 8  83039351.251 8  20279018.133                    20279026.621
 113801015.736 8  88676175.576 7  21655611.484                    21655622.309
 112583784.613 8  87727754.53546  21423960.617                    21423967.848
 113926240.055 8  88773717.12545  21679440.711                    21679449.945
 11  8 22  1 52 30.0000000  0  8G26G10G29G12G05G25G02G30
 127188598.93615                  24203189.648
 121091094.997 6  94356681.78544  23042817.516                    23042827.652
 121378121.819 6  94580429.412 5  23097498.180                    23097508.797
 111122864.369 8  86589348.241 7  21145984.586                    21145993.387
 106577105.279 8  83047171.389 8  20280927.867                    20280936.402
 113782989.802 8  88662129.408 7  21652181.414                    21652192.473
 112618980.114 8  87755179.60646  21430658.266                    21430665.621
 113921276.406 8  88769849.33845  21678495.750                    21678505.371
 11  8 22  1 53  0.0000000  0  8G26G10G29G12G05G25G02G30
 127093867.299 5  99034242.19152  24185161.555                    24185173.098
 121189787.211 6  94433584.75444  23061598.266                    23061608.168
 121294882.189 6  94515567.410 5  23081659.180                    23081668.992
 111170221.701 8  86626250.030 7  21154996.109                    21155004.863
 106587696.905 8  83055424.622 8  20282943.367                    20282952.211
 113765540.117 8  88648532.249 7  21648860.711                    21648871.695
 112654268.122 8  87782676.75746  21437373.430                    21437381.281
 113916915.522 8  88766451.26045  21677666.117                    21677675.230
 11  8 22  1 53 30.0000000  0  8G26G10G29G12G05G25G02G30
 126999104.200 5  98960401.00742  24167125.320                    24167140.043
 121288717.395 6  94510673.17344  23080424.461                    23080434.184
 121211665.634 6  94450723.409 5  23065823.711                    23065834.117
 111218078.094 8  86663540.709 7  21164103.102                    21164111.750
 106598843.218 8  83064110.050 8  20285064.898                    20285073.262
 113748667.271 8  88635384.577 7  21645650.156                    21645660.926
 112689648.471 8  87810245.87146  21444105.898                    21444113.438
 113913157.270 8  88763522.73645  21676950.859                    21676960.590
 11  8 22  1 54  0.0000000  0  8G26G10G29G12G05G25G02G30
 126904312.997 5  98886537.79042  24149086.578                    24149102.563
 121387882.789 7  94587944.87944  23099295.234                    23099303.820
 121128473.744 6  94385898.664 5  23049993.195                    23050003.340
 111266431.227 8  86701218.464 7  21173304.250                    21173312.988
 106610543.267 8  83073226.989 8  20287290.578                    20287299.578
 113732371.734 8  88622686.759 7  21642548.688                    21642559.957
 112725120.575 8  87837886.45746  21450855.906                    21450863.305
 113910001.444 8  88761063.64445  21676350.969                    21676359.750
 11  8 22  1 54 30.0000000  0  8G26G10G29G12G05G25G02G30
 126809496.988 5  98812655.29452  24131045.539                    24131059.215
 121487280.470 7  94665397.62144  23118209.945                    23118218.547
 121045308.156 7  94321094.382 5  23034167.320                    23034178.000
 111315279.466 8  86739282.017 7  21182599.469                    21182608.371
 106622796.046 8  83082774.607 8  20289622.461                    20289631.371
 113716653.938 8  88610439.134 7  21639557.867                    21639569.477
 112760684.309 8  87865598.45746  21457623.875                    21457630.398
 113907447.745 8  88759073.74545  21675864.727                    21675873.531
 11  8 22  1 55  0.0000000  0  8G26G10G29G12G05G25G02G30
 126714659.294 5                  24112998.180
 121586907.620 7  94743029.13344  23137168.758                    23137178.055
 120962170.384 7  94256311.804 5  23018346.195                    23018357.309
 111364620.765 8  86777729.776 7  21191988.773                    21191997.723
 106635600.588 8  83092752.173 8  20292059.094                    20292067.820
 113701514.021 8  88598641.800 7  21636676.672                    21636688.367
 112796339.227 8  87893381.50846  21464408.977                    21464415.277
 113905495.600 8  88757552.58646  21675493.133                    21675502.031
 11  8 22  1 55 30.0000000  0  8G26G10G29G12G05G25G02G30
 126619802.697 6  98664816.91052  24094947.328                    24094956.887
 121686761.222 7  94820837.10844  23156169.961                    23156179.395
 120879061.612 6  94191551.835 5  23002531.320                    23002542.328
 111414452.648 8  86816559.798 7  21201471.508                    21201480.047
 106648955.342 8  83103158.478 8  20294600.258                    20294608.910
 113686951.934 8  88587294.725 7  21633905.508                    21633916.906
 112832084.610 8  87921235.06045  21471210.656                    21471217.395
 113904144.282 8  88756499.59845  21675236.406                    21675244.746
 11  8 22  1 56  0.0000000  0  8G26G10G29G12G05G25G02G30
 126524930.786 5  98590890.91342  24076893.352                    24076903.773
 121786838.256 7  94898819.16744  23175214.391                    23175223.559
 120795983.807 7  94126815.938 5  22986721.461                    22986731.797
 111464773.629 8  86855770.940 7  21211047.688                    21211055.949
 106662859.432 8  83113992.839 8  20297246.297                    20297254.910
 113672968.169 8  88576398.273 7  21631244.672                    21631256.477
 112867920.227 8  87949158.90945  21478030.172                    21478036.344
 113903393.515 8  88755914.58045  21675093.047                    21675101.766
 11  8 22  1 56 30.0000000  0  8G26G10G29G12G05G25G02G30
 126430046.680 6  98516955.35442  24058838.531                    24058847.656
 121887135.847 7  94976973.11544  23194300.305                    23194309.535
 120712938.410 7  94062105.302 4  22970918.680                    22970928.609
 111515581.158 8  86895361.207 7  21220715.625                    21220724.332
 106677311.439 8  83125254.146 8  20299996.492                    20300005.074
 113659562.794 8  88565952.516 7  21628693.516                    21628705.035
 112903845.535 8  87977152.65545  21484866.313                    21484873.477
 113903242.571 8  88755796.94745  21675064.469                    21675073.641
 11  8 22  1 57  0.0000000  0  8G26G10G29G12G05G25G02G30
 126335153.758 6  98443012.98642  24040780.641                    24040789.836
 121987651.602 7  95055297.06744  23213427.586                    23213436.883
 120629927.272 6  93997421.307 5  22955122.516                    22955132.090
 111566873.310 8  86935329.093 7  21230476.195                    21230485.207
 106692310.781 8  83136941.953 8  20302850.789                    20302859.434
 113646736.319 8  88555957.838 7  21626253.133                    21626264.289
 112939860.681 8  88005216.40045  21491719.641                    21491726.625
 113903691.365 8  88756146.65345  21675149.844                    21675159.664
 11  8 22  1 57 30.0000000  0  8G26G10G29G12G05G25G02G30
 126240255.371 6  98369066.35542  24022721.070                    24022732.309
 122088382.207 7  95133788.40243  23232595.938                    23232605.531
 120546951.416 6  93932764.795 5  22939332.516                    22939343.094
 111618647.546 8  86975672.638 7  21240328.852                    21240337.359
 106707855.635 8  83149054.834 8  20305808.984                    20305817.586
 113634488.327 8  88546413.947 7  21623922.227                    21623933.516
 112975964.875 8  88033349.52746  21498590.102                    21498597.270
 113904738.628 7  88756962.68645  21675348.266                    21675358.430
 11  8 22  1 58  0.0000000  0  8G26G10G29G12G05G25G02G30
 126145354.567 6  98295117.73442  24004662.734                    24004674.484
 122189325.416 7  95212445.41144  23251805.242                    23251814.531
 120464012.836 6  93868137.355 5  22923549.305                    22923560.797
 111670902.388 8  87016390.679 7  21250272.875                    21250281.387
 106723945.178 8  83161592.152 8  20308870.516                    20308879.281
 113622819.410 8  88537321.264 7  21621701.805                    21621713.047
 113012158.267 8  88061552.16946  21505477.766                    21505484.160
 113906384.247 7  88758245.04945  21675661.219                    21675671.020
 11  8 22  1 58 30.0000000  0  8G26G10G29G12G05G25G02G30
 126050454.602 5  98221169.85842  23986603.281                    23986615.867
 122290477.801 7  95291265.43144  23271053.555                    23271063.121
 120381113.424 6  93803540.433 4  22907774.477                    22907784.457
 111723635.370 8  87057481.302 7  21260307.234                    21260316.352
 106740577.888 8  83174552.707 8  20312035.680                    20312043.930
 113611729.518 8  88528679.779 7  21619591.602                    21619602.848
 113048440.333 8  88089823.92246  21512382.000                    21512388.211
 113908627.579 7  88759993.09745  21676088.844                    21676098.262
 11  8 22  1 59  0.0000000  0  8G26G10G29G12G05G25G02G30
 125955559.070 5  98147225.38042  23968545.109                    23968558.480
 122391836.941 7  95370246.55144  23290340.914                    23290351.488
 120298254.791 6  93738975.186 5  22892006.672                    22892016.879
 111776844.327 8  87098942.803 7  21270432.297                    21270441.566
 106757752.727 8  83187935.706 8  20315303.766                    20315312.598
 113601218.897 7  88520489.669 7  21617591.133                    21617602.289
 113084810.788 8  88118164.53045  21519303.070                    21519309.207
 113911467.997 7  88762206.41645  21676629.156                    21676638.879
 11  8 22  1 59 30.0000000  0  8G26G10G29G12G05G25G02G30
 125860671.13415                  23950488.609
 122493399.981 7  95449386.53044  23309668.398                    23309678.500
 120215438.235 6  93674442.803 5  22876248.023                    22876257.941
 111830526.935 8  87140773.383 7  21280647.773                    21280657.418
 106775468.153 8  83201739.945 8  20318674.313                    20318683.574
 113591287.221 7  88512750.722 7  21615701.195                    21615712.891
 113121268.843 8  88146573.41546  21526240.734                    21526246.676
 113914904.650 8  88764884.32845  21677283.227                    21677292.891
 11  8 22  2  0  0.0000000  0  8G26G10G29G12G05G25G02G30
 125765794.118 5                  23932435.320
 122595164.069 7  95528683.19944  23329032.984                    23329043.402
 120132666.039 6  93609945.025 5  22860496.617                    22860505.957
 111884681.237 8  87182971.517 7  21290952.953                    21290962.258
 106793723.410 8  83215964.803 8  20322149.117                    20322157.188
 113581934.989 7  88505463.297 7  21613921.086                    21613933.137
 113157814.986 8  88175050.92545  21533195.078                    21533202.035
 113918937.118 8  88768026.51346  21678050.781                    21678060.172
 11  8 22  2  0 30.0000000  0  8G26G10G29G12G05G25G02G30
 125670931.306 5                  23914382.602
 122697126.171 7  95608134.15144  23348436.711                    23348446.074
 120049939.217 6  93545482.573 5  22844753.375                    22844763.191
 111939304.766 8  87225535.295 7  21301347.594                    21301357.105
 106812516.624 8  83230608.874 8  20325724.992                    20325733.516
 113573161.820 8  88498627.095 7  21612251.531                    21612263.316
 113194448.428 8  88203596.47045  21540166.305                    21540173.094
 113923564.354 8  88771632.13846  21678931.367                    21678940.578
 11  8 22  2  1  0.0000000  0  8G26G10G29G12G05G25G02G30
 125576085.931 5                  23896334.695
 122799283.655 7  95687737.35344  23367876.539                    23367886.270
 119967259.716 6  93481056.993 5  22829021.055                    22829030.012
 111994395.522 8  87268463.145 7  21311830.922                    21311840.441
 106831846.506 8  83245671.128 8  20329403.188                    20329412.047
 113564967.764 8  88492242.113 7  21610692.961                    21610703.652
 113231168.766 8  88232209.71945  21547153.867                    21547160.648
 113928785.663 8  88775700.68146  21679924.852                    21679934.555
 11  8 22  2  1 30.0000000  0  8G26G10G29G12G05G25G02G30
 125481261.646 6                  23878289.867
 122901633.990 7  95767490.82844  23387353.102                    23387362.641
 119884629.450 6  93416669.809 6  22813296.648                    22813306.238
 112049951.234 8  87311753.289 7  21322403.227                    21322412.332
 106851712.207 8  83261150.896 8  20333183.656                    20333192.691
 113557353.056 8  88486308.589 7  21609244.242                    21609255.195
 113267976.203 8  88260890.85446  21554158.016                    21554165.238
 113934600.469 8  88780231.70246  21681031.625                    21681040.711
 11  8 22  2  2  0.0000000  0  8G26G10G29G12G05G25G02G30
 125386461.549 6                  23860250.367
 123004174.035 7  95847392.14644  23406865.094                    23406875.637
 119802049.798 6  93352322.032 6  22797582.039                    22797591.707
 112105969.246 8  87355403.651 7  21333063.391                    21333071.953
 106872111.924 8  83277046.797 8  20337065.828                    20337074.496
 113550317.334 8  88480826.214 7  21607905.164                    21607916.195
 113304870.205 8  88289639.44245  21561178.484                    21561185.551
 113941007.770 8  88785224.39246  21682250.688                    21682260.141
 11  8 22  2  2 30.0000000  0  8G26G10G29G12G05G25G02G30
 125291688.827 5  97629911.65352  23842214.352                    23842223.887
 123106901.053 7  95927439.11644  23426414.641                    23426423.668
 119719522.474 7  93288015.060 6  22781878.023                    22781888.262
 112162447.228 8  87399412.438 7  21343810.883                    21343819.047
 106893044.043 8  83293357.554 8  20341048.938                    20341057.773
 113543860.237 8  88475794.699 7  21606676.258                    21606687.293
 113341850.520 8  88318455.28345  21568215.953                    21568222.438
 113948006.427 8  88790677.87245  21683582.953                    21683591.844
 11  8 22  2  3  0.0000000  0  8G26G10G29G12G05G25G02G30
 125196947.074 5  97556086.93942  23824186.930                    23824195.957
 123209812.194 7  96007629.59743  23445997.219                    23446006.617
 119637049.249 7  93223750.234 6  22766183.258                    22766193.195
 112219383.472 7  87443778.336 7  21354644.969                    21354653.832
 106914507.332 8  83310082.225 8  20345133.500                    20345141.629
 113537981.906 8  88471214.148 7  21605557.641                    21605569.109
 113378916.716 8  88347338.04846  21575269.789                    21575275.977
 113955595.865 8  88796591.69945  21685026.938                    21685036.051
 11  8 22  2  3 30.0000000  0  8G26G10G29G12G05G25G02G30
 125102239.888 6  97482289.16242  23806165.141                    23806175.055
 123312904.889 7  96087961.52344  23465615.086                    23465624.449
 119554632.147 7  93159529.177 6  22750500.023                    22750509.711
 112276775.506 7  87488499.364 7  21365566.305                    21365575.410
 106936500.903 8  83327220.067 8  20349318.430                    20349326.934
 113532682.553 8  88467084.788 7  21604549.594                    21604560.613
 113416068.864 8  88376287.76446  21582339.563                    21582345.898
 113963775.527 7  88802965.44145  21686583.078                    21686592.957
 11  8 22  2  4  0.0000000  0  8G26G10G29G12G05G25G02G30
 125007570.159 6  97408520.59742  23788149.680                    23788159.602
 123416176.203 7  96168432.65944  23485267.148                    23485276.785
 119472272.534 7  93095352.919 6  22734828.055                    22734837.301
 112334620.705 7  87533573.555 7  21376574.063                    21376583.039
 106959022.511 8  83344769.386 8  20353603.891                    20353612.910
 113527961.302 8  88463405.870 7  21603651.031                    21603662.566
 113453306.296 8  88405303.94246  21589425.555                    21589431.602
 113972543.832 7  88809797.88345  21688252.484                    21688261.293
 11  8 22  2  4 30.0000000  0  8G26G10G29G12G05G25G02G30
 124912941.499 5  97334784.10542  23770143.039                    23770152.492
 123519623.129 7  96249040.61244  23504952.039                    23504961.672
 119389971.993 7  93031222.711 6  22719166.273                    22719175.090
 112392916.146 8  87578998.545 7  21387667.094                    21387676.414
 106982070.540 8  83362728.894 8  20357990.086                    20357998.277
 113523817.953 8  88460177.282 7  21602862.016                    21602873.629
 113490628.795 8  88434386.44545  21596527.398                    21596534.648
 113981899.838 8  88817088.29545  21690031.867                    21690041.488
 11  8 22  2  5  0.0000000  0  8G26G10G29G12G05G25G02G30
 124818357.197 5  97261082.09342  23752144.164                    23752154.191
 123623243.386 6  96329783.64543  23524669.680                    23524680.332
 119307732.693 7  92967140.143 6  22703516.789                    22703525.762
 112451659.914 7  87624772.899 7  21398846.109                    21398854.633
 107005644.026 8  83381097.860 8  20362475.961                    20362484.551
 113520252.529 8  88457399.041 7  21602183.734                    21602195.168
 113528036.296 8  88463535.14346  21603645.781                    21603652.879
 113991842.821 7  88824836.05745  21691924.273                    21691934.035
 11  8 22  2  5 30.0000000  0  9G15G26G10G29G12G05G25G02G30
 129471335.07016                  24637603.766
 124723821.16714  97187417.38552  23734154.523                    23734165.234
 123727033.792 6  96410659.25344  23544420.797                    23544431.176
 119225556.332 7  92903106.700 6  22687879.188                    22687888.000
 112510849.703 8  87670894.765 7  21410109.359                    21410118.188
 107029741.177 8  83399874.871 8  20367061.664                    20367070.012
 113517264.636 8  88455070.812 7  21601615.219                    21601626.813
 113565528.747 8  88492750.05046  21610780.766                    21610787.387
 114002371.705 7  88833040.37545  21693927.617                    21693937.734
 11  8 22  2  6  0.0000000  0  8G15G10G29G12G05G25G02G30
 129378611.528 6 100814652.38216  24619958.328                    24619970.297
 123830992.245 7  96491665.78043  23564204.352                    23564213.688
 119143445.125 7  92839124.015 6  22672253.438                    22672263.109
 112570483.524 7  87717362.669 7  21421457.023                    21421466.273
 107054361.245 8  83419059.338 8  20371746.594                    20371755.078
 113514854.611 8  88453192.845 7  21601156.773                    21601168.086
 113603106.123 8  88522031.10146  21617931.703                    21617938.523
 114013485.971 8  88841700.81545  21696042.461                    21696052.770
 11  8 22  2  6 30.0000000  0  8G15G10G29G12G05G25G02G30
 129285754.206 6 100742296.248 6  24602289.000                    24602300.855
 123935115.556 6  96572800.81443  23584018.117                    23584027.125
 119061400.243 7  92775192.990 6  22656641.023                    22656650.590
 112630558.776 8  87764174.535 7  21432888.867                    21432897.563
 107079502.092 8  83438649.615 8  20376530.555                    20376539.418
 113513021.602 8  88451764.520 7  21600807.898                    21600819.410
 113640767.851 8  88551377.92246  21625098.469                    21625104.328
 114025184.102 8  88850816.24345  21698268.906                    21698278.840
 11  8 22  2  7  0.0000000  0  8G15G10G29G12G05G25G02G30
 129192765.279 6 100669837.452 6  24584593.250                    24584604.629
 124039400.895 6  96654062.11343  23603862.609                    23603872.137
 118979423.628 7  92711315.173 6  22641041.734                    22641051.180
 112691072.715 7  87811328.250 7  21444404.492                    21444413.734
 107105161.833 8  83458644.216 8  20381414.000                    20381421.813
 113511765.266 8  88450785.544 7  21600569.195                    21600580.453
 113678513.859 8  88580790.38146  21632281.031                    21632287.441
 114037464.999 8  88860385.76245  21700606.266                    21700615.465
 11  8 22  2  7 30.0000000  0  8G15G10G29G12G05G25G02G30
 129099647.243 6 100597278.089 6  24566874.398                    24566885.902
 124143846.015 7  96735447.88743  23623738.289                    23623747.203
 118897517.529 7  92647492.296 6  22625455.039                    22625465.781
 112752023.139 8  87858822.068 7  21456003.320                    21456012.277
 107131339.411 8  83479042.339 8  20386394.758                    20386403.477
 113511085.410 8  88450255.782 7  21600439.789                    21600451.621
 113716343.885 8  88610268.31146  21639479.984                    21639486.551
 114050327.743 8  88870408.67045  21703054.016                    21703063.305
 11  8 22  2  8  0.0000000  0  8G15G10G29G12G05G25G02G30
 129006402.471 6 100524620.006 6  24549130.016                    24549142.406
 124248447.579 6  96816955.59543  23643642.648                    23643652.543
 118815683.296 7  92583725.376 6  22609882.602                    22609892.195
 112813407.125 7  87906653.716 7  21467683.750                    21467693.074
 107158032.477 7  83499842.143 8  20391474.391                    20391483.086
 113510981.207 8  88450174.581 7  21600419.773                    21600431.652
 113754257.729 8  88639811.57445  21646693.797                    21646701.293
 114063770.697 8  88880883.69345  21705612.133                    21705621.430
 11  8 22  2  8 30.0000000  0  8G15G10G29G12G05G25G02G30
 128913033.451 6 100451865.108 6  24531362.016                    24531374.648
 124353203.455 6  96898583.58643  23663576.922                    23663587.281
 118733923.086 7  92520016.152 6  22594324.547                    22594333.461
 112875223.132 8  87954822.020 7  21479447.203                    21479455.789
 107185240.290 8  83521043.057 8  20396651.570                    20396660.285
 113511452.749 8  88450542.005 7  21600509.492                    21600521.254
 113792255.693 8  88669420.37645  21653925.211                    21653932.105
 114077793.292 8  88891810.37046  21708280.336                    21708289.930
 11  8 22  2  9  0.0000000  0  9G15G26G10G29G12G05G25G02G30
 128819542.666 6 100379015.374 5  24513571.828                    24513583.820
 124063730.56615                  23608535.641
 124458110.820 6  96980329.54143  23683540.672                    23683550.930
 118652238.410 7  92456365.821 6  22578779.766                    22578789.207
 112937467.573 7  88003324.159 7  21491292.031                    21491300.695
 107212960.832 8  83542643.499 8  20401926.539                    20401935.195
 113512499.233 8  88451357.436 7  21600708.344                    21600719.844
 113830336.971 8  88699094.10845  21661171.695                    21661178.602
 114092393.893 8  88903187.46445  21711058.711                    21711068.254
 11  8 22  2  9 30.0000000  0  9G15G26G10G29G12G05G25G02G30
 128725932.847 6 100306072.769 5  24495757.695                    24495770.934
 123969701.48715                  23590643.102
 124563166.784 6  97062191.32343  23703532.102                    23703542.359
 118570631.052 7  92392775.723 6  22563249.984                    22563259.113
 113000138.097 8  88052158.309 7  21503217.898                    21503226.496
 107241192.161 8  83564641.956 8  20407298.836                    20407307.691
 113514120.197 8  88452620.533 7  21601017.117                    21601028.461
 113868501.510 8  88728832.69445  21668434.438                    21668441.227
 114107571.367 8  88915014.04745  21713947.266                    21713956.680
 11  8 22  2 10  0.0000000  0  9G15G26G10G29G12G05G25G02G30
 128632206.573 6 100233039.471 5  24477921.922                    24477934.898
 123875751.79715                  23572763.320
 124668368.809 6  97144166.92943  23723551.211                    23723561.813
 118489103.232 7  92329247.584 6  22547736.352                    22547745.441
 113063232.691 8  88101322.911 7  21515224.523                    21515232.609
 107269933.125 8  83587037.526 8  20412768.531                    20412776.836
 113516315.499 8  88454331.139 7  21601435.094                    21601446.117
 113906749.434 8  88758636.26245  21675712.648                    21675719.285
 114123324.890 8  88927289.51145  21716944.914                    21716954.191
 11  8 22  2 10 30.0000000  0  9G15G26G10G29G12G05G25G02G30
 128538366.338 6 100159917.375 5  24460064.250                    24460075.762
 123781884.698 5                  23554901.758
 124773714.240 6  97226254.25243  23743597.766                    23743608.281
 118407656.778 7  92265782.856 6  22532237.453                    22532246.742
 113126748.926 8  88150816.051 7  21527311.242                    21527319.758
 107299181.768 8  83609828.689 8  20418334.016                    20418343.094
 113519084.351 8  88456488.703 7  21601961.531                    21601972.895
 113945080.392 8  88788504.55745  21683006.648                    21683013.445
 114139652.864 8  88940012.60245  21720051.391                    21720061.160
 11  8 22  2 11  0.0000000  0  9G15G26G10G29G12G05G25G02G30
 128444414.712 7 100086708.417 5  24442186.523                    24442195.852
 123688103.691 5                  23537055.414
 124879200.172 6  97308451.07743  23763671.742                    23763680.801
 118326293.174 7  92202382.674 6  22516754.305                    22516764.539
 113190683.841 8  88200635.441 7  21539477.836                    21539486.660
 107328936.397 8  83633014.126 8  20423996.375                    20424005.219
 113522426.192 8  88459092.726 7  21602597.734                    21602608.656
 113983494.262 8  88818437.43345  21690316.391                    21690322.922
 114156553.970 8  88953182.29545  21723267.609                    21723277.320
 11  8 22  2 11 30.0000000  0  9G15G26G10G29G12G05G25G02G30
 128350353.775 7 100013414.326 6  24424287.477                    24424297.906
 123594411.799 6                  23519226.273
 124984823.926 6  97390755.25343  23783770.922                    23783780.469
 118245014.871 6  92139048.968 6  22501287.445                    22501297.176
 113255034.956 8  88250779.160 7  21551723.148                    21551732.527
 107359195.283 8  83656592.482 8  20429754.313                    20429763.281
 113526340.434 8  88462142.775 7  21603342.484                    21603353.754
 114021991.227 7  88848435.06745  21697642.766                    21697648.406
 114174026.835 8  88966797.49245  21726593.086                    21726602.477
 11  8 22  2 12  0.0000000  0  9G15G26G10G29G12G05G25G02G30
 128256186.154 7  99940037.115 6  24406367.305                    24406379.055
 123500812.885 6                  23501415.766
 125090582.931 6  97473164.85143  23803894.961                    23803905.688
 118163823.343 7  92075782.899 6  22485837.523                    22485847.188
 113319799.393 8  88301244.960 7  21564047.859                    21564056.367
 107389956.503 8  83680562.275 8  20435607.773                    20435616.605
 113530826.257 8  88465638.220 7  21604196.211                    21604207.402
 114060570.655 8  88878496.97545  21704983.914                    21704990.340
 114192070.088 8  88980857.16845  21730026.320                    21730035.613
 11  8 22  2 12 30.0000000  0  9G15G26G10G29G12G05G25G02G30
 128161914.617 6  99866578.987 6  24388427.430                    24388439.891
 123407310.331 6                  23483622.352
 125196474.525 6  97555677.77943  23824046.703                    23824056.797
 118082720.417 7  92012585.856 6  22470404.211                    22470414.129
 113384974.597 8  88352030.816 7  21576450.039                    21576458.645
 107421218.300 8  83704922.123 8  20441556.648                    20441565.238
 113535883.123 8  88469578.643 7  21605158.586                    21605169.813
 114099232.460 7  88908623.05845  21712340.867                    21712348.176
 114210682.250 8  88995360.11246  21733568.414                    21733577.824
 11  8 22  2 13  0.0000000  0  9G15G26G10G29G12G05G25G02G30
 128067541.430 6  99793041.620 6  24370468.023                    24370481.449
 123313907.822 6  96088771.10052  23465848.656                    23465859.879
 125302495.989 6  97638291.91343  23844222.344                    23844231.656
 118001708.409 7  91949459.662 6  22454988.711                    22454997.723
 113450558.566 8  88403135.194 7  21588930.172                    21588938.980
 107452979.059 8  83729670.773 8  20447600.227                    20447609.492
 113541510.506 8  88473963.609 7  21606229.266                    21606240.902
 114137976.894 7  88938813.52345  21719713.805                    21719721.172
 114229862.191 8  89010305.48645  21737218.258                    21737227.656
 11  8 22  2 13 30.0000000  0  9G15G26G10G29G12G05G25G02G30
 127973069.439 6  99719427.232 6  24352490.867                    24352502.801
 123220609.072 5  96016070.81142  23448093.641                    23448105.898
 125408644.693 6  97721005.23043  23864420.641                    23864431.836
 117920788.981 6  91886405.630 6  22439589.695                    22439599.176
 113516547.989 7  88454555.496 7  21601487.102                    21601495.781
 107485237.018 8  83754806.854 8  20453739.289                    20453747.645
 113547707.735 8  88478792.613 7  21607408.664                    21607419.777
 114176803.764 7  88969068.21245  21727102.016                    21727109.133
 114249608.424 8  89025692.14945  21740976.047                    21740985.348
 11  8 22  2 14  0.0000000  0  9G15G26G10G29G12G05G25G02G30
 127878501.214 6  99645737.830 6  24334495.055                    24334506.121
 123127417.008 6  95943453.65043  23430360.211                    23430371.570
 125514918.076 6  97803815.66743  23884644.188                    23884655.496
 117839963.974 6  91823425.179 6  22424208.922                    22424218.422
 113582940.286 7  88506289.718 7  21614121.578                    21614130.043
 107517990.096 8  83780328.741 8  20459972.305                    20459980.492
 113554473.821 8  88484064.884 7  21608695.953                    21608707.426
 114215712.552 7  88999386.74245  21734506.516                    21734512.688
 114269919.216 8  89041518.71445  21744840.445                    21744850.617
 11  8 22  2 14 30.0000000  0  9G15G26G10G29G12G05G25G02G30
 127783839.390 6  99571975.534 6  24316482.023                    24316492.781
 123034335.746 6  95870922.87243  23412647.641                    23412658.805
 125621313.627 7  97886721.30443  23904890.883                    23904901.148
 117759235.456 6  91760519.890 6  22408846.656                    22408855.754
 113649733.530 8  88558336.386 7  21626831.656                    21626840.816
 107551236.799 8  83806235.280 8  20466298.398                    20466306.773
 113561808.366 8  88489780.093 7  21610091.711                    21610102.922
 114254703.722 7  89029769.47845  21741925.867                    21741932.410
 114290793.442 7  89057784.40645  21748812.445                    21748822.832
 11  8 22  2 15  0.0000000  0  9G15G26G10G29G12G05G25G02G30
 127689086.616 6  99498142.342 6  24298450.313                    24298462.230
 122941368.466 6  95798480.85943  23394955.508                    23394967.219
 125727828.333 7  97969719.81843  23925160.156                    23925169.785
 117678605.433 6  91697691.383 6  22393503.023                    22393513.168
 113716924.260 7  88610692.777 7  21639618.016                    21639626.891
 107584975.014 8  83832524.795 8  20472719.031                    20472727.668
 113569710.283 8  88495937.450 7  21611595.180                    21611606.473
 114293776.774 7  89060216.00345  21749360.953                    21749368.113
 114312229.422 7  89074487.75045  21752891.898                    21752901.754
 11  8 22  2 15 30.0000000  0  9G15G26G10G29G12G05G25G02G30
 127594245.214 6  99424240.090 6  24280402.539                    24280414.301
 122848518.815 6  95726130.57643  23377286.281                    23377298.391
 125834459.991 7  98052809.45943  23945450.758                    23945460.938
 117598075.791 6  91634941.088 6  22378178.133                    22378188.820
 113784509.760 8  88663356.787 7  21652479.273                    21652487.816
 107619202.875 8  83859195.867 8  20479231.969                    20479241.023
 113578178.752 8  88502536.259 7  21613206.977                    21613218.473
 114332931.640 8  89090726.27945  21756812.695                    21756818.859
 114334225.467 7  89091627.53745  21757077.852                    21757087.316
 11  8 22  2 16  0.0000000  0  9G15G26G10G29G12G05G25G02G30
 127499317.842 6  99350270.789 5  24262339.422                    24262349.313
 122755790.389 6  95653874.70443  23359641.234                    23359652.895
 125941206.027 6  98135988.15243  23965763.492                    23965773.953
 117517648.557 6  91572270.582 6  22362873.586                    22362884.059
 113852487.755 8  88716326.628 7  21665414.984                    21665423.375
 107653918.679 8  83886247.150 8  20485838.586                    20485847.082
 113587213.226 8  88509576.121 7  21614926.031                    21614937.844
 114372168.557 8  89121300.52045  21764279.297                    21764285.945
 114356780.319 8  89109202.75246  21761370.484                    21761379.336
 11  8 22  2 16 30.0000000  0  9G15G26G10G29G12G05G25G02G30
 127404307.274 6  99276236.665 5  24244258.445                    24244268.160
 122663186.638 6  95581716.03043  23342019.969                    23342030.391
 126048063.252 6  98219253.53943  23986098.813                    23986109.063
 117437325.323 6  91509681.083 6  22347589.063                    22347599.145
 113920855.546 8  88769600.225 7  21678425.242                    21678433.734
 107689119.865 8  83913676.667 8  20492536.820                    20492545.242
 113596812.549 8  88517056.125 7  21616752.617                    21616764.148
 114411487.352 8  89151938.53145  21771761.117                    21771767.898
 114379892.123 8  89127211.93245  21765768.055                    21765776.828
 11  8 22  2 17  0.0000000  0  9G15G26G10G29G12G05G25G02G30
 127309216.680 6  99202140.237 5  24226162.641                    24226172.570
 122570711.560 6  95509657.56843  23324422.078                    23324432.582
 126155029.785 6  98302604.05843  24006453.141                    24006463.566
 117357108.875 6  91447174.814 6  22332324.641                    22332334.285
 113989610.894 7  88823175.793 7  21691509.188                    21691517.762
 107724806.059 8  83941484.097 8  20499327.445                    20499336.609
 113606976.437 8  88524976.025 7  21618687.141                    21618698.109
 114450888.226 7  89182640.53045  21779259.094                    21779265.664
 114403559.867 8  89145654.31145  21770271.852                    21770280.910
 11  8 22  2 17 30.0000000  0  9G15G26G10G29G12G05G25G02G30
 127214048.276 6  99127983.194 6  24208053.414                    24208063.703
 122478368.522 6  95437702.03943  23306849.773                    23306859.379
 126262102.791 6  98386037.56943  24026828.547                    24026840.004
 117277000.920 6  91384753.100 6  22317080.516                    22317090.148
 114058750.467 7  88877050.759 7  21704665.344                    21704674.352
 107760974.475 8  83969667.292 8  20506210.422                    20506218.809
 113617703.687 8  88533334.936 7  21620728.078                    21620739.453
 114490370.949 7  89213406.30245  21786772.078                    21786779.273
 114427781.550 8  89164528.33845  21774881.047                    21774890.016
 11  8 22  2 18  0.0000000  0  9G15G26G10G29G12G05G25G02G30
 127118804.593 6  99053767.484 6  24189929.234                    24189939.238
 122386160.876 6  95365852.04443  23289304.117                    23289312.922
 126369279.815 6  98469552.15143  24047224.016                    24047235.066
 117197003.209 6  91322417.285 6  22301856.836                    22301866.930
 114128271.781 7  88931223.186 7  21717894.609                    21717903.871
 107797623.234 8  83998224.795 8  20513184.281                    20513192.684
 113628993.301 8  88542132.045 7  21622876.547                    21622887.699
 114529935.382 7  89244235.72345  21794301.328                    21794307.988
 114452555.596 8  89183832.79345  21779595.320                    21779605.246
 11  8 22  2 18 30.0000000  0  9G15G26G10G29G12G05G25G02G30
 127023488.328 6  98979495.258 6  24171791.039                    24171802.172
 122294092.282 6  95294110.32743  23271784.156                    23271792.719
 126476558.002 6  98553145.55143  24067638.266                    24067649.504
 117117117.419 6  91260168.672 6  22286655.664                    22286664.242
 114198171.560 8  88985690.536 7  21731196.711                    21731205.188
 107834750.070 8  84027154.802 8  20520249.492                    20520257.703
 113640844.163 8  88551366.477 7  21625131.898                    21625142.898
 114569581.319 8  89275128.70345  21801845.383                    21801851.414
 114477879.995 8  89203566.09245  21784414.211                    21784423.793
 11  8 22  2 19  0.0000000  0  9G15G26G10G29G12G05G25G02G30
 126928102.297 6  98905168.684 6  24153639.969                    24153651.086
 122202166.480 6  95222479.91743  23254292.094                    23254300.910
 126583935.045 6  98636816.00043  24088071.148                    24088082.098
 117037345.903 6  91198009.124 6  22271475.375                    22271484.598
 114268447.551 7  89040451.015 7  21744569.633                    21744578.539
 107872353.248 8  84056455.993 8  20527404.930                    20527413.246
 113653255.665 8  88561037.756 7  21627493.625                    21627504.613
 114609309.269 7  89306085.55345  21809405.273                    21809411.406
 114503753.456 7  89223727.23845  21789338.336                    21789347.531
 11  8 22  2 19 30.0000000  0  9G15G26G10G29G12G05G25G02G30
 126832648.932 7  98830789.608 6  24135475.547                    24135486.918
 122110386.811 6  95150963.32843  23236825.508                    23236835.375
 126691407.940 6  98720561.07343  24108522.352                    24108533.809
 116957690.644 6  91135940.167 6  22256316.953                    22256326.777
 114339096.569 7  89095502.165 7  21758014.016                    21758022.434
 107910430.380 8  84086126.495 8  20534650.844                    20534659.949
 113666226.264 8  88571144.723 7  21629962.031                    21629973.199
 114649118.724 8  89337105.93545  21816980.695                    21816987.641
 114530173.760 8  89244314.48445  21794365.852                    21794375.301
 11  8 22  2 20  0.0000000  0  9G15G26G10G29G12G05G25G02G30
 126737131.077 6  98756360.260 6  24117298.219                    24117309.809
 122018757.116 6  95079563.62443  23219388.852                    23219398.180
 126798974.656 6  98804379.29943  24128991.383                    24129003.012
 116878154.056 6  91073963.659 6  22241180.961                    22241191.125
 114410116.114 7  89150842.060 7  21771528.211                    21771537.109
 107948980.234 8  84116165.356 8  20541986.328                    20541994.742
 113679755.455 8  88581686.949 7  21632536.648                    21632548.098
 114689010.066 7  89368190.14745  21824571.578                    21824578.871
 114557139.808 8  89265326.99545  21799497.211                    21799506.723
 11  8 22  2 20 30.0000000  0  9G15G26G10G29G12G05G25G02G30
 126641551.453 6  98681882.761 5  24099110.352                    24099120.938
 121927280.970 6  95008283.54843  23201980.992                    23201990.754
 126906632.600 6  98888268.59543  24149478.406                    24149489.863
 116798737.794 6  91012080.883 6  22226069.641                    22226078.738
 114481503.541 7  89206468.621 7  21785112.719                    21785121.793
 107988000.389 8  84146570.681 8  20549411.891                    20549420.453
 113693841.963 8  88592663.440 7  21635216.930                    21635228.375
 114728982.751 7  89399337.71745  21832177.906                    21832185.949
 114584649.294 8  89286762.94145  21804731.531                    21804741.203
 11  8 22  2 21  0.0000000  0  9G15G26G10G29G12G05G25G02G30
 126545912.456 7  98607358.988 6  24080911.563                    24080921.750
 121835961.822 6  94937125.84143  23184603.469                    23184613.805
 127014379.065 6  98972226.85043  24169981.742                    24169992.844
 116719443.556 7  90950293.222 6  22210980.203                    22210989.801
 114553255.661 7  89262379.340 7  21798766.742                    21798776.117
 108027488.329 8  84177340.517 8  20556926.289                    20556935.027
 113708484.448 8  88604073.164 7  21638003.508                    21638015.051
 114769036.783 7  89430548.65745  21839800.602                    21839807.980
 114612700.481 7  89308621.00245  21810070.094                    21810079.477
 11  8 22  2 21 30.0000000  0  9G15G26G10G29G12G05G25G02G30
 126450217.291 7  98532791.442 6  24062700.242                    24062711.145
 121744803.413 6  94866093.35043  23167256.922                    23167266.629
 127122211.667 6  99056252.24342  24190502.156                    24190512.414
 116640273.965 7  90888602.667 7  22195914.117                    22195923.867
 114625369.913 8  89318572.241 7  21812489.930                    21812498.363
 108067442.805 8  84208473.873 8  20564529.336                    20564537.883
 113723682.042 8  88615915.447 7  21640895.188                    21640907.020
 114809172.552 8  89461823.30145  21847438.211                    21847445.313
 114641291.546 8  89330899.75845  21815510.422                    21815519.750
 11  8 22  2 22  0.0000000  0  9G15G26G10G29G12G05G25G02G30
 126354468.421 7  98458182.064 6  24044481.141                    24044491.133
 121653809.135 6  94795188.73243  23149941.273                    23149951.336
 127230128.001 6  99140342.91843  24211037.977                    24211048.555
 116561231.128 7  90827010.883 7  22180873.039                    22180882.906
 114697843.787 7  89375045.361 7  21826281.336                    21826289.734
 108107861.808 8  84239969.203 8  20572220.938                    20572229.426
 113739433.890 8  88628189.620 7  21643892.484                    21643904.340
 114849390.133 8  89493161.69245  21855091.375                    21855097.836
 114670421.029 7  89353598.04945  21821053.727                    21821062.652
 11  8 22  2 22 30.0000000  0  9G15G26G10G29G12G05G25G02G30
 126258668.626 6  98383533.026 6  24026249.430                    24026261.523
 121562983.096 5  94724415.19942  23132656.859                    23132666.992
 127338125.450 6  99224496.78943  24231589.008                    24231599.367
 116482317.151 7  90765519.510 7  22165856.539                    22165866.121
 114770674.235 7  89431796.333 7  21840139.977                    21840148.723
 108148743.071 8  84271824.752 8  20580000.039                    20580008.734
 113755738.697 8  88640894.653 7  21646995.477                    21647007.066
 114889689.454 8  89524563.75145  21862759.711                    21862766.641
 114700086.934 7  89376714.32845  21826698.734                    21826708.074
 11  8 22  2 23  0.0000000  0  9G15G26G10G29G12G05G25G02G30
 126162820.558 6  98308846.416 6  24008009.367                    24008021.965
 121472328.540 6  94653775.38742  23115407.141                    23115416.230
 127446201.374 6  99308711.80843  24252155.133                    24252165.750
 116403533.921 7  90704130.004 7  22150864.148                    22150874.465
 114843858.182 7  89488822.774 7  21854066.445                    21854075.488
 108190084.212 8  84304038.641 8  20587867.414                    20587875.164
 113772595.110 8  88654029.518 7  21650203.055                    21650214.621
 114930070.556 7  89556029.60445  21870443.609                    21870451.031
 114730287.240 8  89400247.00245  21832445.859                    21832454.551
 11  8 22  2 23 30.0000000  0  9G15G26G10G29G12G05G25G02G30
 126066927.062 7  98234124.374 6  23989762.109                    23989773.332
 121381849.29015  94583272.15752  23098189.172                    23098198.730
 127554353.545 6  99392986.20343  24272735.289                    24272746.016
 116324883.598 7  90642844.068 7  22135897.383                    22135907.359
 114917393.121 7  89546122.695 7  21868059.320                    21868069.031
 108231883.469 8  84336609.501 8  20595821.227                    20595829.656
 113790002.127 8  88667593.399 7  21653515.820                    21653527.348
 114970533.336 7  89587559.06145  21878143.266                    21878150.570
 114761020.179 7  89424194.74645  21838294.383                    21838303.949
 11  8 22  2 24  0.0000000  0  9G15G26G10G29G12G05G25G02G30
 125970991.346 7  98159369.420 6  23971506.000                    23971516.914
 121291549.02515  94512908.38052  23081005.758                    23081015.723
 127662579.531 6  99477318.14343  24293330.992                    24293340.707
 116246368.391 7  90581663.412 7  22120956.563                    22120966.344
 114991276.339 7  89603694.004 7  21882118.797                    21882128.559
 108274139.143 8  84369536.002 8  20603862.305                    20603870.316
 113807958.675 8  88681585.502 7  21656933.219                    21656944.914
 115011078.006 8  89619152.35245  21885859.211                    21885865.621
 114792284.005 7  89448556.15945  21844243.258                    21844253.191
 11  8 22  2 24 30.0000000  0  8G15G10G29G12G05G25G02G30
 125875015.486 7  98084583.184 6  23953242.633                    23953253.367
 127770876.914 6  99561705.72943  24313938.594                    24313949.539
 116167989.768 7  90520589.178 7  22106041.891                    22106050.980
 115065504.569 7  89661534.157 7  21896244.844                    21896254.406
 108316848.398 8  84402815.961 8  20611989.898                    20611997.875
 113826463.041 8  88696004.473 7  21660453.969                    21660465.918
 115051704.237 8  89650809.16245  21893589.547                    21893597.219
 114824076.307 7  89473329.36245  21850293.547                    21850303.430
 11  8 22  2 25  0.0000000  0  9G15G26G10G29G12G05G25G02G30
 125779002.336 7  98009767.863 6  23934971.563                    23934982.543
 121111500.35115                  23046742.906
 127879242.978 6  99646146.79442  24334560.617                    24334570.625
 116089750.188 7  90459623.315 6  22091152.625                    22091162.160
 115140075.013 7  89719640.995 7  21910434.695                    21910444.164
 108360009.225 8  84436447.778 8  20620202.703                    20620211.211
 113845514.057 8  88710849.415 7  21664079.180                    21664090.477
 115092412.529 8  89682529.90945  21901336.961                    21901342.785
 114856395.210 7  89498512.91545  21856443.078                    21856453.242
 11  8 22  2 25 30.0000000  0  9G15G26G10G29G12G05G25G02G30
 125682955.185 7  97934926.035 6  23916694.289                    23916705.168
 121021763.36314                  23029664.445
 127987675.271 6  99730639.43242  24355194.109                    24355204.684
 116011652.135 7  90398767.732 7  22076292.211                    22076300.820
 115214984.868 7  89778012.294 7  21924689.547                    21924698.797
 108403619.770 8  84470430.031 7  20628501.508                    20628510.078
 113865110.664 8  88726119.497 7  21667808.313                    21667820.016
 115133202.866 8  89714314.59645  21909099.117                    21909105.637
 114889238.930 7  89524105.39845  21862693.695                    21862703.367
 11  8 22  2 26  0.0000000  0  8G15G10G29G12G05G25G02G30
 125586876.530 7  97860059.643 6  23898411.289                    23898420.781
 128096171.673 6  99815182.11643  24375840.313                    24375850.676
 115933697.361 7  90338023.786 6  22061457.602                    22061466.574
 115290231.301 7  89836645.836 7  21939008.836                    21939017.605
 108447677.960 8  84504761.094 8  20636885.422                    20636893.746
 113885251.536 8  88741813.674 7  21671640.609                    21671652.098
 115174075.206 8  89746163.17045  21916876.938                    21916883.668
 114922605.480 7  89550105.28545  21869043.078                    21869053.215
 11  8 22  2 26 30.0000000  0  9G15G26G10G29G12G05G25G02G30
 125490769.104 7  97785170.872 5  23880122.992                    23880131.297
 120842859.85615  94163251.19052  22995622.859                    22995629.293
 128204729.793 6  99899772.88343  24396498.563                    24396508.848
 115855887.869 7  90277393.045 7  22046651.164                    22046660.023
 115365811.358 8  89895539.378 7  21953390.961                    21953399.133
 108492181.595 8  84539439.262 7  20645353.695                    20645362.098
 113905935.270 8  88757930.860 7  21675577.133                    21675588.125
 115215029.624 7  89778075.71545  21924669.680                    21924676.977
 114956492.736 8  89576510.93545  21875490.813                    21875501.391
 11  8 22  2 27  0.0000000  0  9G15G26G10G29G12G05G25G02G30
 125394635.711 6  97710261.862 6  23861829.180                    23861838.477
 120753709.000 6  94093783.13643  22978656.789                    22978666.469
 128313346.750 6  99984409.53342  24417167.164                    24417179.035
 115778225.901 7  90216877.308 6  22031872.672                    22031881.309
 115441722.384 7  89954690.810 7  21967836.320                    21967845.387
 108537128.073 8  84574462.505 8  20653907.383                    20653915.551
 113927160.231 8  88774469.780 7  21679615.953                    21679627.211
 115256066.125 8  89810052.23845  21932478.695                    21932486.043
 114990898.455 7  89603320.56345  21882038.820                    21882048.641
 11  8 22  2 27 30.0000000  0  9G15G26G10G29G12G05G25G02G30
 125298479.160 6  97635334.805 6  23843531.766                    23843540.465
 120664762.758 6  94024474.41343  22961732.141                    22961740.711
 128422020.597 6 100069090.40442  24437847.992                    24437859.457
 115700713.964 6  90156478.453 7  22017122.258                    22017131.406
 115517961.046 8  90014097.535 7  21982343.789                    21982353.266
 108582515.745 8  84609829.533 8  20662544.266                    20662552.648
 113948925.339 8  88791429.600 7  21683757.609                    21683769.555
 115297184.930 8  89842092.87645  21940303.375                    21940310.008
 115025820.821 8  89630532.79845  21888684.148                    21888693.688
 11  8 22  2 28  0.0000000  0  9G15G26G10G29G12G05G25G02G30
 125202302.552 6  97560392.103 6  23825229.297                    23825239.250
 120576024.707 6  93955327.95543  22944845.063                    22944854.367
 128530748.874 6 100153813.76342  24458538.234                    24458549.266
 115623354.283 7  90096198.236 7  22002400.852                    22002410.012
 115594524.934 8  90073757.674 7  21996913.953                    21996922.777
 108628342.715 8  84645538.875 7  20671264.508                    20671272.922
 113971229.342 8  88808809.346 7  21688001.938                    21688013.586
 115338386.327 8  89874197.85445  21948144.188                    21948150.301
 115061257.857 7  89658146.05945  21895427.273                    21895437.500
 11  8 22  2 28 30.0000000  0  9G15G26G10G29G12G05G25G02G30
 125106108.084 7  97485435.492 6  23806923.719                    23806933.426
 120487497.947 6  93886346.09743  22927998.906                    22928008.691
 128639529.013 6 100238577.50842  24479237.867                    24479249.922
 115546148.314 7  90036037.795 7  21987709.195                    21987718.660
 115671410.401 8  90133668.413 7  22011544.953                    22011553.762
 108674605.709 8  84681587.985 7  20680068.336                    20680076.555
 113994070.184 8  88826607.396 7  21692348.375                    21692360.594
 115379669.984 8  89906366.92345  21955999.906                    21956006.980
 115097206.831 7  89686158.23845  21902268.305                    21902278.156
 11  8 22  2 29  0.0000000  0  9G15G26G10G29G12G05G25G02G30
 125009899.148 7  97410467.561 6  23788614.719                    23788626.590
 120399186.728 6  93817532.22043  22911192.148                    22911203.352
 128748358.604 6                  24499946.891
 115469098.632 7  89975999.183 6  21973046.914                    21973056.113
 115748615.137 8  90193827.931 7  22026236.570                    22026245.098
 108721303.189 8  84717975.628 7  20688954.422                    20688962.758
 114017446.782 8  88844822.892 7  21696797.039                    21696808.805
 115421036.311 7  89938600.43145  21963870.984                    21963878.457
 115133666.055 7  89714567.99045  21909206.328                    21909216.445
 11  8 22  2 29 30.0000000  0  9G15G26G10G29G12G05G25G02G30
 124913678.150 7  97335490.263 6  23770305.852                    23770315.504
 120311094.316 6  93748888.83543  22894429.969                    22894440.281
 128857235.103 6                  24520665.734
 115392207.434 7  89916084.004 7  21958414.773                    21958424.445
 115826135.688 8  90254233.553 7  22040988.227                    22040996.488
 108768432.548 8  84754699.821 7  20697922.883                    20697931.293
 114041357.466 8  88863454.591 7  21701347.055                    21701358.406
 115462485.043 8  89970898.13345  21971759.148                    21971766.266
 115170633.185 8  89743373.51745  21916241.336                    21916250.848
 11  8 22  2 30  0.0000000  0  9G15G26G10G29G12G05G25G02G30
 124817448.483 7  97260506.203 6  23751993.133                    23752003.996
 120223224.989 6  93680419.27943  22877709.141                    22877718.426
 128966156.749 6                  24541394.234
 115315476.977 7  89856294.104 7  21943813.703                    21943823.223
 115903969.854 8  90314883.531 7  22055799.891                    22055808.188
 108815992.463 8  84791759.501 7  20706973.555                    20706981.770
 114065801.039 8  88882501.532 7  21705998.367                    21706010.090
 115504016.984 8  90003260.67545  21979662.625                    21979669.270
 115208106.377 8  89772573.40545  21923371.820                    21923381.922
 11  8 22  2 30 30.0000000  0 10G15G26G10G29G12G05G25G02G30G21
 124721212.575 7  97185517.304 6  23733680.367                    23733691.215
 120135581.528 6  93612125.72443  22861030.695                    22861040.867
 129074854.93316                  24562129.055
 115238908.955 7  89796630.770 6  21929243.133                    21929252.109
 115982113.899 8  90375774.960 7  22070670.039                    22070678.301
 108863979.833 8  84829152.278 7  20716104.836                    20716113.613
 114090775.557 8  88901962.212 7  21710750.359                    21710762.211
 115545631.177 8  90035687.31545  21987581.055                    21987588.137
 115246082.995 8  89802165.55545  21930599.031                    21930608.441
 132328507.86016 103113199.08753  25181285.547                    25181297.121
 11  8 22  2 31  0.0000000  0 10G15G26G10G29G12G05G25G02G30G21
 124624974.120 6  97110526.416 6  23715366.219                    23715377.438
 120048168.920 6  93544012.04844  22844396.563                    22844406.945
 129183859.919 6                  24582871.945
 115162506.608 7  89737096.539 7  21914703.930                    21914713.551
 116060565.979 8  90436906.415 7  22085598.313                    22085607.840
 108912393.584 8  84866877.287 7  20725317.938                    20725326.301
 114116280.512 8  88921836.202 7  21715604.352                    21715615.883
 115587329.433 7  90068179.45045  21995516.320                    21995523.051
 115284561.842 7  89832149.05745  21937920.945                    21937930.449
 132272674.677 6 103069692.77043  25170661.438                    25170673.066
 11  8 22  2 31 30.0000000  0  9G15G26G29G12G05G25G02G30G21
 124528736.806 6  97035536.404 6  23697052.430                    23697063.016
 119960991.607 6  93476081.69944  22827807.898                    22827817.152
 115086272.893 7  89677693.694 6  21900197.734                    21900206.250
 116139323.919 8  90498276.204 7  22100585.648                    22100595.457
 108961231.907 8  84904933.137 8  20734611.328                    20734620.426
 114142315.008 8  88942122.824 7  21720558.773                    21720569.680
 115629112.400 7  90100737.59245  22003467.289                    22003474.113
 115323541.391 7  89862522.74545  21945338.969                    21945347.945
 132216850.382 7 103026193.40943  25160038.930                    25160049.977
 11  8 22  2 32  0.0000000  0  9G15G26G29G12G05G25G02G30G21
 124432501.891 6  96960548.270 6  23678739.844                    23678749.297
 119874051.442 7  93408336.16044  22811263.172                    22811272.582
 115010208.538 7  89618422.813 6  21885723.281                    21885731.855
 116218383.349 8  90559880.943 7  22115630.234                    22115640.145
 109010491.138 8  84943316.958 7  20743985.125                    20743993.684
 114168875.816 8  88962819.550 7  21725613.328                    21725624.234
 115670978.632 8  90133360.60645  22011434.227                    22011441.082
 115363017.674 7  89893283.48745  21952850.703                    21952859.941
 132161032.626 7 102982699.15943  25149417.383                    25149428.277
 11  8 22  2 32 30.0000000  0  9G15G26G29G12G05G25G02G30G21
 124336272.147 6  96885564.192 6  23660427.477                    23660437.758
 119787351.967 7  93340778.18144  22794764.570                    22794774.051
 114934315.526 7  89559285.461 6  21871281.352                    21871290.047
 116297740.743 8  90621717.861 7  22130731.242                    22130740.953
 109060168.935 8  84982026.938 8  20753438.508                    20753447.285
 114195961.198 8  88983925.028 7  21730767.453                    21730778.918
 115712927.951 7  90166048.36745  22019417.063                    22019422.852
 115402988.348 7  89924429.47245  21960456.914                    21960466.242
 132105221.041 6 102939209.68843  25138796.367                    25138807.168
 11  8 22  2 33  0.0000000  0  9G15G26G29G12G05G25G02G30G21
 124240050.474 6  96810586.394 6  23642117.664                    23642126.746
 119700897.064 6  93273410.80744  22778312.844                    22778322.270
 114858595.841 7  89500283.157 6  21856872.055                    21856880.652
 116377393.030 7  90683784.550 7  22145888.875                    22145897.789
 109110262.770 8  85021061.108 8  20762970.828                    20762979.340
 114223569.363 8  89005437.872 7  21736020.852                    21736032.281
 115754960.605 7  90198801.05345  22027415.102                    22027421.938
 115443451.032 7  89955958.83245  21968156.492                    21968166.602
 132049414.687 6 102895724.30643  25128177.055                    25128187.410
 11  8 22  2 33 30.0000000  0  9G15G26G29G12G05G25G02G30G21
 124143839.971 7  96735617.296 6  23623809.234                    23623819.027
 119614690.426 6  93206236.83644  22761908.609                    22761917.695
 114783052.327 7  89441418.127 6  21842496.203                    21842505.613
 116457337.969 7  90746079.279 7  22161101.633                    22161110.129
 109160770.963 8  85060418.145 8  20772582.586                    20772591.613
 114251699.172 8  89027357.209 7  21741373.680                    21741385.895
 115797077.325 8  90231619.25145  22035429.797                    22035436.980
 115484403.923 8  89987870.15345  21975949.836                    21975959.070
 131993613.214 6 102852242.75343  25117557.234                    25117568.641
 11  8 22  2 34  0.0000000  0  9G15G26G29G12G05G25G02G30G21
 124047643.083 7  96660658.809 6  23605503.742                    23605513.063
 119528735.195 7  93139258.77544  22745551.250                    22745561.840
 114707686.870 7  89382691.830 6  21828154.766                    21828163.570
 116537571.583 7  90808598.969 7  22176369.836                    22176378.262
 109211690.058 8  85100095.381 8  20782271.852                    20782280.672
 114280348.099 8  89049681.052 7  21746825.133                    21746836.582
 115839277.157 8  90264502.23345  22043460.125                    22043466.988
 115525843.874 8  90020161.00145  21983836.000                    21983844.586
 131937815.599 6 102808764.07743  25106939.828                    25106951.195
 11  8 22  2 34 30.0000000  0  9G15G26G29G12G05G25G02G30G21
 123951463.329 7  96585713.657 6  23587200.813                    23587211.004
 119443035.954 7  93072480.18244  22729243.742                    22729253.648
 114632501.455 7  89324105.835 6  21813847.383                    21813856.590
 116618092.013 7  90871342.117 7  22191692.375                    22191701.250
 109263019.103 8  85140092.061 8  20792039.516                    20792047.961
 114309515.274 8  89072408.734 7  21752375.828                    21752387.086
 115881561.553 8  90297451.08645  22051506.703                    22051513.316
 115567769.384 8  90052830.19745  21991813.555                    21991822.719
 131882022.000 6 102765288.60543  25096323.078                    25096333.457
 11  8 22  2 35  0.0000000  0  9G15G26G29G12G05G25G02G30G21
 123855303.508 6  96510784.064 6  23568901.406                    23568912.281
 119357596.014 7  93005903.65944  22712985.227                    22712994.730
 114557498.860 7  89265662.276 6  21799574.906                    21799584.012
 116698895.802 7  90934306.089 7  22207068.711                    22207077.809
 109314755.475 8  85180406.129 7  20801884.555                    20801892.750
 114339198.834 8  89095538.790 7  21758024.523                    21758035.727
 115923930.145 7  90330465.56645  22059568.656                    22059575.516
 115610177.809 8  90085875.71645  21999883.797                    21999893.746
 131826231.550 6 102721815.56843  25085706.313                    25085716.410
 11  8 22  2 35 30.0000000  0  9G15G26G29G12G05G25G02G30G21
 123759166.357 7  96435872.147 6  23550607.570                    23550618.391
 119272418.669 7  92939531.75544  22696776.813                    22696786.523
 114482681.054 7  89207362.725 7  21785337.273                    21785346.590
 116779979.469 7  90997488.163 7  22222498.320                    22222507.719
 109366896.323 8  85221035.361 7  20811806.734                    20811815.207
 114369396.520 8  89119069.459 7  21763770.523                    21763781.590
 115966382.885 7  90363545.61545  22067647.727                    22067654.691
 115653066.372 7  90119295.38545  22008045.344                    22008054.867
 131770443.373 6 102678344.31343  25075090.586                    25075100.352
 11  8 22  2 36  0.0000000  0  9G15G26G29G12G05G25G02G30G21
 123663054.890 7  96360980.218 6  23532318.570                    23532329.750
 119187508.347 7  92873367.91844  22680618.016                    22680627.695
 114408050.598 7  89149209.181 7  21771135.672                    21771145.270
 116861340.859 7  91060886.640 7  22237981.156                    22237990.410
 109419440.063 8  85261978.545 7  20821805.328                    20821813.801
 114400107.246 8  89142999.910 7  21769614.672                    21769626.336
 116008920.485 7  90396691.82545  22075742.141                    22075749.441
 115696433.441 7  90153087.91745  22016297.914                    22016307.758
 131714657.356 6 102634874.71043  25064474.547                    25064484.891
 11  8 22  2 36 30.0000000  0  9G15G26G29G12G05G25G02G30G21
 123566972.035 7  96286110.578 6  23514034.742                    23514045.180
 119102868.511 7  92807414.86444  22664511.813                    22664520.938
 114333609.856 7  89091203.446 6  21756970.195                    21756979.469
 116942976.823 7  91124499.072 7  22253515.781                    22253525.195
 109472384.117 8  85303233.671 7  20831880.367                    20831888.594
 114431328.987 8  89167328.551 7  21775556.250                    21775567.309
 116051543.095 7  90429904.24345  22083852.844                    22083859.918
 115740276.255 7  90187251.16345  22024640.602                    22024650.816
 131658872.701 6 102591406.14143  25053858.000                    25053869.496
 11  8 22  2 37  0.0000000  0  9G15G26G29G12G05G25G02G30G21
 123470920.889 7  96211265.655 6  23495756.016                    23495766.844
 119018502.675 7  92741675.29044  22648457.289                    22648466.332
 114259360.642 7  89033346.945 7  21742840.906                    21742850.281
 117024884.011 7  91188322.841 7  22269102.430                    22269111.504
 109525725.984 8  85344798.762 8  20842031.430                    20842039.602
 114463059.922 8  89192053.959 7  21781594.664                    21781605.641
 116094250.651 7  90463182.84545  22091980.305                    22091986.359
 115784592.381 7  90221783.23745  22033073.461                    22033083.645
 131603088.825 6 102547938.21143  25043243.117                    25043253.793
 11  8 22  2 37 30.0000000  0  9G15G26G29G12G05G25G02G30G21
 123374904.742 7  96136447.980 6  23477485.305                    23477495.082
 118934414.914 7  92676152.41344  22632455.430                    22632465.270
 114185305.529 7  88975641.696 6  21728749.086                    21728758.016
 117107059.876 7  91252355.951 7  22284740.078                    22284748.695
 109579463.707 8  85386672.326 7  20852257.375                    20852265.836
 114495298.396 8  89217174.848 7  21787729.242                    21787740.105
 116137043.635 7  90496528.02845  22100123.484                    22100130.055
 115829379.566 8  90256682.33345  22041596.656                    22041606.305
 131547305.165 6 102504470.46743  25032627.844                    25032637.855
 11  8 22  2 38  0.0000000  0  9G15G26G29G12G05G25G02G30G21
 123278926.078 7  96061659.492 6  23459221.586                    23459229.930
 118850608.275 7  92610848.59144  22616507.828                    22616517.656
 114111446.525 7  88918089.268 7  21714693.813                    21714702.988
 117189500.822 7  91316595.620 7  22300428.266                    22300437.227
 109633594.346 8  85428852.053 7  20862557.758                    20862566.109
 114528042.207 8  89242689.507 7  21793959.742                    21793970.957
 116179922.024 7  90529939.77245  22108283.469                    22108289.387
 115874635.023 7  90291946.30345  22050208.813                    22050218.277
 131491520.959 6 102461002.25043  25022011.430                    25022022.941
 11  8 22  2 38 30.0000000  0  9G15G26G29G12G05G25G02G30G21
 123182987.813 7  95986902.494 6  23440964.641                    23440973.727
 118767086.628 7  92545766.81344  22600614.406                    22600623.652
 114037785.971 8  88860691.484 7  21700676.703                    21700685.520
 117272203.758 7  91381039.451 7  22316165.898                    22316175.328
 109688115.745 8  85471336.268 7  20872932.922                    20872941.051
 114561289.471 8  89268596.472 7  21800286.953                    21800297.828
 116222886.105 7  90563418.31545  22116458.781                    22116464.844
 115920356.224 8  90327573.20545  22058909.039                    22058918.281
 131435735.808 6 102417533.30342  25011396.586                    25011407.824
 11  8 22  2 39  0.0000000  0  9G15G26G29G12G05G25G02G30G21
 123087093.204 7  95912179.498 6  23422715.828                    23422724.527
 118683853.867 7  92480910.16944  22584775.570                    22584785.336
 113964326.582 8  88803450.456 7  21686697.977                    21686706.891
 117355166.550 7  91445685.749 7  22331953.367                    22331962.387
 109743026.050 8  85514123.523 7  20883381.539                    20883390.406
 114595038.596 8  89294894.495 7  21806709.305                    21806720.371
 116265936.280 8  90596963.95245  22124651.398                    22124657.242
 115966540.976 8  90363561.31345  22067697.477                    22067707.180
 131379949.536 6 102374063.48343  25000781.391                    25000791.113
 11  8 22  2 39 30.0000000  0  9G15G26G29G12G05G25G02G30G21
 122991245.107 7  95837492.788 6  23404476.672                    23404485.523
 118600913.481 7  92416281.32644  22568992.844                    22569001.832
 113891070.289 8  88746367.696 7  21672757.680                    21672766.574
 117438385.374 7  91510531.591 7  22347788.961                    22347799.281
 109798322.779 7  85557211.890 7  20893904.430                    20893912.840
 114629287.552 8  89321581.985 7  21813226.477                    21813238.219
 116309072.894 7  90630576.92345  22132859.352                    22132866.809
 116013186.618 8  90399908.57645  22076574.055                    22076583.516
 131324160.950 6 102330591.87742  24990164.344                    24990174.891
 11  8 22  2 40  0.0000000  0  9G15G26G29G12G05G25G02G30G21
 122895446.287 7  95762844.449 6  23386246.867                    23386255.563
 118518269.046 7  92351883.10244  22553266.352                    22553274.844
 113818019.212 8  88689444.847 7  21658856.273                    21658865.473
 117521857.317 7  91575574.664 7  22363673.414                    22363682.840
 109854002.877 8  85600598.980 7  20904499.758                    20904508.293
 114664034.148 8  89348657.253 7  21819838.820                    21819850.051
 116352295.613 7  90664257.00145  22141084.648                    22141091.574
 116060290.414 7  90436612.85245  22085536.859                    22085546.219
 131268369.677 6 102287118.21342  24979547.969                    24979557.918
 11  8 22  2 40 30.0000000  0  9G15G26G29G12G05G25G02G30G21
 122799699.776 7  95688236.830 6  23368026.898                    23368035.914
 118435924.104 7  92287718.25644  22537595.727                    22537605.266
 113745175.663 8  88632683.714 7  21644994.039                    21645003.852
 117605579.141 7  91640812.434 7  22379605.031                    22379613.949
 109910064.181 7  85644283.107 7  20915168.211                    20915176.020
 114699276.382 8  89376118.733 7  21826544.977                    21826556.363
 116395604.813 8  90698004.45545  22149326.023                    22149333.313
 116107849.718 7  90473672.06145  22094586.672                    22094596.418
 131212575.032 6 102243641.94943  24968931.078                    24968940.922
 11  8 22  2 41  0.0000000  0  9G15G26G29G12G05G25G02G30G21
 122704008.956 7  95613672.608 6  23349817.250                    23349826.301
 118353883.016 7  92223790.18544  22521983.266                    22521993.301
 113672542.471 8  88576086.479 7  21631172.852                    21631182.840
 117689548.288 7  91706242.908 7  22395583.898                    22395592.703
 109966504.665 8  85688262.703 7  20925908.742                    20925916.559
 114735012.722 8  89403965.220 7  21833345.516                    21833356.852
 116439000.966 8  90731819.65245  22157584.531                    22157590.199
 116155862.545 7  90511084.66945  22103723.656                    22103733.570
 131156776.502 6 102200162.64943  24958312.922                    24958322.809
 11  8 22  2 41 30.0000000  0  9G15G26G29G12G05G25G02G30G21
 122608376.866 7  95539154.180 6  23331618.867                    23331629.121
 118272149.197 7  92160101.54244  22506429.867                    22506440.227
 113600121.882 8  88519654.922 7  21617391.742                    21617400.992
 117773761.827 7  91771863.811 7  22411608.859                    22411618.047
 110023322.214 8  85732536.111 7  20936720.430                    20936729.004
 114771241.225 8  89432195.220 7  21840239.289                    21840251.316
 116482484.417 7  90765702.86045  22165858.695                    22165864.602
 116204326.269 7  90548848.60445  22112945.828                    22112956.359
 131100973.797 6 102156680.13543  24947693.000                    24947703.289
 11  8 22  2 42  0.0000000  0  9G15G26G29G12G05G25G02G30G21
 122512806.172 7  95464683.572 6  23313432.188                    23313442.520
 118190725.943 7  92096654.92844  22490936.289                    22490946.105
 113527915.962 8  88463390.635 7  21603651.125                    21603660.313
 117858216.651 7  91837672.746 7  22427680.773                    22427689.797
 110080514.203 8  85777101.297 7  20947603.719                    20947612.035
 114807959.544 8  89460806.901 7  21847226.570                    21847238.043
 116526055.549 7  90799654.39645  22174149.820                    22174156.168
 116253237.987 8  90586961.60545  22122254.156                    22122264.363
 131045166.215 6 102113193.85142  24937073.609                    24937082.441
 11  8 22  2 42 30.0000000  0  9G15G26G29G12G05G25G02G30G21
 122417299.740 7  95390263.053 6  23295258.008                    23295268.355
 118109616.976 7  92033453.16744  22475501.789                    22475511.367
 113455926.936 7  88407295.346 7  21589951.664                    21589960.641
 117942909.075 7  91903666.828 7  22443797.289                    22443806.770
 110138077.572 7  85821955.873 7  20958557.586                    20958565.652
 114845165.499 8  89489798.557 7  21854306.422                    21854318.355
 116569714.257 7  90833674.20945  22182457.016                    22182464.469
 116302594.928 7  90625421.52345  22131646.375                    22131656.855
 130989352.811 6 102069703.03743  24926452.195                    24926461.992
 11  8 22  2 43  0.0000000  0  9G15G26G29G12G05G25G02G30G21
 122321860.733 7  95315895.045 6  23277097.039                    23277106.809
 118028825.825 6  91970499.09544  22460128.031                    22460137.598
 113384157.100 8  88351370.855 7  21576294.242                    21576303.387
 118027836.132 7  91969843.765 7  22459957.969                    22459968.297
 110196010.066 8  85867098.073 7  20969582.109                    20969590.160
 114882857.114 8  89519168.633 7  21861479.203                    21861490.852
 116613460.791 8  90867762.42845  22190782.094                    22190789.422
 116352394.595 7  90664226.43145  22141122.859                    22141132.965
 130933533.202 6 102026207.30743  24915829.938                    24915840.566
 11  8 22  2 43 30.0000000  0  9G15G26G29G12G05G25G02G30G21
 122226492.331 7  95241582.079 6  23258948.648                    23258957.535
 117948356.409 7  91907795.70644  22444814.875                    22444824.703
 113312609.063 8  88295619.200 7  21562679.508                    21562688.465
 118112995.136 7  92036201.425 7  22476163.344                    22476173.449
 110254309.860 8  85912526.482 7  20980675.578                    20980684.070
 114921032.471 8  89548915.647 7  21868743.805                    21868755.090
 116657295.677 8  90901919.48345  22199124.109                    22199131.023
 116402634.371 7  90703374.32945  22150683.164                    22150693.195
 130877706.988 6 101982706.46343  24905206.422                    24905217.141
 11  8 22  2 44  0.0000000  0  9G15G26G29G12G05G25G02G30G21
 122131197.589 7  95167326.556 6  23240814.633                    23240823.305
 117868212.599 6  91845346.00744  22429563.516                    22429574.023
 113241285.232 8  88240042.244 7  21549107.039                    21549116.020
 118198383.404 7  92102737.739 7  22492412.078                    22492421.582
 110312974.745 8  85958239.374 7  20991839.453                    20991848.020
 114959689.679 8  89579038.149 7  21876100.109                    21876111.254
 116701219.247 8  90936145.64345  22207482.609                    22207489.371
 116453311.933 7  90742863.30845  22160326.547                    22160336.609
 130821873.788 6 101939200.18343  24894582.430                    24894592.262
 11  8 22  2 44 30.0000000  0  9G15G26G29G12G05G25G02G30G21
 122035979.308 7  95093130.547 6  23222694.336                    23222703.539
 117788397.424 7  91783152.43644  22414375.586                    22414385.125
 113170187.344 7  88184641.337 7  21535577.641                    21535586.215
 118283997.431 7  92169449.931 7  22508704.242                    22508712.754
 110372001.223 8  86004234.031 7  21003072.227                    21003080.328
 114998826.020 8  89609533.970 7  21883547.414                    21883558.641
 116745231.388 8  90970440.81545  22215857.727                    22215864.488
 116504423.927 7  90782690.81045  22170053.164                    22170062.797
 130766032.352 6 101895687.47243  24883955.461                    24883966.102
 11  8 22  2 45  0.0000000  0  9G15G26G29G12G05G25G02G30G21
 121940840.476 7  95018996.473 6  23204590.531                    23204599.406
 117708914.847 7  91721218.00044  22399250.555                    22399260.395
 113099317.766 7  88129418.366 7  21522091.742                    21522100.391
 118369833.570 7  92236335.181 7  22525038.109                    22525046.863
 110431387.418 8  86050509.005 7  21014372.883                    21014380.738
 115038439.618 8  89640401.707 7  21891085.313                    21891096.938
 116789332.600 8  91004805.38045  22224249.891                    22224256.289
 116555967.996 7  90822855.00445  22179862.219                    22179872.313
 130710182.615 6 101852168.29943  24873326.922                    24873337.855
 11  8 22  2 45 30.0000000  0  9G15G26G29G12G05G25G02G30G21
 121845784.290 7  94944926.814 6  23186501.641                    23186510.988
 117629768.391 7  91659545.45744  22384190.125                    22384198.652
 113028679.579 7  88074375.662 7  21508649.398                    21508658.355
 118455889.637 7  92303391.831 6  22541414.156                    22541422.906
 110491131.021 8  86097062.463 7  21025741.898                    21025749.988
 115078528.468 8  89671639.760 7  21898713.992                    21898725.621
 116833523.429 7  91039239.76845  22232658.914                    22232665.773
 116607941.612 7  90863353.91145  22189751.992                    22189762.090
 130654324.061 6 101808642.24642  24862697.438                    24862708.598
 11  8 22  2 46  0.0000000  0  9G15G26G29G12G05G25G02G30G21
 121750813.839 7  94870923.938 6  23168430.258                    23168439.684
 117550961.824 7  91598137.78144  22369193.641                    22369202.211
 112958274.716 7  88019514.779 7  21495251.891                    21495260.449
 118542162.043 7  92370617.065 7  22557830.867                    22557839.934
 110551229.475 8  86143892.434 7  21037177.922                    21037186.418
 115119090.341 8  89703246.416 7  21906432.695                    21906444.496
 116877803.922 7  91073744.05745  22241084.594                    22241092.453
 116660341.874 7  90904185.27345  22199723.281                    22199733.152
 130598456.137 6 101765108.94542  24852065.633                    24852077.207
 11  8 22  2 46 30.0000000  0  9G15G26G29G12G05G25G02G30G21
 121655932.564 7  94796990.550 7  23150374.664                    23150384.699
 117472499.167 7  91536998.10244  22354261.773                    22354271.555
 112888105.846 8  87964837.789 7  21481899.078                    21481907.156
 118628648.099 7  92438008.806 7  22574289.266                    22574298.699
 110611680.888 8  86190997.436 7  21048681.852                    21048689.926
 115160123.284 8  89735220.148 7  21914241.063                    21914252.496
 116922174.661 7  91108318.66745  22249528.352                    22249535.199
 116713166.431 7  90945347.26545  22209775.406                    22209785.473
 130542578.395 6 101721567.98443  24841432.063                    24841444.223
 11  8 22  2 47  0.0000000  0  9G15G26G29G12G05G25G02G30G21
 121561142.832 7  94723128.483 7  23132337.477                    23132346.594
 117394383.157 7  91476128.48544  22339396.789                    22339405.941
 112818174.556 8  87910345.928 7  21468591.711                    21468599.910
 118715344.302 7  92505564.291 7  22590786.742                    22590796.465
 110672481.926 8  86238374.868 7  21060251.320                    21060259.922
 115201624.571 8  89767558.808 7  21922138.617                    21922149.777
 116966635.454 7  91142963.42045  22257989.539                    22257995.848
 116766411.907 7  90986837.23945  22219907.617                    22219917.176
 130486689.776 6 101678018.46543  24830797.523                    24830809.148
 11  8 22  2 47 30.0000000  0  9G15G26G29G12G05G25G02G30G21
 121466447.566 7  94649340.037 7  23114317.039                    23114326.453
 117316617.716 7  91415532.06344  22324598.680                    22324608.738
 112748483.546 7  87856041.282 7  21455329.688                    21455338.551
 118802247.819 7  92573281.278 7  22607324.313                    22607333.738
 110733630.374 8  86286023.007 7  21071888.063                    21071896.234
 115243591.946 8  89800260.658 7  21930125.203                    21930136.582
 117011186.558 7  91177678.53545  22266466.578                    22266473.578
 116820075.603 7  91028653.10445  22230119.930                    22230129.000
 130430789.845 6 101634460.20743  24820160.922                    24820170.957
 11  8 22  2 48  0.0000000  0  9G15G26G29G12G05G25G02G30G21
 121371850.113 7  94575627.810 7  23096315.188                    23096325.543
 117239206.171 7  91355211.39645  22309868.625                    22309877.996
 112679035.040 7  87801925.601 7  21442114.289                    21442122.527
 118889355.345 7  92641157.246 7  22623899.039                    22623909.438
 110795123.730 8  86333939.910 7  21083589.789                    21083598.539
 115286023.187 8  89833323.952 7  21938199.133                    21938210.504
 117055828.365 7  91212464.33045  22274962.406                    22274968.453
 116874154.729 7  91070792.66745  22240410.938                    22240419.516
 130374877.857 6 101590892.55743  24809520.797                    24809530.551
 11  8 22  2 48 30.0000000  0  9G15G26G29G12G05G25G02G30G21
 121277353.923 7  94501994.527 7  23078333.063                    23078343.613
 117162152.656 7  91295169.67445  22295204.797                    22295214.652
 112609831.759 7  87748001.009 7  21428944.984                    21428954.207
 118976664.238 7  92709190.106 7  22640513.867                    22640523.723
 110856960.101 8  86382124.088 7  21095356.930                    21095365.445
 115328916.472 8  89866747.278 7  21946361.156                    21946372.762
 117100561.394 7  91247321.21945  22283474.422                    22283481.598
 116928646.966 7  91113254.13245  22250780.203                    22250788.754
 130318953.791 6 101547315.46943  24798879.523                    24798888.465
 11  8 22  2 49  0.0000000  0  9G15G26G29G12G05G25G02G30G21
 121182961.656 7  94428442.171 7  23060370.453                    23060380.848
 117085460.910 7  91235409.90145  22280611.195                    22280621.113
 112540876.161 7  87694269.402 7  21415822.977                    21415832.082
 119064171.485 7  92777377.513 7  22657166.016                    22657175.930
 110919136.935 8  86430573.572 7  21107188.711                    21107196.441
 115372269.467 8  89900528.830 7  21954611.070                    21954622.656
 117145386.277 7  91282249.70645  22292004.703                    22292011.910
 116983549.510 7  91156035.30245  22261227.781                    22261236.891
 130263016.937 6 101503728.44943  24788233.727                    24788243.238
 11  8 22  2 49 30.0000000  0  9G15G26G29G12G05G25G02G30G21
 121088676.486 7  94354973.245 6  23042428.109                    23042438.203
 117009133.997 7  91175934.39445  22266086.602                    22266096.238
 112472170.158 7  87640732.287 7  21402748.742                    21402757.656
 119151873.548 7  92845716.757 7  22673855.242                    22673865.152
 110981651.340 8  86479286.098 7  21119084.383                    21119092.730
 115416079.550 8  89934666.539 7  21962947.984                    21962959.793
 117190302.996 7  91317249.75045  22300552.227                    22300558.848
 117038859.056 7  91199133.66445  22271752.711                    22271762.078
 130207066.520 6 101460130.85643  24777587.148                    24777596.434
 11  8 22  2 50  0.0000000  0  9G15G26G29G12G05G25G02G30G21
 120994501.157 7  94281589.942 6  23024507.094                    23024517.016
 116933175.169 7  91116745.72745  22251631.375                    22251641.301
 112403716.184 7  87587391.527 7  21389722.305                    21389731.422
 119239767.012 7  92914205.158 7  22690580.680                    22690590.586
 111044500.639 8  86528259.570 7  21131044.352                    21131052.730
 115460344.324 8  89969158.582 7  21971371.094                    21971383.070
 117235311.782 8  91352321.54845  22309116.945                    22309123.793
 117094572.861 7  91242547.01145  22282354.680                    22282364.652
 130151102.032 6 101416522.33843  24766937.469                    24766946.145
 11  8 22  2 50 30.0000000  0  9G15G26G29G12G05G25G02G30G21
 120900438.986 7  94208294.811 6  23006608.609                    23006617.090
 116857588.600 7  91057847.13845  22237248.313                    22237257.699
 112335516.581 7  87534248.988 7  21376744.281                    21376753.547
 119327849.374 7  92982840.732 7  22707343.258                    22707352.289
 111107682.743 8  86577492.387 7  21143067.430                    21143076.270
 115505061.513 8  90004003.138 7  21979880.563                    21979892.109
 117280412.909 8  91387465.27845  22317699.242                    22317705.805
 117150688.053 7  91286273.13845  22293033.859                    22293043.680
 130095123.344 6 101372902.69342  24756283.984                    24756293.844
 11  8 22  2 51  0.0000000  0  9G15G26G29G12G05G25G02G30G21
 120806493.578 7  94135090.651 6  22988730.383                    22988740.301
 116782377.993 7  90999241.52945  22222936.188                    22222945.418
 112267574.189 7  87481306.894 7  21363815.281                    21363824.129
 119416117.933 7  93051621.390 6  22724139.672                    22724148.629
 111171195.503 8  86626982.854 7  21155153.719                    21155161.949
 115550229.262 8  90039198.773 7  21988475.828                    21988487.324
 117325607.409 8  91422681.73245  22326299.320                    22326306.031
 117207202.397 7  91330310.29445  22303787.625                    22303798.090
 130039129.665 6 101329271.36442  24745628.641                    24745638.301
 11  8 22  2 51 30.0000000  0  9G15G26G29G12G05G25G02G30G21
 120712667.571 7  94061979.547 7  22970876.227                    22970885.910
 116707546.745 7  90940931.51945  22208695.797                    22208705.441
 112199891.145 7  87428566.860 7  21350935.430                    21350944.309
 119504569.240 7  93120544.485 6  22740971.109                    22740979.973
 111235036.392 8  86676729.007 7  21167302.328                    21167310.445
 115595844.993 8  90074743.484 7  21997156.086                    21997167.910
 117370895.343 8  91457970.99045  22334917.953                    22334924.102
 117264112.726 7  91374655.99245  22314617.094                    22314627.371
 129983120.515 6 101285628.03043  24734970.633                    24734980.316
 11  8 22  2 52  0.0000000  0 10G15G26G18G29G12G05G25G02G30G21
 120618964.093 7  93988963.917 7  22953045.234                    22953055.012
 116633098.439 7  90882919.90845  22194529.008                    22194538.770
 129694104.88215                  24679943.078
 112132469.651 7  87376030.641 7  21338105.773                    21338114.914
 119593200.080 7  93189607.430 6  22757837.313                    22757845.652
 111299202.766 8  86726728.784 7  21179512.289                    21179521.012
 115641906.158 8  90110635.289 7  22005921.672                    22005932.809
 117416276.793 8  91493333.13045  22343553.352                    22343560.430
 117321416.071 7  91419307.93845  22325522.117                    22325531.184
 129927095.297 6 101241972.12643  24724308.984                    24724319.398
 11  8 22  2 52 30.0000000  0 10G15G26G18G29G12G05G25G02G30G21
 120525385.401 7  93916045.515 7  22935237.406                    22935247.559
 116559035.576 7  90825208.62045  22180435.273                    22180445.270
 129604685.473 6 100990602.26352  24662925.953                    24662936.895
 112065311.475 7  87323699.627 7  21325326.156                    21325335.043
 119682006.607 7  93258807.300 6  22774736.273                    22774745.031
 111363691.081 8  86776979.423 7  21191784.000                    21191792.824
 115688409.572 8  90146871.709 7  22014770.883                    22014782.254
 117461751.361 7  91528767.85445  22352207.031                    22352214.727
 117379108.701 7  91464263.21345  22336500.305                    22336509.977
 129871052.990 6 101198302.89943  24713644.672                    24713654.715
 11  8 22  2 53  0.0000000  0 10G15G26G18G29G12G05G25G02G30G21
 120431934.601 7  93843226.759 7  22917454.852                    22917464.090
 116485362.132 7  90767800.76945  22166415.953                    22166425.629
 129515430.422 6 100921052.95742  24645941.117                    24645952.805
 111998419.143 7  87271575.737 7  21312597.031                    21312605.879
 119770986.088 7  93328141.898 6  22791669.305                    22791677.559
 111428499.516 8  86827479.506 7  21204116.750                    21204124.902
 115735353.044 8  90183451.048 7  22023703.672                    22023715.305
 117507319.687 7  91564275.64145  22360878.219                    22360885.922
 117437188.000 7  91509519.78045  22347552.570                    22347562.160
 129814992.948 6 101154619.83343  24702977.148                    24702987.402
 11  8 22  2 53 30.0000000  0 10G15G26G18G29G12G05G25G02G30G21
 120338615.878 7  93770510.941 6  22899696.148                    22899706.539
 116412082.205 7  90710699.58345  22152470.461                    22152480.828
 129426342.086 6 100851633.65043  24628988.328                    24629000.273
 111931795.805 7  87219661.465 7  21299918.992                    21299927.313
 119860136.091 7  93397609.408 6  22808633.211                    22808642.328
 111493626.005 8  86878227.420 7  21216509.703                    21216518.551
 115782734.879 8  90220371.926 7  22032719.984                    22032731.723
 117552982.877 7  91599857.33745  22369567.836                    22369574.793
 117495651.769 7  91555075.97445  22358678.102                    22358687.793
 129758915.466 6 101110923.16143  24692306.281                    24692316.313
 11  8 22  2 54  0.0000000  0 10G15G26G18G29G12G05G25G02G30G21
 120245432.070 7  93697900.211 6  22881963.695                    22881973.910
 116339199.276 7  90653907.71045  22138602.313                    22138611.191
 129337421.451 6 100782344.98743  24612066.242                    24612078.680
 111865443.473 7  87167958.379 7  21287292.453                    21287300.777
 119949453.230 7  93467207.164 6  22825630.078                    22825639.438
 111559068.269 8  86929221.409 7  21228963.117                    21228971.152
 115830552.537 8  90257632.428 7  22041819.938                    22041831.340
 117598741.133 7  91635513.13645  22378275.242                    22378281.152
 117554497.008 7  91600929.38245  22369875.609                    22369885.914
 129702819.983 7 101067212.47943  24681632.070                    24681641.180
 11  8 22  2 54 30.0000000  0 10G15G26G18G29G12G05G25G02G30G21
 120152386.456 7  93625397.201 6  22864257.914                    22864267.363
 116266717.124 7  90597428.15145  22124809.016                    22124817.898
 129248670.109 6 100713188.26843  24595176.984                    24595189.750
 111799365.138 7  87116468.779 7  21274718.555                    21274726.977
 120038935.073 7  93536933.241 7  22842658.164                    22842667.539
 111624823.996 8  86980459.640 7  21241475.891                    21241484.664
 115878803.789 8  90295230.793 7  22051001.438                    22051013.527
 117644594.914 7  91671243.32745  22387000.758                    22387006.906
 117613721.038 7  91647077.97745  22381145.367                    22381155.141
 129646706.274 6 101023487.58643  24670953.852                    24670962.637
 11  8 22  2 55  0.0000000  0 10G15G26G18G29G12G05G25G02G30G21
 120059481.903 7  93553004.143 6  22846578.258                    22846588.141
 116194638.830 7  90541263.29645  22111092.781                    22111101.750
 129160089.212 6 100644164.35343  24578322.375                    24578333.742
 111733562.980 7  87065194.405 7  21262196.117                    21262205.285
 120128578.052 7  93606784.900 7  22859716.617                    22859725.762
 111690890.389 8  87031939.964 7  21254048.023                    21254056.375
 115927485.992 7  90333164.960 7  22060265.523                    22060276.918
 117690544.606 7  91707048.26145  22395744.305                    22395751.555
 117673320.781 7  91693519.32145  22392486.461                    22392496.199
 129590573.468 6 100979747.81243  24660271.438                    24660280.242
 11  8 22  2 55 30.0000000  0 10G15G26G18G29G12G05G25G02G30G21
 119966721.657 7  93480723.499 6  22828926.773                    22828935.484
 116122968.044 7  90485415.97045  22097454.492                    22097463.664
 129071679.720 6 100575273.98543  24561498.188                    24561509.984
 111668039.051 7  87014136.844 7  21249726.961                    21249736.363
 120218379.242 7  93676759.819 6  22876805.898                    22876813.977
 111757264.822 8  87083660.310 7  21266678.719                    21266686.934
 115976596.464 8  90371432.822 7  22069610.758                    22069621.727
 117736590.524 7  91742928.18445  22404507.258                    22404513.988
 117733293.003 7  91740250.90744  22403899.148                    22403908.730
 129534420.781 6 100935992.53243  24649585.914                    24649593.859
 11  8 22  2 56  0.0000000  0 10G15G26G18G29G12G05G25G02G30G21
 119874108.505 7  93408557.455 6  22811303.773                    22811312.273
 116051708.169 7  90429888.83545  22083893.758                    22083903.152
 128983442.786 6 100506518.08543  24544706.805                    24544719.227
 111602795.699 7  86963297.900 7  21237312.352                    21237320.809
 120308335.467 7  93746855.566 6  22893923.352                    22893931.746
 111823944.950 8  87135618.858 7  21279367.320                    21279375.797
 116026132.653 8  90410032.425 7  22079036.938                    22079048.996
 117782732.919 7  91778883.30645  22413287.469                    22413294.883
 117793634.837 7  91787270.52545  22415381.719                    22415392.227
 129478248.078 6 100892221.60542  24638896.672                    24638903.707
 11  8 22  2 56 30.0000000  0 10G15G26G18G29G12G05G25G02G30G21
 119781645.648 7  93336508.533 6  22793708.203                    22793716.984
 115980862.106 7  90374684.13045  22070412.469                    22070421.164
 128895379.956 6 100437897.88543  24527949.023                    24527961.379
 111537835.020 7  86912679.233 7  21224950.133                    21224958.887
 120398443.074 7  93817069.222 6  22911070.023                    22911079.070
 111890927.990 8  87187813.435 7  21292113.969                    21292122.059
 116076091.871 8  90448961.669 7  22088544.242                    22088556.172
 117828971.903 7  91814913.71945  22422086.656                    22422093.539
 117854343.040 7  91834575.62944  22426934.016                    22426944.000
 129422054.551 6 100848434.44842  24628203.469                    24628210.188
 11  8 22  2 57  0.0000000  0 10G15G26G18G29G12G05G25G02G30G21
 119689336.336 7  93264579.256 6  22776142.453                    22776151.363
 115910434.149 7  90319805.24645  22057010.102                    22057019.664
 128807492.492 6 100369414.27543  24511223.195                    24511236.039
 111473159.968 7  86862283.160 7  21212642.563                    21212651.758
 120488699.633 7  93887398.970 7  22928244.703                    22928254.961
 111958211.811 8  87240242.399 7  21304917.422                    21304926.375
 116126472.023 8  90488218.929 7  22098130.938                    22098143.594
 117875308.425 7  91851020.10745  22430904.438                    22430911.441
 117915415.192 7  91882164.30345  22438555.703                    22438565.699
 129365839.886 6 100804630.87542  24617505.109                    24617512.910
 11  8 22  2 57 30.0000000  0 10G15G26G18G29G12G05G25G02G30G21
 119597183.439 7  93192771.885 7  22758606.375                    22758615.301
 115840427.486 7  90265254.64645  22043687.953                    22043697.883
 128719781.648 5 100301068.29342  24494531.516                    24494544.914
 111408772.703 7  86812111.315 7  21200389.914                    21200398.875
 120579101.915 7  93957842.281 7  22945448.320                    22945458.176
 112025793.915 8  87292903.778 7  21317777.891                    21317786.652
 116177270.274 8  90527801.951 7  22107797.891                    22107809.910
 117921742.939 7  91887202.82645  22439740.563                    22439746.789
 117976847.932 7  91930033.95745  22450246.703                    22450255.992
 129309603.636 6 100760810.45242  24606803.836                    24606812.465
 11  8 22  2 58  0.0000000  0 10G15G26G18G29G12G05G25G02G30G21
 119505190.864 7  93121089.404 7  22741100.094                    22741110.387
 115770846.202 7  90211035.46645  22030447.383                    22030456.824
 128632249.340 5                  24477875.359
 111344676.447 7  86762166.189 7  21188193.391                    21188202.227
 120669647.714 7  94028397.461 6  22962679.227                    22962688.949
 112093672.608 8  87345796.280 7  21330694.813                    21330703.238
 116228484.868 8  90567709.412 7  22117544.172                    22117555.344
 117968275.921 7  91923462.29345  22448595.328                    22448601.566
 118038639.096 7  91978182.89945  22462004.688                    22462014.270
 129253345.812 6 100716973.31042  24596099.242                    24596107.305
 11  8 22  2 58 30.0000000  0 10G15G26G18G29G12G05G25G02G30G21
 119413361.272 7  93049533.914 7  22723625.859                    22723635.375
 115701693.094 8  90157149.93445  22017287.891                    22017297.266
 128544896.124 6 100164783.11852  24461253.281                    24461263.633
 111280873.192 7  86712449.404 7  21176051.945                    21176060.961
 120760333.414 7  94099061.616 7  22979935.859                    22979946.551
 112161844.727 8  87398917.420 7  21343667.844                    21343675.840
 116280112.641 8  90607938.824 7  22127368.141                    22127379.824
 118014907.420 7  91959798.50745  22457469.102                    22457475.699
 118100785.112 7  92026608.34345  22473831.016                    22473840.340
 129197065.580 6 100673118.70543  24585388.930                    24585397.988
 11  8 22  2 59  0.0000000  0 10G15G26G18G29G12G05G25G02G30G21
 119321697.417 7  92978107.573 7  22706182.375                    22706192.375
 115632971.148 7  90103600.40545  22004211.211                    22004220.352
 128457722.745 6 100096855.98842  24444665.063                    24444675.699
 111217364.476 7  86662962.121 7  21163966.617                    21163975.848
 120851155.067 7  94169831.712 6  22997218.914                    22997227.824
 112230307.204 8  87452264.829 7  21356695.648                    21356704.301
 116332150.511 8  90648487.787 7  22137270.313                    22137282.023
 118061637.531 8  91996211.56445  22466361.406                    22466367.938
 118163282.547 7  92075307.60345  22485723.641                    22485733.891
 129140761.843 6 100629245.73943  24574675.188                    24574684.117
 11  8 22  2 59 30.0000000  0 10G15G26G18G29G12G05G25G02G30G21
 119230202.219 7  92906812.661 7  22688772.305                    22688781.641
 115564683.711 7  90050389.44145  21991216.047                    21991224.934
 128370730.331 6 100029069.83943  24428110.250                    24428121.477
 111154152.512 7  86613706.075 7  21151938.094                    21151946.965
 120942109.822 7  94240705.536 6  23014526.211                    23014535.211
 112299057.492 8  87505836.493 7  21369778.344                    21369786.602
 116384595.762 8  90689354.197 7  22147250.727                    22147262.008
 118108466.555 7  92032701.68845  22475273.125                    22475279.313
 118226128.139 7  92124278.20944  22497682.352                    22497692.531
 129084434.314 6 100585354.24143  24563956.609                    24563965.125
 11  8 22  3  0  0.0000000  0 10G15G26G18G29G12G05G25G02G30G21
 119138879.495 7  92835652.135 7  22671394.492                    22671402.824
 115496834.879 7  89997520.26545  21978305.125                    21978313.684
 128283920.737 6  99961426.15542  24411590.594                    24411601.621
 111091240.506 7  86564683.738 7  21139966.195                    21139974.813
 121033195.141 7  94311681.071 6  23031859.336                    23031867.488
 112368094.000 8  87559631.190 7  21382916.016                    21382924.297
 116437446.466 8  90730536.553 7  22157307.391                    22157319.785
 118155395.504 7  92069269.69745  22484203.102                    22484209.203
 118289319.644 7  92173518.34745  22509707.625                    22509717.938
 129028082.786 7 100541444.02544  24553232.883                    24553241.859
 11  8 22  3  0 30.0000000  0 10G15G26G18G29G12G05G25G02G30G21
 119047731.898 7  92764628.076 7  22654049.766                    22654058.012
 115429427.595 7  89944995.14045  21965477.477                    21965486.559
 128197295.237 6  99893925.88443  24395106.695                    24395117.074
 111028630.488 7  86515896.726 7  21128051.914                    21128060.738
 121124408.113 7  94382756.053 6  23049216.852                    23049226.336
 112437413.726 8  87613646.563 7  21396106.781                    21396115.371
 116490699.626 8  90772032.489 7  22167441.555                    22167453.609
 118202424.416 7  92105915.60445  22493152.586                    22493158.328
 118352853.637 7  92223025.33245  22521798.070                    22521808.246
 128971706.590 7 100497514.60644  24542505.281                    24542513.488
 11  8 22  3  1  0.0000000  0 10G15G26G18G29G12G05G25G02G30G21
 118956762.738 7  92693743.047 7  22636739.234                    22636747.336
 115362465.422 7  89892816.88445  21952734.875                    21952744.344
 128110854.999 6  99826569.99443  24378657.398                    24378668.531
 110966325.121 7  86467347.115 7  21116196.000                    21116203.992
 121215745.003 7  94453927.621 6  23066597.531                    23066607.410
 112507014.252 8  87667880.753 7  21409351.352                    21409359.563
 116544352.685 8  90813840.038 7  22177651.633                    22177663.141
 118249553.816 7  92142639.81344  22502120.664                    22502127.516
 118416727.144 7  92272796.83645  22533953.055                    22533962.887
 128915305.557 7 100453565.81743  24531772.344                    24531780.031
 11  8 22  3  1 30.0000000  0 10G15G26G18G29G12G05G25G02G30G21
 118865974.889 7  92622999.324 7  22619461.406                    22619471.000
 115295951.519 7  89840987.88645  21940077.398                    21940087.332
 128024600.740 6  99759358.96443  24362243.164                    24362255.258
 110904326.284 7  86419036.360 7  21104397.656                    21104405.852
 121307202.858 7  94525193.463 6  23084001.406                    23084011.352
 112576893.125 8  87722331.822 7  21422649.078                    21422657.172
 116598402.775 7  90855956.968 7  22187936.641                    22187948.984
 118296783.956 7  92179442.50545  22511107.898                    22511114.629
 118480936.984 7  92322830.44045  22546171.625                    22546181.410
 128858879.182 7 100409597.30044  24521034.352                    24521043.031
 11  8 22  3  2  0.0000000  0 10G15G26G18G29G12G05G25G02G30G21
 118775371.956 7  92552399.656 7  22602220.484                    22602230.902
 115229889.705 7  89789511.16345  21927507.094                    21927516.602
 127938534.213 6  99692294.30543  24345865.039                    24345876.809
 110842637.297 7  86370967.041 7  21092658.117                    21092667.578
 121398779.168 7  94596551.596 7  23101428.242                    23101437.660
 112647048.242 8  87776998.136 7  21435998.977                    21436007.578
 116652847.832 8  90898381.658 7  22198297.320                    22198309.434
 118344115.901 7  92216324.52045  22520115.164                    22520121.898
 118545480.628 7  92373124.13845  22558453.750                    22558463.805
 128802427.002 7 100365608.66544  24510292.219                    24510300.086
 11  8 22  3  2 30.0000000  0 10G15G26G18G29G12G05G25G02G30G21
 118684957.165 7  92481946.634 7  22585015.477                    22585024.617
 115164283.020 7  89738389.10345  21915022.039                    21915031.605
 127852656.388 6  99625376.66442  24329523.078                    24329534.512
 110781259.997 7  86323140.595 7  21080978.945                    21080987.738
 121490470.555 7  94667999.405 6  23118876.664                    23118885.801
 112717476.969 8  87831877.663 7  21449401.172                    21449409.422
 116707684.824 8  90941111.770 7  22208732.336                    22208744.594
 118391549.534 7  92253285.75745  22529141.508                    22529148.602
 118610354.708 7  92423675.33744  22570798.688                    22570809.195
 128745948.625 7 100321599.63043  24499544.453                    24499553.195
 11  8 22  3  3  0.0000000  0 10G15G26G18G29G12G05G25G02G30G21
 118594733.399 7  92411642.472 6  22567845.789                    22567854.449
 115099134.828 7  89687624.31945  21902624.664                    21902633.613
 127766968.424 6  99558607.00943  24313217.172                    24313228.047
 110720196.729 7  86275558.837 7  21069358.648                    21069367.500
 121582274.381 7  94739534.839 6  23136346.172                    23136355.250
 112788176.878 8  87886968.499 7  21462854.555                    21462863.188
 116762911.056 7  90984145.167 7  22219241.500                    22219254.004
 118439085.339 7  92290326.61545  22538186.805                    22538194.762
 118675556.010 7  92474481.52744  22583206.102                    22583216.578
 128689443.558 7 100277569.78843  24488791.719                    24488800.313
 11  8 22  3  3 30.0000000  0 10G15G26G18G29G12G05G25G02G30G21
 118504703.299 7  92341489.216 6  22550713.813                    22550722.020
 115034448.033 7  89637219.04545  21890315.688                    21890324.289
 127681471.343 6  99491986.05043  24296947.836                    24296959.176
 110659449.400 8  86228223.276 7  21057799.109                    21057807.754
 121674186.972 7  94811155.034 6  23153836.719                    23153845.441
 112859145.048 8  87942268.368 7  21476359.883                    21476367.754
 116818523.531 8  91027479.555 7  22229824.914                    22229836.855
 118486723.750 7  92327447.43245  22547252.844                    22547259.770
 118741081.332 7  92525540.21045  22595675.250                    22595685.305
 128632910.975 6 100233518.53843  24478034.102                    24478042.453
 11  8 22  3  4  0.0000000  0 10G15G26G18G29G12G05G25G02G30G21
 118414870.435 7  92271489.616 6  22533619.086                    22533626.902
 114970226.623 7  89587176.44445  21878094.539                    21878103.719
 127596166.796 6  99425515.07843  24280714.391                    24280726.613
 110599021.389 8  86181136.521 7  21046299.625                    21046308.723
 121766205.769 7  94882857.908 6  23171346.914                    23171355.270
 112930379.376 8  87997775.639 7  21489914.883                    21489923.035
 116874519.906 8  91071113.078 7  22240480.633                    22240492.344
 118534465.505 7  92364648.78845  22556337.578                    22556344.559
 118806928.006 7  92576849.24045  22608206.430                    22608215.270
 128576350.643 6 100189445.64643  24467270.023                    24467278.926
 11  8 22  3  4 30.0000000  0 10G15G26G18G29G12G05G25G02G30G21
 118325237.973 7  92201646.236 7  22516562.234                    22516570.762
 114906473.539 7  89537498.72645  21865963.188                    21865971.883
 127511055.496 6  99359194.73043  24264518.617                    24264530.340
 110538914.658 8  86134300.111 7  21034861.859                    21034870.391
 121858327.938 7  94954641.385 6  23188877.063                    23188885.477
 113001877.347 8  88053488.335 7  21503520.820                    21503528.477
 116930897.497 8  91115043.635 7  22251208.969                    22251219.527
 118582310.895 7  92401930.88045  22565442.492                    22565449.414
 118873092.805 7  92628406.18645  22620797.273                    22620805.613
 128519762.301 6 100145350.93742  24456501.641                    24456510.188
 11  8 22  3  5  0.0000000  0 10G15G26G18G29G12G05G25G02G30G21
 118235809.200 7  92131961.527 7  22499544.594                    22499554.328
 114843192.122 7  89488188.57545  21853920.328                    21853929.262
 127426138.656 6  99293025.85443  24248359.539                    24248370.637
 110479131.604 8  86087715.919 7  21023485.633                    21023494.359
 121950550.138 7  95026502.835 6  23206426.891                    23206435.258
 113073636.892 8  88109404.857 7  21517175.992                    21517184.121
 116987653.449 8  91159269.033 7  22262009.516                    22262020.047
 118630260.107 7  92439293.85845  22574566.625                    22574573.660
 118939572.695 7  92680208.67045  22633447.430                    22633457.102
 128463145.757 6 100101234.24843  24445727.930                    24445736.328
 11  8 22  3  5 30.0000000  0 10G15G26G18G29G12G05G25G02G30G21
 118146587.036 7  92062437.812 7  22482565.836                    22482576.512
 114780385.530 7  89439248.39445  21841968.344                    21841977.867
 127341417.496 6  99227009.48742  24232236.297                    24232248.770
 110419674.310 7  86041385.570 7  21012171.336                    21012179.691
 122042868.882 7  95098439.499 6  23223994.492                    23224003.734
 113145655.158 8  88165522.973 7  21530880.656                    21530889.102
 117044784.985 7  91203787.106 7  22272880.383                    22272892.188
 118678313.913 7  92476738.34844  22583711.203                    22583717.863
 119006364.448 7  92732254.18144  22646157.523                    22646166.836
 128406500.104 6 100057094.89242  24434947.953                    24434956.988
 11  8 22  3  6  0.0000000  0 10G15G26G18G29G12G05G25G02G30G21
 118057574.643 7  91993077.534 7  22465627.445                    22465637.797
 114718057.222 7  89390680.89445  21830108.297                    21830116.871
 127256892.995 6  99161146.33243  24216153.242                    24216163.855
 110360545.502 8  85995311.178 7  21000919.875                    21000928.086
 122135281.586 7  95170449.389 6  23241580.445                    23241590.051
 113217929.864 8  88221840.920 7  21544633.992                    21544642.059
 117102289.432 7  91248595.756 7  22283822.828                    22283835.309
 118726472.602 7  92514264.59045  22592875.625                    22592882.359
 119073465.079 7  92784540.37144  22658926.508                    22658935.328
 128349825.152 6 100012932.73343  24424163.813                    24424172.449
 11  8 22  3  6 30.0000000  0 10G15G26G18G29G12G05G25G02G30G21
 117968774.728 7  91923882.859 7  22448729.281                    22448738.207
 114656209.949 7  89342488.22845  21818338.469                    21818348.500
 127172566.259 6  99095437.30943  24200106.875                    24200117.527
 110301747.338 8  85949494.449 7  20989730.617                    20989739.082
 122227785.165 7  95242530.125 7  23259182.711                    23259193.047
 113290458.232 8  88278356.521 7  21558436.063                    21558444.184
 117160163.761 7  91293692.599 7  22294836.375                    22294847.727
 118774736.341 7  92551872.65945  22602059.969                    22602066.840
 119140871.135 7  92837064.52044  22671753.242                    22671762.250
 128293120.382 7  99968747.32843  24413373.375                    24413381.742
 11  8 22  3  7  0.0000000  0 10G15G26G18G29G12G05G25G02G30G21
 117880190.582 7  91854856.286 6  22431872.859                    22431881.578
 114594847.102 7  89294673.06045  21806661.750                    21806670.961
 127088438.399 7  99029883.32243  24184097.414                    24184107.512
 110243282.240 8  85903937.246 7  20978604.773                    20978613.613
 122320376.370 7  95314679.083 6  23276802.570                    23276812.484
 113363237.850 8  88335067.908 7  21572285.156                    21572293.012
 117218405.074 7  91339075.442 7  22305920.188                    22305931.516
 118823105.832 7  92589563.15245  22611264.664                    22611271.699
 119208579.574 7  92889824.32145  22684637.500                    22684647.168
 128236385.171 6  99924538.23743  24402576.977                    24402585.914
 11  8 22  3  7 30.0000000  0 10G15G26G18G29G12G05G25G02G30G21
 117791825.503 7  91786000.456 7  22415056.773                    22415066.418
 114533971.766 7  89247237.76945  21795077.531                    21795086.844
 127004510.194 7  98964484.85043  24168126.539                    24168136.270
 110185152.097 8  85858641.041 7  20967543.273                    20967551.711
 122413052.298 7  95386894.033 6  23294437.773                    23294446.563
 113436266.280 8  88391973.155 7  21586182.094                    21586189.707
 117277010.632 7  91384742.083 7  22317072.125                    22317083.285
 118871581.246 7  92627336.22045  22620488.680                    22620495.852
 119276587.157 7  92942817.21745  22697578.828                    22697588.797
 128179619.253 6  99880305.14743  24391773.789                    24391783.730
 11  8 22  3  8  0.0000000  0 10G15G26G18G29G12G05G25G02G30G21
 117703682.142 7  91717317.363 7  22398283.898                    22398292.813
 114473586.776 7  89200184.58745  21783586.680                    21783595.551
 126920782.591 7  98899242.79143  24152193.313                    24152204.113
 110127358.808 8  85813607.353 7  20956545.625                    20956553.871
 122505809.584 7  95459172.441 6  23312089.180                    23312098.094
 113509540.861 8  88449070.223 7  21600125.484                    21600133.668
 117335977.354 7  91430690.167 7  22328293.125                    22328303.762
 118920162.894 7  92665192.03745  22629733.695                    22629740.844
 119344890.553 7  92996040.57744  22710576.789                    22710587.082
 128122821.989 6  99836047.64743  24380966.047                    24380975.066
 11  8 22  3  8 30.0000000  0 10G15G26G18G29G12G05G25G02G30G21
 117615764.475 7  91648810.146 7  22381553.992                    22381561.734
 114413696.261 7  89153516.68045  21772189.938                    21772199.117
 126837257.350 6  98834158.36443  24136296.984                    24136309.008
 110069906.249 7  85768839.144 7  20945612.688                    20945620.828
 122598646.060 7  95531512.545 6  23329755.219                    23329764.637
 113583059.924 8  88506357.784 7  21614115.516                    21614123.852
 117395303.267 8  91476918.130 7  22339582.570                    22339593.773
 118968852.035 7  92703131.60845  22638999.117                    22639006.188
 119413487.446 7  93049492.70045  22723630.305                    22723640.891
 128065993.536 6  99791765.85743  24370151.766                    24370160.719
 11  8 22  3  9  0.0000000  0 10G15G26G18G29G12G05G25G02G30G21
 117528075.503 7  91580481.152 7  22364866.688                    22364875.711
 114354303.114 7  89107236.32745  21760887.500                    21760897.367
 126753935.734 6  98769232.53443  24120442.742                    24120454.234
 110012796.536 8  85724338.101 7  20934744.633                    20934753.313
 122691558.306 7  95603911.683 6  23347436.094                    23347445.121
 113656820.617 8  88563833.643 7  21628151.945                    21628160.332
 117454985.224 8  91523423.564 7  22350939.461                    22350951.055
 119017648.980 7  92741155.18545  22648284.594                    22648291.348
 119482374.396 7  93103170.81845  22736738.680                    22736749.477
 128009133.525 6  99747459.45943  24359331.250                    24359340.777
 11  8 22  3  9 30.0000000  0 10G15G26G18G29G12G05G25G02G30G21
 117440618.090 7  91512332.547 7  22348224.094                    22348233.859
 114295410.297 7  89061345.83245  21749680.586                    21749690.160
 126670818.350 6  98704465.89043  24104626.719                    24104636.926
 109956031.740 8  85680105.829 7  20923942.492                    20923951.570
 122784543.533 7  95676367.680 6  23365130.328                    23365140.016
 113730820.540 8  88621495.895 7  21642233.719                    21642241.457
 117515020.330 7  91570204.160 7  22362364.117                    22362375.090
 119066553.883 7  92779262.88945  22657591.313                    22657598.273
 119551548.136 7  93157072.43545  22749902.398                    22749912.129
 127952241.338 6  99703127.99043  24348505.297                    24348514.621
 11  8 22  3 10  0.0000000  0 10G15G26G18G29G12G05G25G02G30G21
 117353395.265 7  91444366.762 7  22331626.242                    22331636.387
 114237020.705 7  89015847.49745  21738569.016                    21738578.414
 126587906.200 6  98639859.21943  24088847.438                    24088858.684
 109899613.781 8  85636143.823 7  20913207.031                    20913215.395
 122877598.450 7  95748878.014 6  23382838.586                    23382848.203
 113805057.224 8  88679342.650 7  21656360.578                    21656368.641
 117575405.535 7  91617257.571 7  22373854.547                    22373866.734
 119115567.123 7  92817455.01844  22666918.172                    22666924.395
 119621005.401 7  93211194.96744  22763119.313                    22763129.867
 127895316.367 6  99658770.96543  24337673.461                    24337681.832
 11  8 22  3 10 30.0000000  0 10G15G26G18G29G12G05G25G02G30G21
 117266409.991 7  91376586.091 7  22315073.641                    22315083.605
 114179137.564 7  88970743.78945  21727555.016                    21727564.289
 126505200.195 6  98575413.19843  24073108.883                    24073120.102
 109843545.455 8  85592454.265 8  20902537.742                    20902545.785
 122970719.956 7  95821440.231 6  23400558.320                    23400568.746
 113879528.393 8  88737372.132 7  21670531.953                    21670539.828
 117636138.145 7  91664581.670 7  22385411.742                    22385423.426
 119164689.587 7  92855732.24345  22676265.297                    22676272.629
 119690743.147 7  93265536.04845  22776390.484                    22776399.789
 127838358.169 6  99614388.06144  24326833.875                    24326843.184
 11  8 22  3 11  0.0000000  0 10G15G26G18G29G12G05G25G02G30G21
 117179666.113 7  91308993.508 7  22298567.250                    22298576.547
 114121764.300 7  88926037.38245  21716637.281                    21716646.676
 126422701.896 6  98511129.04743  24057410.305                    24057420.602
 109787829.325 8  85549039.148 8  20891934.820                    20891943.309
 123063905.615 6  95894052.418 6  23418290.586                    23418301.387
 113954231.675 8  88795582.485 7  21684747.813                    21684755.801
 117697215.582 7  91712174.458 7  22397034.211                    22397046.652
 119213921.448 7  92894094.73344  22685633.930                    22685640.703
 119760758.561 7  93320093.51045  22789713.953                    22789723.324
 127781366.985 7  99569979.43844  24315988.953                    24315997.523
 11  8 22  3 11 30.0000000  0 10G15G26G18G29G12G05G25G02G30G21
 117093166.044 7  91241590.891 7  22282106.430                    22282115.359
 114064903.672 7  88881730.44145  21705817.305                    21705825.801
 126340412.254 6  98447007.47643  24041749.664                    24041761.266
 109732467.154 7  85505899.810 7  20881399.742                    20881408.484
 123157151.990 6  95966711.915 6  23436034.688                    23436045.156
 114029164.291 8  88853971.519 7  21699006.844                    21699015.027
 117758634.545 7  91760033.381 7  22408721.664                    22408733.727
 119263263.111 7  92932542.77544  22695023.039                    22695029.867
 119831047.976 7  93374864.46344  22803089.547                    22803098.559
 127724341.875 7  99525544.43044  24305136.898                    24305146.043
 11  8 22  3 12  0.0000000  0 10G15G26G18G29G12G05G25G02G30G21
 117006913.130 7  91174380.875 7  22265693.398                    22265701.941
 114008558.505 7  88837825.16445  21695095.125                    21695103.586
 126258331.701 6  98383048.80843  24026131.148                    24026141.883
 109677461.482 8  85463038.273 8  20870932.781                    20870941.680
 123250456.484 6  96039416.673 6  23453790.148                    23453799.676
 114104324.034 8  88912537.527 7  21713309.141                    21713317.949
 117820392.269 7  91808156.247 7  22420473.469                    22420485.086
 119312715.174 7  92971076.83045  22704434.375                    22704440.609
 119901608.317 7  93429846.53044  22816516.281                    22816525.727
 127667282.736 6  99481082.81843  24294279.109                    24294287.938
 11  8 22  3 12 30.0000000  0 10G15G26G18G29G12G05G25G02G30G21
 116920910.342 7  91107365.763 7  22249326.930                    22249335.492
 113952732.331 7  88794324.28945  21684471.219                    21684480.590
 126176461.567 6  98319254.04343  24010551.727                    24010562.035
 109622814.458 8  85420456.191 8  20860533.797                    20860542.289
 123343815.691 6  96112164.076 6  23471556.039                    23471565.438
 114179708.433 8  88971278.612 7  21727654.320                    21727662.773
 117882485.826 7  91856540.820 7  22432289.805                    22432300.996
 119362277.987 7  93009697.20145  22713865.914                    22713872.352
 119972436.463 7  93485037.24544  22829994.492                    22830004.574
 127610189.119 6  99436594.35243  24283414.594                    24283422.914
 11  8 22  3 13  0.0000000  0 10G15G26G18G29G12G05G25G02G30G21
 116835160.834 7  91040548.020 7  22233009.266                    22233017.797
 113897427.596 7  88751229.70945  21673946.727                    21673956.137
 126094802.861 6  98255624.01543  23995013.766                    23995022.211
 109568528.720 7  85378155.637 8  20850203.430                    20850211.523
 123437226.877 6  96184951.970 6  23489331.797                    23489340.863
 114255315.290 8  89030193.043 7  21742042.203                    21742050.398
 117944912.403 7  91905184.892 7  22444168.820                    22444180.508
 119411952.113 7  93048404.31344  22723317.766                    22723324.551
 120043529.284 7  93540434.24544  22843522.461                    22843532.977
 127553060.611 6  99392078.70443  24272543.617                    24272551.660
 11  8 22  3 13 30.0000000  0 10G15G26G18G29G12G05G25G02G30G21
 116749667.791 7  90973930.104 7  22216740.570                    22216748.980
 113842647.664 7  88708544.06745  21663522.289                    21663532.152
 126013356.390 6  98192159.40543  23979514.453                    23979523.445
 109514606.276 8  85336138.165 8  20839942.188                    20839950.734
 123530686.559 7  96257777.727 6  23507116.516                    23507125.273
 114331141.989 8  89089278.761 7  21756471.453                    21756480.254
 118007668.916 7  91954086.077 7  22456111.258                    22456122.613
 119461738.000 7  93087198.49544  22732792.039                    22732798.414
 120114883.418 7  93596034.86745  22857101.813                    22857111.738
 127495896.858 6  99347535.58643  24261664.375                    24261673.590
 11  8 22  3 14  0.0000000  0 10G15G26G18G29G12G05G25G02G30G21
 116664434.058 7  90907514.231 7  22200521.484                    22200530.422
 113788395.234 7  88666269.47445  21653199.313                    21653207.766
 125932123.076 6  98128860.85943  23964055.094                    23964064.156
 109461049.378 8  85294405.537 8  20829750.750                    20829759.258
 123624192.137 7  96330639.214 6  23524910.547                    23524918.438
 114407185.796 8  89148533.668 7  21770941.586                    21770950.363
 118070752.398 7  92003242.037 7  22468115.711                    22468127.141
 119511636.039 7  93126080.04844  22742287.367                    22742293.992
 120186495.662 7  93651836.59345  22870729.383                    22870739.492
 127438697.523 6  99302964.74543  24250780.281                    24250788.207
 11  8 22  3 14 30.0000000  0 10G15G26G18G29G12G05G25G02G30G21
 116579463.197 7  90841303.210 7  22184352.094                    22184361.383
 113734673.506 7  88624408.44145  21642976.016                    21642984.941
 125851104.199 6  98065729.43243  23948637.508                    23948646.738
 109407860.656 8  85252959.803 8  20819628.773                    20819637.844
 123717740.861 7  96403534.318 6  23542712.922                    23542720.535
 114483444.920 8  89207956.347 7  21785453.367                    21785462.184
 118134160.197 7  92052650.699 7  22480181.969                    22480194.105
 119561646.876 7  93165049.51845  22751804.203                    22751811.152
 120258363.065 7  93707837.14745  22884405.164                    22884415.254
 127381462.254 6  99258365.91644  24239889.195                    24239897.828
 11  8 22  3 15  0.0000000  0 10G15G26G18G29G12G05G25G02G30G21
 116494757.594 7  90775298.886 7  22168232.469                    22168242.391
 113681485.082 7  88582962.95145  21632854.750                    21632864.090
 125770300.416 6  98002765.56042  23933260.992                    23933270.168
 109355041.937 8  85211802.392 7  20809578.117                    20809586.918
 123811329.443 7  96476460.493 6  23560521.789                    23560530.773
 114559916.476 8  89267544.556 7  21800005.820                    21800014.504
 118197888.953 7  92102309.452 7  22492309.445                    22492321.109
 119611770.747 7  93204107.07944  22761342.445                    22761349.844
 120330481.986 7  93764033.67945  22898129.188                    22898138.809
 127324190.804 6  99213738.85543  24228990.305                    24229000.082
 11  8 22  3 15 30.0000000  0 10G15G26G18G29G12G05G25G02G30G21
 116410320.828 7  90709504.058 7  22152165.180                    22152174.055
 113628833.041 7  88541935.41545  21622835.750                    21622844.449
 125689712.758 6  97939970.16243  23917925.914                    23917934.586
 109302596.201 8  85170935.598 8  20799597.844                    20799605.914
 123904955.137 7  96549415.577 6  23578337.414                    23578347.434
 114636598.428 8  89327296.736 7  21814597.844                    21814606.465
 118261936.099 7  92152216.295 7  22504497.398                    22504508.508
 119662008.379 7  93243253.31044  22770901.547                    22770909.418
 120402849.697 7  93820424.06444  22911899.820                    22911909.957
 127266883.122 6  99169083.55743  24218085.531                    24218094.566
 11  8 22  3 16  0.0000000  0 10G15G26G18G29G12G05G25G02G30G21
 116326156.021 7  90643921.137 7  22136149.898                    22136158.332
 113576720.366 7  88501328.19245  21612918.180                    21612927.238
 125609342.239 6  97877343.95343  23902632.547                    23902640.344
 109250525.368 8  85130360.929 8  20789689.594                    20789697.457
 123998615.018 6  96622397.317 6  23596160.375                    23596170.918
 114713488.389 7  89387210.985 7  21829228.836                    21829237.406
 118326298.640 7  92202368.919 7  22516744.891                    22516755.980
 119712360.183 7  93282488.48044  22780483.852                    22780491.082
 120475462.908 7  93877005.76044  22925718.438                    22925727.887
 127209538.358 6  99124399.41844  24207173.242                    24207182.102
 11  8 22  3 16 30.0000000  0 10G15G26G18G29G12G05G25G02G30G21
 116242266.181 7  90578552.466 7  22120185.664                    22120194.340
 113525149.777 7  88461143.34345  21603104.953                    21603113.324
 125529189.920 6  97814887.79843  23887379.078                    23887388.824
 109198831.546 8  85090080.044 8  20779851.930                    20779860.426
 124092306.069 6  96695403.306 6  23613988.883                    23613999.348
 114790584.022 8  89447285.497 7  21843900.141                    21843908.898
 118390973.462 7  92252764.871 7  22529051.961                    22529063.441
 119762826.464 7  93321812.82945  22790087.141                    22790094.137
 120548318.350 7  93933776.21444  22939581.734                    22939591.488
 127152156.233 6  99079686.11643  24196252.984                    24196262.410
 11  8 22  3 17  0.0000000  0 10G15G26G18G29G12G05G25G02G30G21
 116158654.426 7  90513400.525 7  22104273.852                    22104283.277
 113474124.294 7  88421383.24645  21593395.078                    21593404.055
 125449256.773 6  97752602.42743  23872168.305                    23872178.445
 109147517.265 8  85050094.913 8  20770087.563                    20770095.816
 124186025.520 7  96768431.425 6  23631824.469                    23631833.266
 114867882.882 8  89507518.364 7  21858609.859                    21858617.680
 118455957.829 7  92303402.066 7  22541417.734                    22541430.102
 119813407.806 7  93361226.84445  22799712.742                    22799720.336
 120621412.963 7  93990733.02745  22953491.430                    22953501.258
 127094736.712 6  99034943.67743  24185325.984                    24185335.441
 11  8 22  3 17 30.0000000  0 10G15G26G18G29G12G05G25G02G30G21
 116075324.058 7  90448467.787 7  22088417.203                    22088425.793
 113423646.770 8  88382050.13045  21583789.969                    21583798.605
 125369543.653 6  97690488.45443  23856998.898                    23857009.945
 109096584.756 8  85010407.266 8  20760395.297                    20760403.957
 124279770.407 7  96841479.341 6  23649663.328                    23649673.004
 114945382.707 8  89567907.827 7  21873357.484                    21873365.168
 118521248.712 7  92354278.081 7  22553842.641                    22553854.621
 119864104.864 7  93400731.06345  22809360.344                    22809367.430
 120694743.481 7  94047873.66544  22967445.594                    22967455.098
 127037279.272 6  98990171.69943  24174392.633                    24174401.289
 11  8 22  3 18  0.0000000  0 10G15G26G18G29G12G05G25G02G30G21
 115992277.871 7  90383756.527 7  22072614.352                    22072622.699
 113373720.223 8  88343146.33745  21574289.211                    21574297.805
 125290051.306 7  97628546.48643  23841873.063                    23841882.508
 109046036.682 8  84971019.181 8  20750776.438                    20750784.750
 124373538.031 7  96914544.997 7  23667506.758                    23667517.176
 115023080.927 8  89628451.852 7  21888143.078                    21888151.297
 118586843.271 7  92405390.715 7  22566325.547                    22566336.773
 119914918.089 7  93440325.81044  22819029.563                    22819036.754
 120768306.879 7  94105195.78844  22981444.445                    22981454.156
 126979784.079 6  98945370.33143  24163451.953                    24163460.824
 11  8 22  3 18 30.0000000  0 10G15G26G18G29G12G05G25G02G30G21
 115909518.876 7  90319269.034 7  22056865.938                    22056874.758
 113324346.868 7  88304673.61945  21564893.523                    21564902.852
 125210780.504 7  97566777.18443  23826787.305                    23826797.137
 108995874.943 8  84931932.135 8  20741230.781                    20741239.555
 124467325.102 7  96987625.859 7  23685353.125                    23685364.145
 115100975.184 8  89689148.682 7  21902965.930                    21902973.664
 118652738.230 7  92456737.394 7  22578864.063                    22578875.578
 119965847.936 7  93480011.40644  22828720.680                    22828728.480
 120842099.639 7  94162696.60644  22995486.250                    22995496.441
 126922250.504 7  98900539.03343  24152503.563                    24152511.371
 11  8 22  3 19  0.0000000  0 10G15G26G18G29G12G05G25G02G30G21
 115827050.259 7  90255007.842 7  22041172.148                    22041180.688
 113275530.076 7  88266634.59045  21555603.477                    21555612.793
 125131732.442 7  97505181.44643  23811744.883                    23811753.746
 108946102.144 8  84893148.165 8  20731759.375                    20731767.855
 124561128.901 7  97060719.747 6  23703203.453                    23703214.051
 115179063.794 8  89749996.932 7  21917825.914                    21917833.871
 118718930.900 7  92508316.076 7  22591460.063                    22591471.941
 120016894.890 7  93519788.25645  22838435.250                    22838441.762
 120916118.869 7  94220373.92444  23009572.297                    23009582.188
 126864678.371 7  98855677.70043  24141547.906                    24141556.105
 11  8 22  3 19 30.0000000  0 10G15G26G18G29G12G05G25G02G30G21
 115744874.661 7  90190974.930 7  22025535.023                    22025543.203
 113227271.804 8  88229030.76245  21546420.125                    21546429.383
 125052907.473 6  97443759.49543  23796744.758                    23796753.730
 108896719.552 8  84854668.257 8  20722362.164                    20722370.793
 124654946.160 7  97133824.113 6  23721056.492                    23721066.102
 115257343.446 8  89810994.067 7  21932721.586                    21932730.215
 118785417.711 7  92560123.960 7  22604112.414                    22604123.805
 120068059.225 7  93559656.59045  22848171.500                    22848178.730
 120990360.783 7  94278224.72444  23023699.656                    23023709.281
 126807067.087 7  98810785.88443  24130584.602                    24130592.770
 11  8 22  3 20  0.0000000  0 10G15G26G18G29G12G05G25G02G30G21
 115662995.552 7  90127173.059 7  22009953.672                    22009962.730
 113179575.177 7  88191864.57645  21537344.039                    21537352.648
 124974306.769 6  97382512.25743  23781787.984                    23781796.539
 108847729.649 8  84816494.327 8  20713039.563                    20713048.270
 124748773.964 7  97206936.686 6  23738910.523                    23738920.348
 115335811.948 8  89872138.321 7  21947653.609                    21947661.949
 118852195.941 7  92612158.949 7  22616819.828                    22616832.090
 120119341.712 7  93599616.97644  22857929.609                    22857936.551
 121064822.504 7  94336246.82044  23037869.969                    23037878.535
 126749416.284 7  98765863.27343  24119614.414                    24119622.035
 11  8 22  3 20 30.0000000  0 10G15G26G18G29G12G05G25G02G30G21
 115581415.966 7  90063604.585 7  21994429.023                    21994438.344
 113132443.172 8  88155138.36745  21528375.313                    21528383.859
 124895931.395 6  97321440.65643  23766873.555                    23766883.094
 108799135.406 8  84778628.703 8  20703792.633                    20703801.102
 124842609.809 7  97280055.496 5  23756767.289                    23756775.172
 115414467.606 8  89933428.428 7  21962621.336                    21962629.594
 118919262.812 8  92664418.876 7  22629582.484                    22629594.570
 120170742.758 7  93639669.74944  22867711.258                    22867717.547
 121139500.990 7  94394437.86044  23052080.688                    23052088.672
 126691726.189 7  98720910.02543  24108635.664                    24108644.539
 11  8 22  3 21  0.0000000  0 10G15G26G18G29G12G05G25G02G30G21
 115500138.827 7  90000271.775 7  21978962.961                    21978971.645
 113085878.186 7  88118853.99945  21519513.789                    21519523.270
 124817781.945 6  97260545.07043  23752002.125                    23752011.660
 108750938.649 8  84741072.823 8  20694620.906                    20694629.320
 124936450.816 6  97353178.327 6  23774624.898                    23774632.242
 115493307.646 7  89994862.227 7  21977623.813                    21977632.457
 118986615.052 7  92716901.171 7  22642398.703                    22642411.023
 120222262.862 7  93679815.31044  22877515.453                    22877520.969
 121214392.850 7  94452795.15044  23066332.281                    23066340.137
 126633996.224 7  98675925.77044  24097650.633                    24097658.879
